     2              OBSERVATION DATA    GPS                 RINEX VERSION / TYPE
srx/v1.8.1.4 seismo 97/07/08 21:54:10                       PGM / RUN BY / DATE
                                                            COMMENT
sig: 9 8 7 6 5 4 1 0                                        COMMENT
sig: 9 8 7 6 5 4 1 0                                        COMMENT
sig: 9 8 7 6 5 4 1 0                                        COMMENT
Original Marker Name: QUAR                                  COMMENT
Campaign Name: Harvey Mudd 1997-1999                        COMMENT
4-Character Station Name: QUAR                              COMMENT
6-Character Antenna Code: DMRCHT                            COMMENT
Vertical Measurement Point: BCR                             COMMENT
Vertical Offset to Rinex Ref. Point: 0.0348                 COMMENT
Radial Measurement Point: ECF                               COMMENT
Radial Offset to Rinex Ref. Point: 0.1897                   COMMENT
Antenna Height from Field Measurement: 1.4950 m             COMMENT
Additional Antenna Identification Info.:                    COMMENT
Turborogue and Ashtech Choke Ring                           COMMENT
Original XYZ: -2579271.4107 -4561754.4064 3624892.7125      COMMENT
New XYZ position is based on association with SCEC monument COMMENT
E1D0R2V0+0011. Position of that monument is believed to be  COMMENT
valid to within 1 m horizontally; vertical accuracy         COMMENT
should be no worse than 3-times this value.                 COMMENT
                                                            COMMENT
Revised Rinex header created by UCSD GPS archive for        COMMENT
GSAC on 09-Nov-2004 (2004:314) 22:04:34 GMT                 COMMENT
For assistance contact dagnew@ucsd.edu                      COMMENT
or anderson@python.ucsd.edu                                 COMMENT
                                                            COMMENT
QUARRY 1976                                                 MARKER NAME
QUAR                                                        MARKER NUMBER
D&M HARVEY MUDD COLLEGE                                     OBSERVER / AGENCY
T263 TURBOROGUE SNR-8000 95.03.08                           REC # / TYPE / VERS
260 DORNE-MARGOL. TYPE T                                    ANT # / TYPE
 -2451611.0000 -4682437.0000  3558872.0000                  APPROX POSITION XYZ
        1.4481        0.0000        0.0000                  ANTENNA: DELTA H/E/N
     1     1     0                                          WAVELENGTH FACT L1/2
     5    L1    L2    P1    P2    C1                        # / TYPES OF OBSERV
    30                                                      INTERVAL
  1997     6    27    15    40   30.000000                  TIME OF FIRST OBS
  1997     6    27    23    45    0.000000                  TIME OF LAST OBS
    19                                                      # OF SATELLITES
          01   110   110     0   110   110                  PRN / # OF OBS
          02    98    98     0    98    98                  PRN / # OF OBS
          03   184   184     0   184   184                  PRN / # OF OBS
          04   414   414     0   414   414                  PRN / # OF OBS
          05   658   658     0   658   658                  PRN / # OF OBS
          06   637   637     0   637   637                  PRN / # OF OBS
          07   264   264     0   264   264                  PRN / # OF OBS
          09   456   456     0   456   456                  PRN / # OF OBS
          10   642   642     0   642   642                  PRN / # OF OBS
          16   142   142     0   142   142                  PRN / # OF OBS
          17   638   638     0   638   638                  PRN / # OF OBS
          21   321   321     0   321   321                  PRN / # OF OBS
          22   250   250     0   250   250                  PRN / # OF OBS
          23   476   476     0   476   476                  PRN / # OF OBS
          24   597   597     0   597   597                  PRN / # OF OBS
          25    49    49     0    49    49                  PRN / # OF OBS
          26   423   423     0   423   423                  PRN / # OF OBS
          30   698   698     0   698   698                  PRN / # OF OBS
                                                            END OF HEADER
 97 06 27 15 40 30.0000000  0  5 04 09 16 24 26
        -1.06659        -0.67757         0.00051  20608399.54857  20608397.61759
        -0.36559        -0.31756         0.00051  21245651.43856  21245649.68459
        -1.03558         0.39751         0.00051         0.00051  24934267.98758
        -0.31259        -0.32156         0.00051  21631848.30156  21631844.67859
        -0.48358        -0.05351         0.00051         0.00051  25228814.38458
 97 06 27 15 41 00.0000000  0  7 02 04 07 09 16 24 26
        -0.44258         0.50755         0.00051  22995863.52655  22995859.60358
    -43349.88449    -33778.97247         0.00041  20600150.60747  20600148.59049
        -0.67458        -0.46056         0.00051  21768973.05256  21768970.02058
    -40058.87549    -31214.74846         0.00041  21238028.72846  21238026.68549
    -53879.36148    -41982.59641         0.00041         0.00041  24924014.65048
    -99100.14649    -77220.95746         0.00041  21612990.26546  21612986.58049
     56322.96348         0.00041         0.00041         0.00041  25239531.18048
 97 06 27 15 41 30.0000000  0  7 02 04 07 09 16 24 26
     56712.81048     44192.57145         0.00041  23006656.85545  23006651.78048
    -80705.17249    -62886.98247         0.00041  20593042.17347  20593040.15249
     50707.32548     39512.25446         0.00041  21778622.29946  21778619.17448
    -74109.29849    -57747.55946         0.00041  21231549.42446  21231547.22549
   -101956.75148    -79445.44744         0.00041  24914874.92044  24914866.48148
   -192424.61849   -149941.31046         0.00041  21595230.82746  21595227.57449
    117976.52148         0.00041         0.00041         0.00041  25251264.68148
 97 06 27 15 42 00.0000000  0  8 02 04 05 07 09 16 24 26
    118161.11648     92074.30345         0.00041  23018349.73145  23018345.00148
   -113035.96749    -88079.80947         0.00041  20586889.72447  20586887.56949
        -1.04858        -0.94855         0.00051  23229598.65055  23229597.02158
    105980.97448     82582.59746         0.00041  21789140.56646  21789137.52448
   -103123.19849    -80355.80446         0.00041  21226028.32946  21226026.21449
   -145201.25048   -113142.44844         0.00041  24906639.78344  24906636.67548
   -280943.21649   -218916.82646         0.00041  21578386.16746  21578382.79049
    183992.31348    143370.82644         0.00041  25263829.74744  25263827.60448
 97 06 27 15 42 30.0000000  0  8 02 04 05 07 09 16 24 26
    181717.58248    141598.76245         0.00041  23030442.73045  23030439.54248
   -142955.91849   -111394.04947         0.00041  20581196.15947  20581194.09049
    -85746.24648    -66815.36745         0.00041  23213283.11545  23213280.18548
    163175.82848    127149.98946         0.00041  21800024.27846  21800021.70548
   -129751.01049   -101104.76046         0.00041  21220961.36246  21220958.83949
   -186226.95248   -145110.47444         0.00041  24898835.89344  24898829.43148
   -367276.82049   -286189.74746         0.00041  21561957.77246  21561954.54949
    251751.72648    196170.37441         0.00041         0.00041  25276721.53748
 97 06 27 15 43 00.0000000  0  8 02 04 05 07 09 16 24 26
    246908.32548    192396.67445         0.00041  23042849.20745  23042845.39148
   -170939.67049   -133199.56547         0.00041  20575871.14247  20575869.04349
   -170113.59548   -132556.03045         0.00041  23197228.15745  23197224.87148
    221821.02248    172847.51946         0.00041  21811184.70746  21811181.68448
   -154483.94649   -120377.18746         0.00041  21216254.76146  21216252.35849
   -225515.24648   -175724.67441         0.00041         0.00041  24891353.31948
   -451892.59049   -352124.09246         0.00041  21545855.89446  21545852.55749
    320779.88948    249958.56344         0.00041  25289860.82844  25289857.15848
 97 06 27 15 43 30.0000000  0  8 02 04 05 07 09 16 24 26
    314762.66648    245270.10145         0.00041  23055760.43345  23055757.10648
   -195944.26549   -152683.65747         0.00041  20571112.76447  20571110.73949
   -252073.25448   -196421.90744         0.00041  23181631.72544  23181628.34148
    282947.67548    220478.65746         0.00041  21822816.44846  21822813.37848
   -176299.11649   -137376.03346         0.00041  21212103.32946  21212101.15049
   -262052.33848   -204195.06441         0.00041         0.00041  24884400.23348
   -533750.40649   -415909.38946         0.00041  21530278.83546  21530275.46749
    392112.73148    305542.55344         0.00041  25303434.35244  25303431.08548
 97 06 27 15 44 00.0000000  0  8 02 04 05 07 09 16 24 26
    390979.69448    304659.93045         0.00041  23070265.73145  23070260.93748
   -212240.90049   -165382.32847         0.00041  20568011.84547  20568009.53249
   -325902.12648   -253950.83144         0.00041  23167582.21844  23167579.39048
    352281.93448    274505.32846         0.00041  21836010.12446  21836007.33448
   -189481.50749   -147648.03446         0.00041  21209594.75846  21209592.45149
   -290134.62248         0.00041         0.00041         0.00041  24879055.87948
   -607113.86149   -473075.70146         0.00041  21516318.47246  21516315.12349
    471465.60948    367375.97844         0.00041  25318540.02444  25318531.33748
 97 06 27 15 44 30.0000000  0  8 02 04 05 07 09 16 24 26
    478178.47248    372606.95745         0.00041  23086858.01245  23086853.70748
   -217210.57049   -169254.79147         0.00041  20567066.13447  20567063.92149
   -388953.58748   -303081.79045         0.00041  23155584.40945  23155581.09948
    432463.75848    336984.65046         0.00041  21851268.27046  21851265.28348
   -191403.51649   -149145.71546         0.00041  21209229.00046  21209226.78149
   -307126.21348   -239317.50141         0.00041         0.00041  24875823.23648
   -669352.83649   -521573.58646         0.00041  21504474.77646  21504471.55049
    561459.49948    437501.04044         0.00041  25335654.40144  25335656.21448
 97 06 27 15 45 00.0000000  0  8 02 04 05 07 09 16 24 26
    561537.15748    437561.72345         0.00041  23102720.55845  23102716.71548
   -225687.50549   -175860.18647         0.00041  20565453.01047  20565451.03049
   -456059.15548   -355371.80645         0.00041  23142814.78645  23142811.57648
    508654.78448    396354.25946         0.00041  21865766.83746  21865763.59548
   -196870.47149   -153405.69446         0.00041  21208188.62146  21208186.17949
   -327862.38848   -255475.55044         0.00041  24871887.09244  24871877.16448
   -735294.59149   -572956.75246         0.00041  21491926.24446  21491923.02749
    647255.47548    504355.01944         0.00041  25351983.26344  25351982.49548
 97 06 27 15 45 30.0000000  0  8 02 04 05 07 09 16 24 26
    639245.39848    498113.53145         0.00041  23117509.37745  23117504.05448
   -239468.98449   -186598.99347         0.00041  20562830.42147  20562828.40949
   -529025.00848   -412228.31245         0.00041  23128929.42245  23128926.75748
    579030.24648    451192.25546         0.00041  21879159.18946  21879155.98548
   -207683.00649   -161831.05546         0.00041  21206131.29246  21206128.87049
   -354140.39348   -275951.90544         0.00041  24866880.93044  24866876.33448
   -806744.07349   -628631.65346         0.00041  21478330.17146  21478326.94949
    727037.71948         0.00041         0.00041         0.00041  25367165.61948
 97 06 27 15 46 00.0000000  0  8 02 04 05 07 09 16 24 26
    713614.23548    556063.21245         0.00041  23131659.74345  23131656.47948
   -256263.73449   -199685.80647         0.00041  20559634.27647  20559632.20149
   -605552.42548   -471860.05545         0.00041  23114366.65445  23114363.84648
    645893.90248    503293.78046         0.00041  21891882.72846  21891880.05048
   -221541.80349   -172630.13146         0.00041  21203494.08646  21203491.51549
   -383642.53648   -298940.53741         0.00041         0.00041  24861261.41748
   -881402.26349   -686806.84346         0.00041  21464123.06546  21464119.76249
    803090.46548    625784.84441         0.00041         0.00041  25381637.60048
 97 06 27 15 46 30.0000000  0  8 02 04 05 07 09 16 24 26
    786359.77548    612747.97545         0.00041  23145503.83545  23145499.28348
   -274353.64649   -213781.83147         0.00041  20556192.01047  20556190.03349
   -683933.80248   -532936.44045         0.00041  23099450.29245  23099448.32748
    710936.97648    553976.68046         0.00041  21904260.08646  21904257.03548
   -236735.61749   -184469.48046         0.00041  21200602.72146  21200600.39149
   -414646.62848   -323099.55844         0.00041  24855365.95844  24855362.67548
   -957573.93749   -746161.37746         0.00041  21449627.73246  21449624.47549
    877121.04248    683471.01444         0.00041  25395727.76444  25395725.59848
 97 06 27 15 47 00.0000000  0  8 02 04 05 07 09 16 24 26
    858310.29648    668813.24645         0.00041  23159194.91245  23159191.21948
   -292888.81449   -228224.81347         0.00041  20552664.76747  20552662.85649
   -763342.72948   -594813.52945         0.00041  23084339.32745  23084337.11048
    774993.00148    603890.43646         0.00041  21916449.52746  21916446.36548
   -252420.45149   -196691.44046         0.00041  21197617.94246  21197615.62549
   -446316.52947   -347777.34941         0.00041         0.00041  24849335.12047
  -1034421.39949   -806042.49746         0.00041  21435004.09946  21435000.88749
    949965.31948         0.00041         0.00041         0.00041  25409587.62248
 97 06 27 15 47 30.0000000  0  8 02 04 05 07 09 16 24 26
    929926.94048    724618.34145         0.00041  23172823.51445  23172819.88848
   -311395.40749   -242645.52547         0.00041  20549143.26147  20549141.20349
   -843295.32248   -657114.24845         0.00041  23069126.26645  23069122.44248
    838554.97148    653419.20946         0.00041  21928545.13146  21928542.01948
   -268141.92649   -208941.95346         0.00041  21194626.13846  21194624.16249
   -478184.66247         0.00041         0.00041         0.00041  24843270.64847
  -1111475.60649   -866084.72046         0.00041  21420341.31846  21420337.86349
   1022093.22348         0.00041         0.00041         0.00041  25423313.16648
 97 06 27 15 48 00.0000000  0  8 02 04 05 07 09 16 24 26
   1001248.03248    780193.14445         0.00041  23186396.49345  23186391.61648
   -329834.54149   -257013.67547         0.00041  20545634.23647  20545632.14949
   -923747.73648   -719804.41445         0.00041  23053816.53545  23053813.32048
    901665.64048    702596.32346         0.00041  21940553.74446  21940551.48148
   -283861.63549   -221191.08946         0.00041  21191635.05246  21191633.08949
   -510220.27447         0.00041         0.00041         0.00041  24837174.74147
  -1188701.94549   -926261.07246         0.00041  21405645.56846  21405642.34549
   1093541.90548    852110.56841         0.00041         0.00041  25436908.83948
 97 06 27 15 48 30.0000000  0  8 02 04 05 07 09 16 24 26
   1072382.65548    835622.65245         0.00041  23199931.75645  23199927.96648
   -348085.90949   -271235.51547         0.00041  20542161.07247  20542159.03449
  -1004578.67148   -782789.54445         0.00041  23038434.03145  23038431.40948
    964436.29848    751508.49746         0.00041  21952498.99546  21952496.66548
   -299463.53049   -233348.42246         0.00041  21188666.02846  21188664.11549
   -542313.54947         0.00041         0.00041         0.00041  24831067.29447
  -1265978.09749   -986476.23546         0.00041  21390940.38046  21390936.92749
   1164437.56848         0.00041         0.00041         0.00041  25450399.96348
 97 06 27 15 49 00.0000000  0  8 02 04 05 07 09 16 24 26
   1143440.01948    890991.95045         0.00041  23213453.29145  23213450.08848
   -366051.48949   -285234.66347         0.00041  20538742.41947  20538740.40649
  -1085683.63148   -845988.19545         0.00041  23023000.34645  23022997.98348
   1026986.02948    800248.51146         0.00041  21964402.13146  21964399.62248
   -314847.46049   -245335.91046         0.00041  21185738.59846  21185736.52749
   -574361.73948   -447552.87244         0.00041  24824972.65844  24824969.61148
  -1343178.64049  -1046632.48746         0.00041  21376249.53846  21376246.22949
   1234883.67348         0.00041         0.00041         0.00041  25463805.71748
 97 06 27 15 49 30.0000000  0  8 02 04 05 07 09 16 24 26
   1214624.17348    946460.05845         0.00041  23227000.56645  23226996.02648
   -383530.63449   -298854.77147         0.00041  20535416.14047  20535414.07049
  -1166866.44848   -909247.52045         0.00041  23007551.52445  23007549.64448
   1089511.64648    848969.74046         0.00041  21976300.74246  21976297.77648
   -329816.92549   -257000.44146         0.00041  21182890.09346  21182887.99149
   -606152.37448   -472324.79544         0.00041  24818927.12044  24818919.81048
  -1420088.93049  -1106562.56446         0.00041  21361614.04046  21361610.66549
   1305086.02448         0.00041         0.00041         0.00041  25477164.90548
 97 06 27 15 50 00.0000000  0  8 02 04 05 07 09 16 24 26
   1286029.34548   1002100.41045         0.00041  23240588.58245  23240583.51048
   -400443.44749   -312033.58147         0.00041  20532197.89047  20532195.62349
  -1248050.15348   -972507.53845         0.00041  22992102.96445  22992100.91948
   1152080.06448    897724.32146         0.00041  21988207.32246  21988204.29448
   -344276.61349   -268267.74146         0.00041  21180138.23346  21180136.33849
   -637587.42948   -496819.69744         0.00041  24812942.58844  24812938.53048
  -1496615.03249  -1166193.27646         0.00041  21347051.26346  21347047.95949
   1375139.00848   1071536.75041         0.00041         0.00041  25490495.02348
 97 06 27 15 50 30.0000000  0  8 02 04 05 07 09 16 24 26
   1357661.86548   1057917.88745         0.00041  23254218.73945  23254215.12548
   -416805.54949   -324783.26147         0.00041  20529084.04347  20529082.05949
  -1329242.98448  -1035774.67645         0.00041  22976653.02845  22976650.66448
   1214688.83148    946510.33946         0.00041  22000121.04546  22000118.26348
   -358229.68849   -279140.27846         0.00041  21177483.42646  21177481.14749
   -668667.59248   -521038.02341         0.00041         0.00041  24807023.90648
  -1572750.65149  -1225519.71146         0.00041  21332563.36746  21332560.14749
   1445039.20548         0.00041         0.00041         0.00041  25503796.12348
 97 06 27 15 51 00.0000000  0  8 02 04 05 07 09 16 24 26
   1429659.92848   1114020.18645         0.00041  23267920.50645  23267915.47848
   -432487.78049   -337003.17647         0.00041  20526099.90747  20526097.87349
  -1410304.46448  -1098939.45645         0.00041  22961227.89145  22961224.70948
   1277466.71848    995428.14046         0.00041  22012067.31146  22012064.26548
   -371529.22249   -289503.56246         0.00041  21174952.47646  21174950.24749
   -699245.21648   -544864.74044         0.00041  24801210.80544  24801204.52848
  -1648368.31949  -1284442.54946         0.00041  21318173.68146  21318170.43549
   1514917.17948         0.00041         0.00041         0.00041  25517094.15448
 97 06 27 15 51 30.0000000  0  8 02 04 05 07 09 16 24 26
   1501950.46948   1170350.41545         0.00041  23281677.62345  23281672.20148
   -447572.84649   -348757.76647         0.00041  20523229.33247  20523227.38049
  -1491297.17048  -1162050.63745         0.00041  22945813.98445  22945812.11748
   1340340.10148   1044420.34746         0.00041  22024031.36746  22024028.80548
   -384235.14249   -299404.28946         0.00041  21172534.36846  21172532.18449
   -729401.21248   -568362.88444         0.00041  24795473.57344  24795466.70748
  -1723550.50349  -1343026.05146         0.00041  21303866.93146  21303863.67349
   1584706.26048         0.00041         0.00041         0.00041  25530375.08448
 97 06 27 15 52 00.0000000  0  8 02 04 05 07 09 16 24 26
   1574346.78448   1226763.06345         0.00041  23295454.52045  23295449.03948
   -462256.50749   -360199.57247         0.00041  20520435.16347  20520433.04149
  -1572393.40048  -1225242.48245         0.00041  22930382.29445  22930380.02948
   1403130.39248   1093347.81046         0.00041  22035980.59746  22035977.42648
   -396532.26049   -308986.47346         0.00041  21170194.57046  21170192.27449
   -759343.22748   -591694.37844         0.00041  24789773.25544  24789769.24248
  -1798497.19549  -1401426.05146         0.00041  21289605.20546  21289601.73149
   1654204.75848         0.00041         0.00041         0.00041  25543599.85648
 97 06 27 15 52 30.0000000  0  8 02 04 05 07 09 16 24 26
   1646938.16048   1283327.67645         0.00041  23309265.94345  23309262.37148
   -476428.97849   -371243.04947         0.00041  20517738.37947  20517736.22849
  -1653491.20048  -1288435.54345         0.00041  22914950.21045  22914947.23948
   1465956.03648   1142302.81646         0.00041  22047936.05946  22047932.83548
   -408319.65349   -318171.46946         0.00041  21167951.53446  21167949.16749
   -788976.10048   -614784.92044         0.00041  24784140.51744  24784130.34048
  -1873112.21349  -1459567.60046         0.00041  21275406.36146  21275402.94249
   1723497.65048         0.00041         0.00041         0.00041  25556785.42148
 97 06 27 15 53 00.0000000  0  8 02 04 05 07 09 16 24 26
   1719760.01548   1340071.89945         0.00041  23323125.46645  23323120.11148
   -490028.06949   -381839.74147         0.00041  20515150.37047  20515148.25249
  -1734531.27348  -1351583.64945         0.00041  22899529.00045  22899525.87948
   1528877.45348   1191332.44546         0.00041  22059909.67946  22059906.18748
   -419540.48149   -326914.98046         0.00041  21165816.34346  21165813.94249
   -818241.15248   -637588.83844         0.00041  24778568.75944  24778560.32048
  -1947346.60249  -1517412.55246         0.00041  21261280.33946  21261276.77549
   1792631.11948         0.00041         0.00041         0.00041  25569941.73248
 97 06 27 15 53 30.0000000  0  8 02 04 05 07 09 16 24 26
   1792834.99148   1397013.34845         0.00041  23337030.77745  23337026.27848
   -503022.50849   -391965.27147         0.00041  20512677.64347  20512675.51649
  -1815498.28448  -1414674.80445         0.00041  22884121.14945  22884117.98748
   1591921.62448   1240457.74046         0.00041  22071906.38146  22071903.20048
   -430186.14649   -335210.31746         0.00041  21163790.24946  21163788.25049
   -847130.23047   -660099.70441         0.00041         0.00041  24773063.62847
  -2021172.14449  -1574938.92946         0.00041  21247231.67746  21247228.35649
   1861608.02348         0.00041         0.00041         0.00041  25583067.80548
 97 06 27 15 54 00.0000000  0  8 02 04 05 07 09 16 24 26
   1866118.07948   1454116.97645         0.00041  23350976.52345  23350971.40048
   -515458.05249   -401655.29947         0.00041  20510311.27747  20510309.24449
  -1896457.72848  -1477760.05745         0.00041  22868715.19945  22868712.03448
   1655030.10048   1289633.14346         0.00041  22083915.61446  22083912.39348
   -440321.62949   -343108.10346         0.00041  21161861.59146  21161859.52449
   -875675.14847   -682342.43941         0.00041         0.00041  24767630.97047
  -2094640.14749  -1632186.70646         0.00041  21233251.01446  21233247.72549
   1930359.29648         0.00041         0.00041         0.00041  25596149.97048
 97 06 27 15 54 30.0000000  0  8 02 04 05 07 09 16 24 26
   1939616.81748   1511388.62945         0.00041  23364962.42545  23364958.44248
   -527326.93749   -410903.77747         0.00041  20508052.44747  20508050.46249
  -1977404.00548  -1540835.04745         0.00041  22853311.58345  22853308.76648
   1718185.32448   1338844.96346         0.00041  22095933.83546  22095930.67048
   -449939.98249   -350602.93446         0.00041  21160031.47946  21160029.06849
   -903843.98948   -704292.20744         0.00041  24762275.12144  24762271.21148
  -2167737.90549  -1689145.98046         0.00041  21219341.39046  21219337.79749
   1998895.17748         0.00041         0.00041         0.00041  25609191.84948
 97 06 27 15 55 00.0000000  0  8 02 04 05 07 09 16 24 26
   2013414.18348   1568892.98345         0.00041  23379005.99745  23379001.50048
   -538564.83249   -419660.57547         0.00041  20505914.06247  20505911.93649
  -2058268.49048  -1603846.31845         0.00041  22837923.41445  22837920.71448
   1781432.05548   1388128.09446         0.00041  22107969.17346  22107965.97448
   -458970.49649   -357639.71346         0.00041  21158312.86346  21158310.48349
   -931556.69548   -725886.50544         0.00041  24757002.49044  24756998.00848
  -2240397.71049  -1745763.98846         0.00041  21205514.64746  21205510.85349
   2067278.75848         0.00041         0.00041         0.00041  25622205.61248
 97 06 27 15 55 30.0000000  0  8 02 04 05 07 09 16 24 26
   2087586.50348   1626689.51945         0.00041  23393119.54145  23393115.60748
   -549099.07149   -427869.06647         0.00041  20503909.39947  20503907.34449
  -2138988.30148  -1666744.85645         0.00041  22822562.61945  22822560.04148
   1844826.31448   1437526.18046         0.00041  22120032.37546  22120029.24948
   -467340.17649   -364161.55646         0.00041  21156720.34946  21156718.11149
   -958736.34048   -747065.45544         0.00041  24751831.75044  24751825.89848
  -2312539.46149  -1801978.31446         0.00041  21191786.24646  21191782.68149
   2135583.50948   1664090.36741         0.00041         0.00041  25635203.37048
 97 06 27 15 56 00.0000000  0  8 02 04 05 07 09 16 24 26
   2162010.02248   1684681.78745         0.00041  23407282.90945  23407278.05448
   -559037.83749   -435613.55147         0.00041  20502018.06447  20502016.13549
  -2219665.94648  -1729610.51445         0.00041  22807210.45645  22807207.31748
   1908253.63748   1486950.03846         0.00041  22132102.63146  22132099.10048
   -475154.34949   -370250.52846         0.00041  21155233.37546  21155231.13849
   -985476.03848   -767901.58544         0.00041  24746746.12644  24746737.19148
  -2384262.60749  -1857866.45646         0.00041  21178137.57846  21178134.27249
   2203718.22348         0.00041         0.00041         0.00041  25648168.84348
 97 06 27 15 56 30.0000000  0  8 02 04 05 07 09 16 24 26
   2236609.20748   1742810.95345         0.00041  23421479.18545  23421474.71248
   -568427.83649   -442930.42747         0.00041  20500231.28247  20500229.40249
  -2300349.76048  -1792480.98545         0.00041  22791857.01645  22791853.80848
   1971654.71148   1536353.44046         0.00041  22144167.27746  22144164.14448
   -482459.80549   -375943.09946         0.00041  21153842.94746  21153841.08949
  -1011828.71048   -788436.05544         0.00041  24741728.47744  24741722.52048
  -2455602.41149  -1913455.88946         0.00041  21164562.11346  21164558.72649
   2271635.56048         0.00041         0.00041         0.00041  25661093.24348
 97 06 27 15 57 00.0000000  0  8 02 04 05 07 09 16 24 26
   2311423.97448   1801108.09445         0.00041  23435715.28145  23435710.69048
   -577218.58149   -449780.35347         0.00041  20498558.34547  20498556.37349
  -2380992.92948  -1855319.79445         0.00041  22776511.04345  22776507.80548
   2035095.25448   1585787.59446         0.00041  22156239.77746  22156236.73948
   -489206.56549   -381200.32546         0.00041  21152559.45746  21152557.15049
  -1037753.30248   -808636.98944         0.00041  24736795.62144  24736789.69648
  -2526496.45549  -1968697.97846         0.00041  21151071.36746  21151067.91149
   2339389.83448         0.00041         0.00041         0.00041  25673987.08048
 97 06 27 15 57 30.0000000  0  8 02 04 05 07 09 16 24 26
   2386453.42548   1859572.51345         0.00041  23449991.38145  23449988.41648
   -585409.64249   -456163.00047         0.00041  20496999.89047  20496997.82449
  -2461571.49548  -1918108.26845         0.00041  22761178.28045  22761174.05248
   2098594.23648   1635267.27946         0.00041  22168323.19546  22168320.40748
   -495389.34549   -386018.09546         0.00041  21151382.76546  21151380.63249
  -1063243.68848   -828499.57344         0.00041  24731941.17644  24731938.02648
  -2596917.81249  -2023571.74846         0.00041  21137670.92346  21137667.53149
   2407002.63548         0.00041         0.00041         0.00041  25686853.45348
 97 06 27 15 58 00.0000000  0  8 02 04 05 07 09 16 24 26
   2461705.30648   1918210.25645         0.00041  23464312.72645  23464308.57548
   -593006.83149   -462082.88447         0.00041  20495554.03447  20495552.00149
  -2542079.64948  -1980841.86946         0.00041  22745857.61746  22745854.58348
   2162162.74748   1684801.15246         0.00041  22180419.87446  22180416.79548
   -501010.67149   -390398.36346         0.00041  21150313.12246  21150310.66649
  -1088304.39348   -848027.31244         0.00041  24727175.07944  24727169.16048
  -2666874.52649  -2078083.44746         0.00041  21124358.42246  21124355.06249
   2474475.66848         0.00041         0.00041         0.00041  25699692.79548
 97 06 27 15 58 30.0000000  0  8 02 04 05 07 09 16 24 26
   2537232.54348   1977062.55845         0.00041  23478686.13845  23478681.05448
   -599981.80749   -467517.92347         0.00041  20494226.92447  20494224.75749
  -2622485.05248  -2043495.40646         0.00041  22730557.12946  22730553.95048
   2225841.40848   1734420.86046         0.00041  22192537.19446  22192533.94348
   -506031.88749   -394311.00946         0.00041  21149357.41646  21149355.29349
  -1112916.07948   -867205.13844         0.00041  24722490.52744  24722486.05848
  -2736347.74549  -2132218.40246         0.00041  21111138.08646  21111134.75749
   2541829.80048         0.00041         0.00041         0.00041  25712509.48648
 97 06 27 15 59 00.0000000  0  8 02 04 05 07 09 16 24 26
   2613028.28148   2036124.09145         0.00041  23493108.28545  23493104.27148
   -606371.12849   -472496.60347         0.00041  20493010.97347  20493008.90749
  -2702810.29848  -2106086.47946         0.00041  22715271.21146  22715268.51748
   2289616.95948   1784116.05746         0.00041  22204673.55046  22204670.40348
   -510485.82149   -397781.61446         0.00041  21148509.87346  21148507.92149
  -1137110.65048   -886058.00444         0.00041  24717885.44844  24717882.29248
  -2805387.03049  -2186015.22246         0.00041  21098000.26246  21097996.94849
   2609030.53547         0.00041         0.00041         0.00041  25725297.67147
 97 06 27 15 59 30.0000000  0  8 02 04 05 07 09 16 24 26
   2689105.46348   2095404.93945         0.00041  23507587.85945  23507581.22248
   -612157.59949   -477005.53347         0.00041  20491909.84947  20491907.79349
  -2783048.28848  -2168609.54746         0.00041  22700002.86346  22699999.97448
   2353500.22148   1833895.19146         0.00041  22216830.10446  22216827.24248
   -514366.59449   -400805.60346         0.00041  21147771.40946  21147769.27149
  -1160879.77248   -904579.31444         0.00041  24713363.64944  24713359.38048
  -2874000.26049  -2239480.05246         0.00041  21084943.74246  21084940.35449
   2676063.77348         0.00041         0.00041         0.00041  25738054.06248
 97 06 27 16 00 00.0000000  0  8 02 04 05 07 09 16 24 26
   2765375.64148   2154836.16045         0.00041  23522099.70945  23522095.21048
   -617409.45749   -481097.87647         0.00041  20490910.46247  20490908.40949
  -2863286.21748  -2231132.59346         0.00041  22684733.68946  22684730.81748
   2417411.67848   1883696.30146         0.00041  22228991.92546  22228989.52648
   -517763.60349   -403452.63046         0.00041  21147125.18046  21147122.87949
  -1184314.11848   -922839.75744         0.00041  24708902.89644  24708899.52548
  -2942281.67449  -2292686.32346         0.00041  21071950.09146  21071946.50349
   2742816.13748         0.00041         0.00041         0.00041  25750756.65448
 97 06 27 16 00 30.0000000  0  8 02 04 05 07 09 16 24 26
   2841855.67048   2214430.91845         0.00041  23536652.94045  23536649.07048
   -622100.10149   -484752.91047         0.00041  20490017.80247  20490015.72249
  -2943489.16648  -2293628.37646         0.00041  22669471.61046  22669468.92148
   2481373.47248   1933536.63946         0.00041  22241163.48346  22241160.96348
   -520647.32649   -405699.69546         0.00041  21146576.28046  21146574.08149
  -1207378.96548   -940812.30544         0.00041  24704518.61544  24704510.42448
  -3010190.09449  -2345601.94946         0.00041  21059027.47846  21059024.19349
   2809295.25448         0.00041         0.00041         0.00041  25763406.56948
 97 06 27 16 01 00.0000000  0  8 02 04 05 07 09 16 24 26
   2918570.17448   2274208.39345         0.00041  23551253.16645  23551247.06048
   -626194.80649   -487943.57347         0.00041  20489238.66347  20489236.59449
  -3023617.36348  -2356065.91346         0.00041  22654223.38546  22654220.94448
   2545411.45248   1983436.32646         0.00041  22253349.66346  22253346.46348
   -522985.34049   -407521.53246         0.00041  21146131.37546  21146129.13849
  -1230021.90348   -958456.02244         0.00041  24700205.57144  24700200.66148
  -3077673.68849  -2398186.54046         0.00041  21046185.88246  21046182.55449
   2875536.23847         0.00041         0.00041         0.00041  25776011.90347
 97 06 27 16 01 30.0000000  0  8 02 04 05 07 09 16 24 26
   2995550.04848   2334192.61445         0.00041  23565901.02245  23565895.68348
   -629657.36449   -490641.65347         0.00041  20488579.69747  20488577.68249
  -3103625.69648  -2418410.04146         0.00041  22638999.03546  22638995.94348
   2609542.87848   2033408.82746         0.00041  22265553.82946  22265550.27448
   -524738.62449   -408887.73246         0.00041  21145797.79246  21145795.50449
  -1252211.91748   -975746.87144         0.00041  24695985.40044  24695977.98648
  -3144680.13749  -2450399.33646         0.00041  21033434.82746  21033431.65449
   2941579.01247         0.00041         0.00041         0.00041  25788579.79647
 97 06 27 16 02 00.0000000  0  8 02 04 05 07 09 16 24 26
   3072797.77748   2394385.58645         0.00041  23580599.56045  23580595.45548
   -632511.73549   -492865.82747         0.00041  20488036.49247  20488034.48249
  -3183528.87148  -2480672.23346         0.00041  22623793.91046  22623790.75148
   2673740.44648   2083432.88446         0.00041  22277770.22646  22277767.13648
   -525915.57249   -409804.84146         0.00041  21145573.87046  21145571.60449
  -1273952.85248   -992687.70344         0.00041  24691846.67844  24691841.16948
  -3211201.62649  -2502234.24046         0.00041  21020776.26046  21020772.89449
   3007431.51748         0.00041         0.00041         0.00041  25801111.95248
 97 06 27 16 02 30.0000000  0  7 02 04 05 07 09 16 24
   3150335.82248   2454804.74944         0.00041  23595356.77444  23595350.52948
   -634748.91449   -494609.06947         0.00041  20487611.01847  20487608.81349
  -3263327.05748  -2542852.61746         0.00041  22608608.69546  22608605.53248
   2738008.67548   2133511.99946         0.00041  22289999.78446  22289996.95448
   -526490.54249   -410252.87546         0.00041  21145464.66346  21145462.28949
  -1295213.41848  -1009254.32344         0.00041  24687803.16544  24687793.73348
  -3277219.18549  -2553676.46546         0.00041  21008213.27446  21008210.02749
 97 06 27 16 03 00.0000000  0  7 02 04 05 07 09 16 24
   3228113.65648   2515410.78544         0.00041  23610158.16544  23610151.56148
   -636411.52949   -495904.59747         0.00041  20487294.36547  20487292.37449
  -3343072.41248  -2604991.83846         0.00041  22593433.25346  22593430.16648
   2802295.24048   2183605.39646         0.00041  22302232.43846  22302229.75348
   -526515.20249   -410272.09446         0.00041  21145459.66046  21145457.52949
  -1316043.41948  -1025485.36444         0.00041  24683838.00844  24683832.32648
  -3342787.98849  -2604769.01446         0.00041  20995735.93046  20995732.52949
 97 06 27 16 03 30.0000000  0  7 02 04 05 07 09 16 24
   3306151.09348   2576219.07944         0.00041  23625006.83644  23625001.97248
   -637466.67949   -496726.77847         0.00041  20487093.37847  20487091.57249
  -3422746.11948  -2667075.23246         0.00041  22578271.98146  22578268.76948
   2866632.97548   2233738.66746         0.00041  22314476.77246  22314473.59348
   -525966.04149   -409844.18146         0.00041  21145564.37346  21145562.13449
  -1336424.49648  -1041366.64044         0.00041  24679956.54844  24679953.53048
  -3407881.66649  -2655491.33346         0.00041  20983349.20546  20983345.56749
 97 06 27 16 04 00.0000000  0  7 02 04 05 07 09 16 24
   3384452.52948   2637233.10844         0.00041  23639905.39244  23639901.54848
   -637882.86349   -497051.06247         0.00041  20487014.40947  20487012.46649
  -3502333.71948  -2729091.51946         0.00041  22563126.54346  22563123.37948
   2931050.05848   2283933.77046         0.00041  22326734.80746  22326731.86748
   -524814.22349   -408946.66646         0.00041  21145783.34746  21145781.23049
  -1356329.65048  -1056877.07344         0.00041  24676170.46444  24676166.09848
  -3472483.88949  -2705830.70446         0.00041  20971055.54746  20971052.06049
 97 06 27 16 04 30.0000000  0  7 02 04 05 07 09 16 24
   3462968.31248   2698414.14644         0.00041  23654848.63044  23654842.94648
   -637690.90249   -496901.46547         0.00041  20487050.80447  20487048.65949
  -3581847.14748  -2791050.00146         0.00041  22547995.85246  22547992.33948
   2995526.49248   2334175.12746         0.00041  22339003.98246  22339000.85948
   -523090.41649   -407603.44546         0.00041  21146111.46846  21146109.19449
  -1375792.24848  -1072042.66144         0.00041  24672468.37444  24672462.08248
  -3536639.66649  -2755822.19646         0.00041  20958847.10246  20958843.84149
 97 06 27 16 05 00.0000000  0  7 02 04 05 07 09 16 24
   3541708.24048   2759769.86544         0.00041  23669833.76144  23669827.41148
   -636897.35249   -496283.10047         0.00041  20487201.88747  20487199.75549
  -3661260.74748  -2852930.70746         0.00041  22532884.54946  22532880.79648
   3060073.39048   2384471.38146         0.00041  22351286.82046  22351283.63748
   -520788.06249   -405809.41246         0.00041  21146549.48046  21146547.20449
  -1394804.93848  -1086857.71944         0.00041  24668848.15644  24668843.94248
  -3600337.62149  -2805456.93946         0.00041  20946725.65146  20946722.38849
 97 06 27 16 05 30.0000000  0  7 02 04 05 07 09 16 24
   3620736.72648   2821350.41644         0.00041  23684871.95344  23684866.27748
   -635459.57049   -495162.73547         0.00041  20487475.41347  20487473.48049
  -3740521.94248  -2914692.65146         0.00041  22517800.94446  22517797.86448
   3124740.56548   2434861.35946         0.00041  22363593.16846  22363589.25648
   -517856.39249   -403524.99846         0.00041  21147107.30446  21147105.18249
  -1413310.29048  -1101277.42144         0.00041  24665325.50344  24665322.25348
  -3663524.56749  -2854693.49846         0.00041  20934701.58346  20934698.36349
 97 06 27 16 06 00.0000000  0  7 02 04 05 07 09 16 24
   3700117.38548   2883205.39144         0.00041  23699976.65344  23699971.36048
   -633339.04149   -493510.36247         0.00041  20487878.82147  20487876.91649
  -3819577.94148  -2976294.70246         0.00041  22502757.32146  22502753.96648
   3189565.89048   2485374.56546         0.00041  22375928.59546  22375925.42848
   -514242.17649   -400708.73146         0.00041  21147794.97146  21147792.78949
  -1431250.27248  -1115256.57944         0.00041  24661911.96544  24661907.62848
  -3726159.21449  -2903499.69446         0.00041  20922782.62646  20922779.42349
 97 06 27 16 06 30.0000000  0  7 02 04 05 07 09 16 24
   3779745.55848   2945253.25344         0.00041  23715131.71344  23715124.19348
   -630671.81949   -491431.99847         0.00041  20488386.36047  20488384.52349
  -3898554.53348  -3037834.87746         0.00041  22487728.78646  22487725.62348
   3254430.88948   2535918.69946         0.00041  22388272.47246  22388268.41148
   -510082.77749   -397467.64946         0.00041  21148586.64346  21148584.47349
  -1448740.67248  -1128885.41244         0.00041  24658583.74844  24658579.11448
  -3788364.58649  -2951971.38846         0.00041  20910945.23546  20910942.02849
 97 06 27 16 07 00.0000000  0  7 02 04 05 07 09 16 24
   3859610.96148   3007485.94844         0.00041  23730328.97044  23730322.59748
   -627459.93049   -488929.21247         0.00041  20488997.71147  20488995.52649
  -3977475.97948  -3099332.08846         0.00041  22472710.32646  22472707.10648
   3319317.06048   2586479.33546         0.00041  22400619.99146  22400615.62648
   -505399.44449   -393818.30746         0.00041  21149477.82646  21149475.70249
  -1465802.72848  -1142180.20841         0.00041         0.00041  24655332.91048
  -3850147.25949  -3000113.70546         0.00041  20899188.54346  20899185.32649
 97 06 27 16 07 30.0000000  0  7 02 04 05 07 09 16 24
   3939730.33148   3069916.55844         0.00041  23745574.52244  23745568.97948
   -623654.90749   -485964.24347         0.00041  20489721.68447  20489719.74049
  -4056321.12348  -3160769.83646         0.00041  22457706.47346  22457703.39148
   3384251.46248   2637077.54246         0.00041  22412975.83346  22412972.22348
   -500174.73849   -389747.11046         0.00041  21150472.07546  21150469.76649
  -1482418.97448  -1155128.18744         0.00041  24652176.49044  24652170.45048
  -3911484.39649  -3047908.85046         0.00041  20887516.28046  20887513.03549
 97 06 27 16 08 00.0000000  0  7 02 04 05 07 09 16 24
   4020069.06448   3132518.09744         0.00041  23760859.91544  23760856.14648
   -619275.28149   -482551.53247         0.00041  20490555.02747  20490552.99349
  -4135104.83048  -3222159.72046         0.00041  22442714.03146  22442711.38548
   3449219.17148   2687701.71046         0.00041  22425338.77746  22425335.25948
   -494430.71649   -385271.25446         0.00041  21151565.31746  21151562.97449
  -1498621.88348  -1167753.77044         0.00041  24649093.14444  24649088.12648
  -3972384.11649  -3095363.14746         0.00041  20875927.43346  20875924.13849
 97 06 27 16 08 30.0000000  0  7 02 04 05 07 09 16 24
   4100634.74448   3195296.46344         0.00041  23776194.15644  23776187.95748
   -614295.46349   -478671.14247         0.00041  20491502.74547  20491500.76349
  -4213792.83748  -3283475.02846         0.00041  22427740.47446  22427737.57448
   3514248.21548   2738373.66346         0.00041  22437713.60746  22437709.74648
   -488158.97349   -380384.18546         0.00041  21152758.79946  21152756.32849
  -1514390.21348  -1180040.73444         0.00041  24646090.62444  24646087.37948
  -4032811.57849  -3142449.45546         0.00041  20864428.63546  20864425.43049
 97 06 27 16 09 00.0000000  0  7 02 04 05 07 09 16 24
   4181407.66348   3258236.32544         0.00041  23791562.52244  23791558.69948
   -608735.00849   -474338.30847         0.00041  20492560.67247  20492558.73349
  -4292392.76048  -3344721.69546         0.00041  22412782.90746  22412780.80248
   3579320.17348   2789079.05346         0.00041  22450096.64446  22450093.13148
   -481364.99349   -375090.17546         0.00041  21154051.34046  21154049.28749
  -1529729.14548  -1191993.12544         0.00041  24643171.98144  24643168.09948
  -4092765.23249  -3189166.55846         0.00041  20853019.53246  20853016.37549
 97 06 27 16 09 30.0000000  0  7 02 04 05 07 09 16 24
   4262405.30648   3321351.28644         0.00041  23806977.68944  23806971.61248
   -602595.11349   -469553.96347         0.00041  20493728.96147  20493727.13249
  -4370889.06348  -3405887.60946         0.00041  22397846.42546  22397843.51848
   3644443.50948   2839824.48546         0.00041  22462488.29946  22462485.77948
   -474032.84949   -369376.82346         0.00041  21155446.79746  21155444.41849
  -1544606.32548  -1203585.66544         0.00041  24640343.64444  24640337.06948
  -4152225.22249  -3235498.99146         0.00041  20841704.86646  20841701.73249
 97 06 27 16 10 00.0000000  0  7 02 04 05 07 09 16 24
   4343630.52148   3384643.58644         0.00041  23822433.99144  23822428.14848
   -595881.95449   -464322.91547         0.00041  20495006.70947  20495004.71249
  -4449286.50948  -3466976.49346         0.00041  22382927.87246  22382924.85448
   3709606.44148   2890600.77846         0.00041  22474888.43546  22474886.25048
   -466161.35749   -363243.19446         0.00041  21156944.66046  21156942.43449
  -1559017.31648  -1214814.95244         0.00041  24637599.69044  24637594.94948
  -4211195.54049  -3281449.86146         0.00041  20830483.14046  20830479.96949
 97 06 27 16 10 30.0000000  0  7 02 04 05 07 09 16 24
   4425117.13548   3448139.56544         0.00041  23837940.31544  23837934.49848
   -588560.91849   -458618.19647         0.00041  20496399.69047  20496397.83449
  -4527553.58048  -3527963.79946         0.00041  22368033.20446  22368030.76948
   3774841.00548   2941432.88146         0.00041  22487302.57446  22487300.20948
   -457706.04649   -356654.64746         0.00041  21158553.65846  21158551.36649
  -1572919.54248  -1225647.80544         0.00041  24634954.74544  24634948.74348
  -4269654.25149  -3327002.07346         0.00041  20819358.81346  20819355.65649
 97 06 27 16 11 00.0000000  0  7 02 04 05 07 09 16 24
   4506872.71848   3511845.15544         0.00041  23853498.36444  23853492.51448
   -580620.84249   -452431.11247         0.00041  20497910.51947  20497908.72449
  -4605690.11748  -3588849.38646         0.00041  22353163.84146  22353161.74048
   3840148.27448   2992321.63946         0.00041  22499730.68846  22499727.56848
   -448641.07549   -349591.03946         0.00041  21160278.81046  21160276.51349
  -1586316.91748  -1236087.26144         0.00041  24632402.57844  24632399.87748
  -4327603.98449  -3372157.67946         0.00041  20808331.21546  20808328.04549
 97 06 27 16 11 30.0000000  0  7 02 04 05 07 09 16 24
   4588831.06548   3575708.71144         0.00041  23869094.02544  23869087.97348
   -572106.07649   -445796.21547         0.00041  20499530.77647  20499529.09749
  -4683753.18548  -3649677.72546         0.00041  22338309.71146  22338306.80448
   3905462.31448   3043215.67446         0.00041  22512159.35646  22512156.21648
   -439028.87149   -342101.01846         0.00041  21162107.67646  21162105.55649
  -1599292.71448  -1246198.26144         0.00041  24629933.13644  24629930.82048
  -4385123.11349  -3416977.74846         0.00041  20797385.77346  20797382.54949
 97 06 27 16 12 00.0000000  0  7 02 04 05 07 09 16 24
   4670993.37248   3639731.17744         0.00041  23884729.06944  23884723.09548
   -563002.10249   -438702.19847         0.00041  20501263.29347  20501261.47349
  -4761730.10348  -3710438.93746         0.00041  22323471.67846  22323468.50948
   3970803.25648   3094130.67046         0.00041  22524593.06046  22524589.85648
   -428866.35649   -334182.18146         0.00041  21164041.49546  21164039.43749
  -1611848.66248  -1255982.10144         0.00041  24627546.10744  24627541.20948
  -4442201.80249  -3461454.62146         0.00041  20786523.97546  20786520.78149
 97 06 27 16 12 30.0000000  0  7 02 04 05 07 09 16 24
   4753386.78648   3703933.77644         0.00041  23900410.08044  23900402.76648
   -553299.03749   -431141.35747         0.00041  20503109.58447  20503107.79349
  -4839581.35248  -3771102.22046         0.00041  22308656.51046  22308653.90148
   4036207.70048   3145095.15346         0.00041  22537039.20146  22537035.71148
   -418117.47749   -325806.43646         0.00041  21166087.17346  21166085.06249
  -1623946.64848  -1265409.05244         0.00041  24625244.71944  24625239.14948
  -4498800.46049  -3505557.44447         0.00041  20775753.53447  20775750.44249
 97 06 27 16 13 00.0000000  0  7 02 04 05 07 09 16 24
   4836016.20748   3768320.24844         0.00041  23916133.56744  23916127.09748
   -543005.04249   -423120.05147         0.00041  20505068.49147  20505066.83949
  -4917308.89748  -3831669.11246         0.00041  22293865.16646  22293862.76048
   4101667.54548   3196102.80946         0.00041  22549496.38446  22549492.37448
   -406798.59149   -316986.52446         0.00041  21168241.28346  21168238.92249
  -1635588.91548  -1274480.89644         0.00041  24623027.66944  24623023.26148
  -4554915.82449  -3549283.67147         0.00041  20765075.15847  20765071.97549
 97 06 27 16 13 30.0000000  0  7 02 04 05 07 09 16 24
   4918869.80148   3832881.41544         0.00041  23931900.20744  23931892.69848
   -532145.76649   -414658.27247         0.00041  20507135.14747  20507133.27849
  -4994927.92248  -3892151.43946         0.00041  22279095.02646  22279092.32948
   4167172.86848   3247145.89246         0.00041  22561961.39346  22561957.91648
   -394939.34049   -307745.54946         0.00041  21170497.44446  21170495.37349
  -1646766.36548  -1283190.54144         0.00041  24620903.87544  24620896.09748
  -4610552.30149  -3592636.74447         0.00041  20754487.83847  20754484.63349
 97 06 27 16 14 00.0000000  0  7 02 04 05 07 09 16 24
   5001962.49448   3897628.86244         0.00041  23947710.65044  23947704.85648
   -520713.03449   -405749.64247         0.00041  20509310.67647  20509308.78149
  -5072419.90948  -3952534.77746         0.00041  22264348.61446  22264346.31748
   4232743.50148   3298239.86146         0.00041  22574438.75746  22574435.46448
   -382513.30849   -298062.92946         0.00041  21172862.38946  21172860.16349
  -1657444.46148  -1291511.10544         0.00041  24618870.89644  24618863.94448
  -4665670.63149  -3635586.06147         0.00041  20743999.07247  20743995.90649
 97 06 27 16 14 30.0000000  0  7 02 04 05 07 09 16 24
   5085296.73348   3962564.55544         0.00041  23963568.72644  23963563.71348
   -508708.61649   -396395.54047         0.00041  20511594.89147  20511593.09249
  -5149784.33548  -4012818.72446         0.00041  22249626.18746  22249624.25548
   4298374.02148   3349380.48646         0.00041  22586928.33246  22586924.74648
   -369503.74449   -287925.60246         0.00041  21175338.05846  21175335.89149
  -1667621.19048  -1299440.97244         0.00041  24616932.37144  24616927.27748
  -4720273.26949  -3678133.54147         0.00041  20733608.65547  20733605.48749
 97 06 27 16 15 00.0000000  0  7 02 04 05 07 09 16 24
   5168859.10448   4027677.97744         0.00041  23979469.80444  23979464.68848
   -496121.98749   -386587.76547         0.00041  20513990.26147  20513988.29449
  -5227037.69048  -4073016.10546         0.00041  22234925.82646  22234923.01748
   4364047.26648   3400554.42546         0.00041  22599425.10746  22599421.96048
   -355930.79849   -277349.27746         0.00041  21177920.68746  21177918.84749
  -1677317.46948  -1306996.42344         0.00041  24615085.61144  24615082.55148
  -4774376.59649  -3720291.94947         0.00041  20723313.14547  20723309.93549
 97 06 27 16 15 30.0000000  0  7 02 04 05 07 09 16 24
   5252665.76548   4092981.80244         0.00041  23995418.96344  23995412.69948
   -482915.54549   -376297.01547         0.00041  20516503.44247  20516501.28649
  -5304148.90648  -4133102.73646         0.00041  22220251.69346  22220249.45648
   4429789.53848   3451782.14946         0.00041  22611935.44746  22611932.66148
   -341755.77149   -266303.79846         0.00041  21180618.32146  21180616.17149
  -1686508.33648  -1314158.12344         0.00041  24613336.79744  24613333.47748
  -4827952.09149  -3762039.05747         0.00041  20713117.99947  20713114.79249
 97 06 27 16 16 00.0000000  0  7 02 04 05 07 09 16 24
   5336695.01048   4158459.03444         0.00041  24011409.01444  24011403.74648
   -469100.68549   -365532.17247         0.00041  20519132.20247  20519130.13849
  -5381140.80348  -4193096.39946         0.00041  22205600.55546  22205598.53248
   4495576.80748   3503044.93146         0.00041  22624454.62246  22624451.31748
   -326998.78149   -254804.84746         0.00041  21183426.40646  21183424.25149
  -1695230.73248  -1320954.73744         0.00041  24611678.63044  24611673.85448
  -4881031.01649  -3803399.22847         0.00041  20703017.33247  20703014.09049
 97 06 27 16 16 30.0000000  0  7 02 04 05 07 09 16 24
   5420939.96548   4224104.37644         0.00041  24027437.19044  24027434.82648
   -454705.11149   -354314.82447         0.00041  20521871.51647  20521869.56549
  -5458036.37948  -4253015.00746         0.00041  22190968.08846  22190965.99848
   4561383.87948   3554323.14046         0.00041  22636977.42846  22636974.17648
   -311699.94749   -242883.68246         0.00041  21186337.58346  21186335.57949
  -1703512.40448  -1327407.97344         0.00041  24610101.66144  24610098.13048
  -4933652.89249  -3844403.25646         0.00041  20693003.76846  20693000.60849
 97 06 27 16 17 00.0000000  0  7 02 04 05 07 09 16 24
   5505417.08448   4289930.60944         0.00041  24043515.46044  24043510.34348
   -439721.65449   -342639.38447         0.00041  20524722.84647  20524720.69049
  -5534815.66148  -4312842.99446         0.00041  22176357.55846  22176354.99848
   4627220.89448   3605624.68246         0.00041  22649505.53846  22649502.21448
   -295858.80249   -230539.93746         0.00041  21189352.33846  21189350.14749
  -1711329.67548  -1333499.30844         0.00041  24608616.03244  24608610.40548
  -4985798.31849  -3885036.02647         0.00041  20683080.83147  20683077.72749
 97 06 27 16 17 30.0000000  0  7 02 04 05 07 09 16 24
   5590086.25548   4355906.54844         0.00041  24059627.73144  24059622.53148
   -424211.24049   -330553.33047         0.00041  20527674.27747  20527672.31649
  -5611515.78748  -4372609.30346         0.00041  22161761.82146  22161759.28048
   4693050.19548   3656920.21445         0.00041  22662033.14145  22662029.20148
   -279522.94349   -217810.70246         0.00041  21192460.72446  21192458.65049
  -1718725.03548  -1339261.92344         0.00041  24607208.36644  24607202.81648
  -5037505.13149  -3925327.02047         0.00041  20673241.22047  20673238.03449
 97 06 27 16 18 00.0000000  0  7 02 04 05 07 09 16 24
   5675029.15848   4422095.71444         0.00041  24075789.62844  24075785.96048
   -408114.73549   -318010.57947         0.00041  20530737.34547  20530735.28549
  -5688060.79548  -4432254.74446         0.00041  22147195.65046  22147193.12848
   4758955.43448   3708274.92045         0.00041  22674573.78745  22674570.39448
   -262625.31749   -204643.72146         0.00041  21195676.43646  21195674.19949
  -1725622.38648  -1344636.48144         0.00041  24605894.29944  24605890.11748
  -5088686.46849  -3965208.55247         0.00041  20663501.71647  20663498.48249
 97 06 27 16 18 30.0000000  0  7 02 04 05 07 09 16 24
   5760228.21048   4488484.49144         0.00041  24092003.95744  24091999.06748
   -391455.43149   -305029.28047         0.00041  20533907.50547  20533905.52749
  -5764454.66848  -4491782.40846         0.00041  22132658.87746  22132655.83348
   4824925.00048   3759679.75745         0.00041  22687127.76945  22687124.41848
   -245171.55149   -191043.38846         0.00041  21198997.74746  21198995.57849
  -1732027.26948  -1349627.27144         0.00041  24604679.77244  24604671.08548
  -5139338.19949  -4004677.40047         0.00041  20653863.02347  20653859.71949
 97 06 27 16 19 00.0000000  0  7 02 04 05 07 09 16 24
   5845683.26948   4555072.80644         0.00041  24108267.24844  24108260.96648
   -374202.14649   -291585.13847         0.00041  20537190.55847  20537188.62849
  -5840669.67648  -4551170.69746         0.00041  22118155.00746  22118152.70848
   4890993.55248   3811161.71245         0.00041  22699699.62845  22699696.34248
   -227128.49549   -176983.86746         0.00041  21202430.88846  21202428.88649
  -1737908.33748  -1354209.90344         0.00041  24603555.90244  24603552.18348
  -5189432.30049  -4043711.73547         0.00041  20644330.51247  20644327.25649
 97 06 27 16 19 30.0000000  0  7 02 04 05 07 09 16 24
   5931398.80648   4621864.05344         0.00041  24124579.42944  24124572.50648
   -356334.37649   -277662.17747         0.00041  20540590.51447  20540588.71649
  -5916702.56348  -4610417.07946         0.00041  22103686.72746  22103684.13948
   4957173.46548   3862730.45845         0.00041  22712293.81145  22712290.31748
   -208476.98849   -162450.23246         0.00041  21205980.45546  21205978.24449
  -1743250.72448  -1358372.78444         0.00041  24602540.48944  24602536.09148
  -5238958.92949  -4082303.88547         0.00041  20634905.87647  20634902.67649
 97 06 27 16 20 00.0000000  0  7 02 04 05 07 09 16 24
   6017328.38948   4688822.07744         0.00041  24140928.32144  24140924.11848
   -337893.96849   -263293.00447         0.00041  20544099.80447  20544097.86349
  -5992591.36448  -4669551.18346         0.00041  22089245.87846  22089243.21448
   5023416.93948   3914348.72645         0.00041  22724898.97245  22724895.86748
   -189251.27849   -147469.16446         0.00041  21209639.05746  21209636.87549
  -1748075.11848  -1362132.05244         0.00041  24601623.39844  24601618.14848
  -5287961.55749  -4120487.72247         0.00041  20625580.81347  20625577.62149
 97 06 27 16 20 30.0000000  0  7 02 04 05 07 09 16 24
   6103419.77848   4755906.22144         0.00041  24157311.60744  24157306.55348
   -318908.20449   -248498.87747         0.00041  20547712.58447  20547710.61249
  -6068371.70848  -4728600.77446         0.00041  22074825.63846  22074822.63348
   5089676.59348   3965979.59645         0.00041  22737508.40745  22737504.47548
   -169500.19449   -132078.71546         0.00041  21213397.55146  21213395.38149
  -1752410.07148  -1365509.89644         0.00041  24600795.19944  24600792.93148
  -5336508.30849  -4158316.32847         0.00041  20616342.67347  20616339.46649
 97 06 27 16 21 00.0000000  0  7 02 04 05 07 09 16 24
   6189725.33848   4823157.25144         0.00041  24173735.42044  24173730.71448
   -299328.25649   -233241.75347         0.00041  20551438.51947  20551436.59149
  -6144004.86248  -4787535.66046         0.00041  22060433.07846  22060430.22448
   5155984.96848   4017648.42845         0.00041  22750126.14345  22750122.83848
   -149184.51649   -116248.32246         0.00041  21217263.52246  21217261.26049
  -1756208.55348  -1368469.76044         0.00041  24600071.05544  24600070.02548
  -5384564.00449  -4195762.29447         0.00041  20607198.01247  20607194.85249
 97 06 27 16 21 30.0000000  0  7 02 04 05 07 09 16 24
   6276256.90448   4890584.37244         0.00041  24190201.05144  24190196.81048
   -279173.64549   -217536.83747         0.00041  20555273.86947  20555271.80349
  -6219497.12448  -4846360.77546         0.00041  22046066.71646  22046064.72648
   5222325.89248   4069342.61745         0.00041  22762750.51045  22762747.44848
   -128323.51949    -99993.00746         0.00041  21221233.17246  21221231.04449
  -1759486.75748  -1371024.22041         0.00041         0.00041  24599446.09248
  -5432127.89149  -4232825.03147         0.00041  20598146.90947  20598143.80949
 97 06 27 16 22 00.0000000  0  8 02 04 05 07 09 16 24 30
   6362978.39848   4958159.48244         0.00041  24206706.56044  24206698.82748
   -258492.64949   -201421.76047         0.00041  20559209.18447  20559207.16149
  -6294880.08748  -4905100.72646         0.00041  22031721.86846  22031719.53648
   5288664.03448   4121034.63645         0.00041  22775375.31645  22775371.02948
   -106981.36949    -83362.76746         0.00041  21225294.80546  21225292.15549
  -1762303.25548  -1373218.89244         0.00041  24598912.91044  24598909.86148
  -5479237.24849  -4269533.58947         0.00041  20589182.23247  20589179.14649
        -0.65258         0.47754         0.00051  25022379.44354  25022378.80858
 97 06 27 16 22 30.0000000  0  8 02 04 05 07 09 16 24 30
   6449931.44748   5025915.03944         0.00041  24223253.20944  24223246.10748
   -237235.18849   -184857.48847         0.00041  20563254.45947  20563252.41649
  -6370126.03748  -4963733.91446         0.00041  22017402.27346  22017400.38048
   5355028.84448   4172747.45445         0.00041  22788002.96145  22787999.25948
    -85127.93849    -66334.12946         0.00041  21229453.17446  21229450.88049
  -1764645.44548  -1375044.01144         0.00041  24598470.47444  24598464.65648
  -5525845.88249  -4305851.97447         0.00041  20580312.89447  20580309.79849
    -97348.63648    -75855.05344         0.00041  25003856.81944  25003854.44048
 97 06 27 16 23 00.0000000  0  8 02 04 05 07 09 16 24 30
   6537115.71948   5093850.76644         0.00041  24239839.25944  24239836.27848
   -215433.80749   -167869.38447         0.00041  20567402.98747  20567400.97249
  -6445244.48048  -5022267.73946         0.00041  22003108.17146  22003105.88348
   5421404.40148   4224468.62845         0.00041  22800633.77045  22800630.19448
    -62767.58149    -48910.48746         0.00041  21233708.25946  21233705.89149
  -1766536.36748  -1376517.44944         0.00041  24598109.20944  24598104.24848
  -5571942.24449  -4341771.18947         0.00041  20571541.04447  20571538.03249
   -194782.21848   -151777.32744         0.00041  24985313.38644  24985312.99048
 97 06 27 16 23 30.0000000  0  8 02 04 05 07 09 16 24 30
   6624562.87648   5161991.36444         0.00041  24256481.64344  24256476.59648
   -193051.48949   -150428.60247         0.00041  20571662.28447  20571660.35049
  -6520188.47948  -5080665.64346         0.00041  21988846.88746  21988844.48648
   5487841.71248   4276237.92945         0.00041  22813276.96445  22813272.83748
    -39865.84449    -31064.99246         0.00041  21238065.94046  21238063.75849
  -1767938.50748  -1377610.02144         0.00041  24597841.52244  24597837.70548
  -5617478.06149  -4377253.61447         0.00041  20562875.76447  20562872.67049
   -292265.91948   -227738.68844         0.00041  24966761.74144  24966762.22248
 97 06 27 16 24 00.0000000  0  8 02 04 05 07 09 16 24 30
   6712245.66248   5230315.50944         0.00041  24273168.77544  24273162.72548
   -170087.11449   -132534.27047         0.00041  20576032.54747  20576030.35349
  -6594974.45648  -5138940.40546         0.00041  21974615.41146  21974613.28948
   5554324.13648   4328042.37945         0.00041  22825927.88145  22825924.24848
    -16412.17549    -12789.41746         0.00041  21242529.17346  21242526.88949
  -1768854.65748  -1378323.88344         0.00041  24597666.10644  24597662.94248
  -5662472.16349  -4412313.92247         0.00041  20554313.74447  20554310.58749
   -389791.42748   -303732.55344         0.00041  24948204.55644  24948202.99248
 97 06 27 16 24 30.0000000  0  8 02 04 05 07 09 16 24 30
   6800145.17248   5298808.58644         0.00041  24289894.13744  24289890.10248
   -146564.01649   -114204.57347         0.00041  20580508.51947  20580506.60449
  -6669621.13948  -5197106.62946         0.00041  21960411.07646  21960408.53448
   5620822.03648   4379858.88045         0.00041  22838582.36445  22838578.73948
      7599.14149      5920.68446         0.00041  21247098.80246  21247096.09149
  -1769294.46148  -1378666.59244         0.00041  24597584.60944  24597579.86048
  -5706953.84649  -4446974.94547         0.00041  20545848.83947  20545845.72249
   -487350.33948   -379752.42541         0.00041         0.00041  24929638.62648
 97 06 27 16 25 00.0000000  0  8 02 04 05 07 09 16 24 30
   6888250.24448   5367461.80244         0.00041  24306659.75144  24306655.53948
   -122508.61949    -95460.09847         0.00041  20585086.01447  20585084.09049
  -6744136.11448  -5255170.22146         0.00041  21946231.25246  21946228.82148
   5687332.62048   4431685.28145         0.00041  22851238.25145  22851235.08648
     32163.84449     25061.99846         0.00041  21251773.08646  21251770.71049
  -1769255.49848  -1378636.22644         0.00041  24597593.52244  24597587.20848
  -5750938.52349  -4481248.68947         0.00041  20537478.90047  20537475.74049
   -584952.87047   -455806.28041         0.00041         0.00041  24911064.99547
 97 06 27 16 25 30.0000000  0  8 02 04 05 07 09 16 24 30
   6976549.02748   5436266.01444         0.00041  24323461.60144  24323457.82348
    -97896.12549    -76281.52347         0.00041  20589769.76947  20589767.89149
  -6818518.77748  -5313130.71046         0.00041  21932076.41046  21932074.11048
   5753862.45748   4483526.67745         0.00041  22863898.92045  22863895.47648
     57283.37549     44635.64746         0.00041  21256553.01346  21256550.98549
  -1768734.78148  -1378230.49744         0.00041  24597694.04244  24597686.16348
  -5794431.28549  -4515139.12447         0.00041  20529202.44847  20529199.25749
   -682593.95948   -531890.19744         0.00041  24892487.88244  24892484.96648
 97 06 27 16 26 00.0000000  0  8 02 04 05 07 09 16 24 30
   7065061.94348   5505237.04244         0.00041  24340306.72044  24340301.61848
    -72709.21249    -56655.35047         0.00041  20594562.63147  20594560.78549
  -6892744.71748  -5370969.08646         0.00041  21917951.74046  21917949.36048
   5820428.00048   4535395.90445         0.00041  22876566.08545  22876562.78548
     82974.95649     64655.04946         0.00041  21261442.04946  21261439.91449
  -1767707.66848         0.00041         0.00041         0.00041  24597880.84448
  -5837418.04249  -4548635.27247         0.00041  20521022.48647  20521019.28449
   -780247.70548   -607983.96744         0.00041  24873900.50844  24873901.28648
 97 06 27 16 26 30.0000000  0  8 02 04 05 07 09 16 24 30
   7153788.72648   5574374.71044         0.00041  24357191.74744  24357186.48148
    -46956.27749    -36588.11947         0.00041  20599463.24847  20599461.46249
  -6966810.99448  -5428683.05246         0.00041  21903857.38846  21903855.06548
   5887022.12848   4587287.40245         0.00041  22889239.35145  22889235.18648
    109215.73349     85102.40346         0.00041  21266435.43646  21266433.13549
  -1766178.93548  -1376238.91841         0.00041         0.00041  24598171.68848
  -5879896.50149  -4581735.34347         0.00041  20512938.98947  20512935.76649
   -877936.19048   -684104.81641         0.00041         0.00041  24855311.98748
 97 06 27 16 27 00.0000000  0  8 02 04 05 07 09 16 24 30
   7242712.98148   5643666.23244         0.00041  24374113.66844  24374107.67648
    -20641.47149    -16083.06947         0.00041  20604470.92547  20604468.90349
  -7040721.91748  -5486275.95846         0.00041  21889792.67746  21889790.28948
   5953644.39648   4639200.82145         0.00041  22901916.17245  22901913.25948
    135987.61649    105963.60746         0.00041  21271529.87246  21271527.84549
  -1764144.99848         0.00041         0.00041         0.00041  24598559.28148
  -5921859.28549  -4614433.59147         0.00041  20504953.65047  20504950.46349
   -975685.23748   -760272.84944         0.00041  24836713.47844  24836711.12048
 97 06 27 16 27 30.0000000  0  8 02 04 05 07 09 16 24 30
   7331899.12048   5713161.87044         0.00041  24391083.76144  24391078.94948
      6297.98449      4908.72147         0.00041  20609597.22047  20609595.43849
  -7114397.88648  -5543685.78746         0.00041  21875772.42046  21875770.27048
   6020362.88948   4691189.23045         0.00041  22914612.24845  22914609.12048
    163342.71749    127279.26546         0.00041  21276735.63746  21276733.44849
  -1761534.72048  -1372620.03644         0.00041  24599060.65244  24599055.70048
  -5963238.89049  -4646677.41747         0.00041  20497079.57447  20497076.52349
  -1073413.78548   -836425.01044         0.00041  24818117.76344  24818113.75548
 97 06 27 16 28 00.0000000  0  8 02 04 05 07 09 16 24 30
   7421372.16748   5782881.07044         0.00041  24408111.26744  24408104.75948
     33850.65749     26378.34047         0.00041  20614840.46747  20614838.66549
  -7187827.82948  -5600903.90046         0.00041  21861799.34046  21861797.11448
   6087192.00248   4743263.81945         0.00041  22927329.34245  22927326.13548
    191288.39449    149055.10946         0.00041  21282053.58146  21282051.31049
  -1758328.00348  -1370121.28444         0.00041  24599669.59244  24599666.42548
  -6004022.92949  -4678457.16547         0.00041  20489318.37547  20489315.15649
  -1171108.26948   -912550.54544         0.00041  24799526.50244  24799523.00848
 97 06 27 16 28 30.0000000  0  8 02 04 05 07 09 16 24 30
   7510906.67348   5852648.10244         0.00041  24425152.01344  24425143.82248
     61782.96749     48143.77947         0.00041  20620155.55147  20620153.86849
  -7261242.14348  -5658109.84446         0.00041  21847829.02046  21847826.86248
   6153905.87548   4795248.64545         0.00041  22940025.61945  22940021.96248
    219611.35149    171124.93446         0.00041  21287443.24046  21287441.06149
  -1754749.83648  -1367333.06541         0.00041         0.00041  24600347.67948
  -6044426.76849  -4709940.65347         0.00041  20481629.90247  20481626.64849
  -1269000.94948   -988830.52344         0.00041  24780899.04844  24780894.16648
 97 06 27 16 29 00.0000000  0  8 02 04 05 07 09 16 24 30
   7600647.24148   5922575.76344         0.00041  24442225.23144  24442220.59248
     90225.96549     70307.15747         0.00041  20625568.19147  20625566.44049
  -7334494.25348  -5715189.37946         0.00041  21833889.37546  21833886.95948
   6220654.75448   4847260.73245         0.00041  22952726.54345  22952723.72148
    248445.18849    193592.84346         0.00041  21292930.52746  21292927.83049
  -1750659.21748  -1364145.57644         0.00041  24601131.97344  24601126.21348
  -6084311.26149  -4741019.45647         0.00041  20474040.05747  20474036.89549
  -1366937.59148  -1065144.76544         0.00041  24762262.24844  24762256.82248
 97 06 27 16 29 30.0000000  0  8 02 04 05 07 09 16 24 30
   7690670.27648   5992723.44344         0.00041  24459362.42344  24459351.00548
    119255.66149     92927.70447         0.00041  20631092.19247  20631090.31049
  -7407505.38148  -5772081.13646         0.00041  21819996.30946  21819993.60648
   6287518.13648   4899362.02345         0.00041  22965450.16945  22965447.19048
    277861.46449    216514.60246         0.00041  21298527.85446  21298525.67949
  -1745998.03248  -1360513.48444         0.00041  24602017.47644  24602012.62248
  -6123604.92849  -4771637.87647         0.00041  20466562.64147  20466559.50049
  -1464840.65648  -1141432.85344         0.00041  24743631.97244  24743626.40548
 97 06 27 16 30 00.0000000  0  7 04 05 07 09 16 24 30
    148838.06649    115978.93147         0.00041  20636721.46947  20636719.77249
  -7480327.11348  -5828825.31346         0.00041  21806138.11246  21806135.76848
   6354438.97548   4951508.09445         0.00041  22978185.55145  22978181.81048
    307820.13649    239859.01046         0.00041  21304228.69146  21304226.29749
  -1740829.57648  -1356486.06444         0.00041  24602999.11944  24602995.90948
  -6162360.23949  -4801836.79447         0.00041  20459187.71447  20459184.53949
  -1562767.93248  -1217739.80144         0.00041  24724993.20744  24724991.50348
 97 06 27 16 30 30.0000000  0  7 04 05 07 09 16 24 30
    178938.33249    139433.68847         0.00041  20642449.54047  20642447.72049
  -7553004.30948  -5885456.87846         0.00041  21792308.08346  21792305.73448
   6421372.29148   5003663.86445         0.00041  22990921.93245  22990919.05448
    338272.50149    263588.11446         0.00041  21310023.88046  21310021.36549
  -1735203.74248  -1352102.27644         0.00041  24604071.46044  24604066.84648
  -6200613.23549  -4831644.30047         0.00041  20451908.36347  20451905.28249
  -1660766.16048  -1294102.01644         0.00041  24706349.65444  24706343.70448
 97 06 27 16 31 00.0000000  0  7 04 05 07 09 16 24 30
    209574.48349    163306.01947         0.00041  20648279.36647  20648277.46149
  -7625512.24848  -5941956.55346         0.00041  21778510.75446  21778507.88148
   6488326.96048   5055836.31445         0.00041  23003662.94045  23003659.91248
    369210.49749    287695.63146         0.00041  21315910.84446  21315908.61649
  -1729120.28848  -1347361.94244         0.00041  24605232.84144  24605224.40248
  -6238372.41549  -4861067.01447         0.00041  20444723.17147  20444720.03949
  -1758827.94448  -1370513.76244         0.00041  24687687.07644  24687682.99448
 97 06 27 16 31 30.0000000  0  7 04 05 07 09 16 24 30
    240809.89149    187645.30247         0.00041  20654223.32047  20654221.71949
  -7697793.34748  -5998279.46546         0.00041  21764756.50646  21764753.38648
   6555363.23748   5108072.35545         0.00041  23016419.71945  23016416.47048
    400715.20349    312244.74346         0.00041  21321906.11646  21321903.90249
  -1722518.01648  -1342217.30744         0.00041  24606484.14344  24606480.28748
  -6275560.62949  -4890044.82147         0.00041  20437646.50647  20437643.35049
  -1856891.99148  -1446927.33344         0.00041  24669025.57944  24669022.36048
 97 06 27 16 32 00.0000000  0  8 04 05 07 09 10 16 24 30
    272599.66949    212416.56247         0.00041  20660272.68447  20660270.90949
  -7769883.77948  -6054453.81246         0.00041  21751037.82646  21751034.86948
   6622425.50048   5160328.63745         0.00041  23029182.56045  23029178.06048
    432756.64749    337212.09046         0.00041  21328003.39646  21328001.12649
        -0.53957         0.00051         0.00051         0.00051  25217213.90057
  -1715424.20148  -1336689.65044         0.00041  24607834.82444  24607829.86948
  -6312213.42549  -4918605.41647         0.00041  20430671.75247  20430668.64449
  -1954992.20448  -1523368.99044         0.00041  24650360.86744  24650354.72548
 97 06 27 16 32 30.0000000  0  8 04 05 07 09 10 16 24 30
    304908.32949    237592.14747         0.00041  20666420.53147  20666419.03249
  -7841806.01648  -6110497.09346         0.00041  21737350.97046  21737348.46148
   6689488.29248   5212585.30845         0.00041  23041943.77645  23041939.80248
    465307.22949    362576.17146         0.00041  21334197.72346  21334195.35549
    -90281.15448         0.00041         0.00041         0.00041  25200035.17748
  -1707855.62148  -1330792.02244         0.00041  24609278.20044  24609269.76048
  -6348360.76149  -4946772.14947         0.00041  20423792.97547  20423789.91549
  -2053159.56148  -1599863.02244         0.00041  24631676.43944  24631674.20848
 97 06 27 16 33 00.0000000  0  8 04 05 07 09 10 16 24 30
    337790.92249    263214.95447         0.00041  20672678.06147  20672676.36249
  -7913506.83648  -6166367.84746         0.00041  21723706.97046  21723704.51048
   6756594.29748   5264875.67645         0.00041  23054713.38945  23054709.84748
    498421.56049    388379.53046         0.00041  21340499.11746  21340496.73149
   -180734.80948         0.00041         0.00041         0.00041  25182821.99748
  -1699752.52448  -1324477.89544         0.00041  24610817.01044  24610812.16248
  -6383947.92049  -4974502.38047         0.00041  20417021.07547  20417018.03449
  -2151338.23048  -1676365.84044         0.00041  24612992.71444  24612990.89148
 97 06 27 16 33 30.0000000  0  8 04 05 07 09 10 16 24 30
    371255.56749    289291.30447         0.00041  20679046.19747  20679044.41749
  -7985000.15948  -6222076.90746         0.00041  21710102.10646  21710099.82948
   6823744.02448   5317200.09045         0.00041  23067491.45145  23067487.72648
    532116.62949    414635.41246         0.00041  21346911.11146  21346908.66449
   -271334.17948         0.00041         0.00041         0.00041  25165582.45448
  -1691101.14748  -1317736.56644         0.00041  24612461.69344  24612458.74448
  -6418958.16249  -5001783.06847         0.00041  20410358.80347  20410355.83949
  -2249513.74448  -1752866.21444         0.00041  24594312.21444  24594308.63048
 97 06 27 16 34 00.0000000  0  8 04 05 07 09 10 16 24 30
    405315.62049    315831.60947         0.00041  20685527.44847  20685525.71749
  -8056274.05248  -6277614.98346         0.00041  21696539.18146  21696536.73148
   6890949.39748   5369567.87645         0.00041  23080279.61845  23080276.17948
    566382.33549    441335.95146         0.00041  21353431.41846  21353429.33249
   -362060.59048         0.00041         0.00041         0.00041  25148318.03548
  -1681894.51548  -1310562.57944         0.00041  24614214.26244  24614211.20448
  -6453407.08249  -5028626.36047         0.00041  20403803.50647  20403800.45149
  -2347679.58248  -1829359.01744         0.00041  24575627.85344  24575628.44348
 97 06 27 16 34 30.0000000  0  8 04 05 07 09 10 16 24 30
    439938.34749    342810.36447         0.00041  20692116.07247  20692114.23649
  -8127367.26148  -6333012.26446         0.00041  21683009.79746  21683008.16448
   6958189.79248   5421962.96245         0.00041  23093074.41945  23093071.59948
    601168.19449    468441.80246         0.00041  21360051.17746  21360048.76549
   -452944.69548         0.00041         0.00041         0.00041  25131023.10148
  -1672161.19448  -1302978.19444         0.00041  24616068.69144  24616062.80448
  -6487327.01949  -5055057.45747         0.00041  20397348.57547  20397345.56649
  -2445863.10348  -1905865.59444         0.00041  24556947.20644  24556945.28548
 97 06 27 16 35 00.0000000  0  8 04 05 07 09 10 16 24 30
    475084.38249    370196.89047         0.00041  20698804.20047  20698802.30049
  -8198303.98248  -6388287.61246         0.00041  21669511.49446  21669509.11148
   7025433.72748   5474360.81145         0.00041  23105871.22545  23105868.01648
    636443.62649    495929.13846         0.00041  21366763.79546  21366761.63549
   -544005.43248         0.00041         0.00041         0.00041  25113695.09348
  -1661926.38948  -1295003.04544         0.00041  24618016.19644  24618011.38148
  -6520727.36249  -5081083.67947         0.00041  20390992.66447  20390989.57149
  -2544071.43148  -1982391.52044         0.00041  24538259.65644  24538256.98248
 97 06 27 16 35 30.0000000  0  8 04 05 07 09 10 16 24 30
    510751.05649    397989.10947         0.00041  20705591.56647  20705589.54549
  -8269048.18848  -6443412.94646         0.00041  21656049.54446  21656046.97548
   7092705.94648   5526780.67945         0.00041  23118672.63345  23118669.67648
    672230.53049    523815.02346         0.00041  21373573.79546  21373571.53749
   -635209.07748         0.00041         0.00041         0.00041  25096339.84148
  -1651180.44248  -1286629.60144         0.00041  24620063.49044  24620056.51148
  -6553603.28549  -5106701.26047         0.00041  20384736.59847  20384733.47949
  -2642277.60448  -2058915.74944         0.00041  24519572.01044  24519568.22448
 97 06 27 16 36 00.0000000  0  8 04 05 07 09 10 16 24 30
    546942.55449    426190.28447         0.00041  20712478.57747  20712476.63349
  -8339554.09248  -6498352.59446         0.00041  21642632.18146  21642630.13448
   7160035.28248   5579245.05345         0.00041  23131485.35945  23131482.19148
    708535.61849    552104.68846         0.00041  21380482.47646  21380480.22349
   -726542.11948   -566137.11341         0.00041         0.00041  25078960.40248
  -1639903.97648  -1277842.76144         0.00041  24622208.00144  24622202.43548
  -6585935.59049  -5131895.24447         0.00041  20378583.82947  20378580.83249
  -2740459.29448  -2135420.90344         0.00041  24500887.86844  24500884.64248
 97 06 27 16 36 30.0000000  0  8 04 05 07 09 10 16 24 30
    583649.08449    454792.78147         0.00041  20719463.40847  20719461.53549
  -8409822.07948  -6553106.85546         0.00041  21629260.92146  21629258.70148
   7227413.51548   5631747.52545         0.00041  23144307.02145  23144303.93448
    745366.41249    580803.98946         0.00041  21387491.59346  21387489.08249
   -818011.79248         0.00041         0.00041         0.00041  25061553.81248
  -1628094.51848  -1268640.65844         0.00041  24624453.83744  24624450.40348
  -6617709.27249  -5156653.94047         0.00041  20372537.43947  20372534.39149
  -2838618.52948  -2211908.58244         0.00041  24482208.33444  24482205.92848
 97 06 27 16 37 00.0000000  0  8 04 05 07 09 10 16 24 30
    620864.41449    483791.74947         0.00041  20726545.36547  20726543.49249
  -8479844.71748  -6607669.93046         0.00041  21615936.28646  21615933.79748
   7294837.04348   5684285.30545         0.00041  23157136.92145  23157134.28148
    782737.47849    609924.27346         0.00041  21394602.82746  21394600.31549
   -909618.53448         0.00041         0.00041         0.00041  25044120.69848
  -1615764.43948  -1259032.81144         0.00041  24626802.38844  24626795.83448
  -6648933.07549  -5180984.15947         0.00041  20366595.91847  20366592.86049
  -2936764.00248  -2288385.53044         0.00041  24463531.62344  24463529.18448
 97 06 27 16 37 30.0000000  0  8 04 05 07 09 10 16 24 30
    658540.52949    513149.76346         0.00041  20733714.82746  20733713.03849
  -8549675.78948  -6662083.72946         0.00041  21602647.74746  21602645.50248
   7362274.37348   5736833.84445         0.00041  23169970.41345  23169967.23348
    820593.51049    639422.46646         0.00041  21401806.52646  21401804.40549
  -1001420.49748         0.00041         0.00041         0.00041  25026652.16248
  -1602975.33148  -1249067.28644         0.00041  24629235.61344  24629229.01448
  -6679675.68549  -5204939.42247         0.00041  20360745.68747  20360742.56249
  -3034967.87448  -2364907.99544         0.00041  24444844.52744  24444842.15048
 97 06 27 16 38 00.0000000  0  8 04 05 07 09 10 16 24 30
    696668.75549    542860.07446         0.00041  20740970.10246  20740968.33349
  -8619363.46948  -6716385.79446         0.00041  21589386.49646  21589384.36648
   7429699.08748   5789372.53545         0.00041  23182801.23745  23182797.62948
    858901.50849    669272.83446         0.00041  21409096.33246  21409094.06349
  -1093456.34648         0.00041         0.00041         0.00041  25009137.82948
  -1589746.64048  -1238759.21444         0.00041  24631750.21344  24631746.50748
  -6709947.60249  -5228527.91347         0.00041  20354985.14047  20354982.29149
  -3133276.98548  -2441512.43044         0.00041  24426134.77144  24426134.34648
 97 06 27 16 38 30.0000000  0  8 04 05 07 09 10 16 24 30
    735303.39249    572964.98546         0.00041  20748322.21246  20748320.37749
  -8688873.87648  -6770549.73246         0.00041  21576158.99746  21576156.95148
   7497153.59348   5841934.44745         0.00041  23195636.55645  23195633.45148
    897717.10249    699518.73246         0.00041  21416482.37046  21416480.37049
  -1185665.50048   -923895.73941         0.00041         0.00041  24991591.20548
  -1576016.76648  -1228060.62544         0.00041  24634364.17344  24634358.88948
  -6739693.96149  -5251706.87947         0.00041  20349324.58447  20349321.77749
  -3231642.24848  -2518160.64644         0.00041  24407416.39144  24407415.89148
 97 06 27 16 39 00.0000000  0  8 04 05 07 09 10 16 24 30
    774473.10649    603486.84246         0.00041  20755775.93146  20755774.01149
  -8758175.77648  -6824551.18746         0.00041  21562971.62746  21562968.95348
   7564667.28548   5894542.48245         0.00041  23208484.15445  23208480.68948
    937053.47949    730170.44146         0.00041  21423968.16446  21423965.94949
  -1278014.45548         0.00041         0.00041         0.00041  24974017.76048
  -1561754.15748  -1216946.90944         0.00041  24637077.64644  24637072.80648
  -6768899.25549  -5274464.24047         0.00041  20343767.01447  20343763.97749
  -3330022.61748  -2594820.62744         0.00041  24388697.34644  24388694.15848
 97 06 27 16 39 30.0000000  0  8 04 05 07 09 10 16 24 30
    814164.96849    634415.56746         0.00041  20763329.00546  20763327.28349
  -8827301.49249  -6878415.35846         0.00041  21549817.16546  21549814.82649
   7632216.86048   5947178.47045         0.00041  23221338.58845  23221335.06248
    976875.26649    761200.39346         0.00041  21431546.10346  21431543.84549
  -1370514.09948         0.00041         0.00041         0.00041  24956414.82948
  -1546960.99048  -1205419.81344         0.00041  24639893.39644  24639889.02848
  -6797575.07549  -5296809.02147         0.00041  20338310.35947  20338307.32349
  -3428429.30748  -2671501.11544         0.00041  24369970.79844  24369967.71348
 97 06 27 16 40 00.0000000  0  8 04 05 07 09 10 16 24 30
    854375.75649    665748.64546         0.00041  20770980.61746  20770979.17849
  -8896256.98449  -6932146.89246         0.00041  21536695.24046  21536693.11949
   7699771.94248   5999818.74745         0.00041  23234194.67345  23234190.68348
   1017172.35449    792600.71846         0.00041  21439214.12246  21439212.05549
  -1463153.87348         0.00041         0.00041         0.00041  24938786.42248
  -1531626.72348  -1193471.07144         0.00041  24642811.87844  24642806.72948
  -6825726.20449  -5318744.95247         0.00041  20332953.21747  20332950.14449
  -3526844.05948  -2748187.90344         0.00041  24351243.81944  24351240.63148
 97 06 27 16 40 30.0000000  0  8 04 05 07 09 10 16 24 30
    895096.40349    697479.01746         0.00041  20778730.00546  20778728.06249
  -8965023.50149  -6985731.18046         0.00041  21523609.75846  21523607.55849
   7767337.64148   6052467.30345         0.00041  23247051.29645  23247048.19248
   1057947.35249    824373.43546         0.00041  21446973.61146  21446971.31949
  -1555917.29448  -1212403.52341         0.00041         0.00041  24921133.92848
  -1515753.14548  -1181102.06044         0.00041  24645830.54944  24645826.87548
  -6853366.90549  -5340283.14847         0.00041  20327693.36047  20327690.23749
  -3625238.16048  -2824858.60644         0.00041  24332516.72944  24332517.07748
 97 06 27 16 41 00.0000000  0  8 04 05 07 09 10 16 24 30
    936337.24049    729614.73446         0.00041  20786577.57846  20786575.87849
  -9033579.17649  -7039151.16546         0.00041  21510563.77246  21510561.76449
   7834928.71848   6105135.64445         0.00041  23259913.20245  23259910.82748
   1099220.05849    856533.96546         0.00041  21454827.39546  21454825.28249
  -1648798.13948  -1284778.15841         0.00041         0.00041  24903459.69848
  -1499345.91248  -1168317.27344         0.00041  24648952.06944  24648949.94548
  -6880485.32649  -5361414.37147         0.00041  20322532.80447  20322529.60449
  -3723599.47448  -2901503.70544         0.00041  24313802.71344  24313799.44848
 97 06 27 16 41 30.0000000  0  8 04 05 07 09 10 16 24 30
    978100.55249    762157.56946         0.00041  20794525.06346  20794523.14649
  -9101901.81149  -7092389.56846         0.00041  21497562.21946  21497560.23249
   7902554.05348   6157830.67645         0.00041  23272781.84345  23272779.17648
   1141014.91249    889101.36346         0.00041  21462780.83346  21462778.72649
  -1741777.60248  -1357229.66641         0.00041         0.00041  24885766.48548
  -1482407.53348  -1155118.54044         0.00041  24652175.67644  24652172.69948
  -6907050.66149  -5382114.61747         0.00041  20317477.66447  20317474.49249
  -3821927.07248  -2978122.57444         0.00041  24295091.98344  24295088.65348
 97 06 27 16 42 00.0000000  0  8 04 05 07 09 10 16 24 30
   1020381.12149    795103.46946         0.00041  20802570.67446  20802568.81549
  -9169968.22749  -7145428.31946         0.00041  21484609.89646  21484607.79549
   7970227.30848   6210563.03345         0.00041  23285660.54745  23285656.81348
   1183336.23549    922078.98446         0.00041  21470834.58746  21470832.20049
  -1834857.66448         0.00041         0.00041         0.00041  24868053.49048
  -1464954.76248  -1141518.99344         0.00041  24655500.24244  24655493.35248
  -6933057.89249  -5402379.98047         0.00041  20312528.64047  20312525.56849
  -3920220.78648  -3054715.06144         0.00041  24276383.15744  24276383.76448
 97 06 27 16 42 30.0000000  0  8 04 05 07 09 10 16 24 30
   1063127.85649    828412.61246         0.00041  20810705.08146  20810703.38849
  -9237826.06549  -7198304.54346         0.00041  21471696.78546  21471694.66649
   8037911.95248   6263304.25845         0.00041  23298540.67645  23298537.19948
   1226133.96249    955427.83346         0.00041  21478978.51446  21478976.22449
  -1928093.23648         0.00041         0.00041         0.00041  24850310.58148
  -1447050.50448  -1127567.65144         0.00041  24658906.78244  24658900.82448
  -6958538.46849  -5422234.96247         0.00041  20307679.90047  20307676.77849
  -4018546.94248  -3131332.81044         0.00041  24257676.51844  24257671.80248
 97 06 27 16 43 00.0000000  0  8 04 05 07 09 10 16 24 30
   1106343.85249    862087.41046         0.00041  20818928.60646  20818926.90649
  -9305471.26149  -7251015.07246         0.00041  21458824.55746  21458822.23249
   8105608.21048   6316054.56745         0.00041  23311422.56045  23311419.38048
   1269408.92149    989148.55746         0.00041  21487213.65846  21487211.28749
  -2021479.18148  -1575178.79641         0.00041         0.00041  24832540.99048
  -1428691.15148  -1113261.68544         0.00041  24662398.77144  24662394.52548
  -6983477.11549  -5441667.66347         0.00041  20302934.05647  20302931.13049
  -4116912.29348  -3207981.09644         0.00041  24238956.26644  24238953.56148
 97 06 27 16 43 30.0000000  0  8 04 05 07 09 10 16 24 30
   1150020.36949    896121.06046         0.00041  20827240.21846  20827238.47749
  -9372910.58449  -7303565.17646         0.00041  21445991.18646  21445989.05849
   8173311.47948   6368810.31545         0.00041  23324306.18745  23324302.44648
   1313140.29649   1023224.92346         0.00041  21495535.15446  21495533.03349
  -2115013.98748  -1648062.97241         0.00041         0.00041  24814741.93948
  -1409870.03648  -1098595.90044         0.00041  24665982.98644  24665975.60948
  -7007881.58449  -5460684.12247         0.00041  20298289.99447  20298287.09849
  -4215320.06548  -3284662.38944         0.00041  24220229.86644  24220226.66048
 97 06 27 16 44 00.0000000  0  8 04 05 07 09 10 16 24 30
   1194149.82349    930507.63646         0.00041  20835637.82546  20835636.13349
  -9440166.83949  -7355972.63846         0.00041  21433192.72546  21433190.33849
   8241011.42148   6421563.46045         0.00041  23337188.53345  23337185.60748
   1357311.21149   1057643.80946         0.00041  21503940.78646  21503938.63149
  -2208707.02548  -1721070.50441         0.00041         0.00041  24796912.69148
  -1390582.49748  -1083566.69044         0.00041  24669654.11644  24669645.92548
  -7031777.77449  -5479304.51947         0.00041  20293742.85447  20293739.75949
  -4313780.86448  -3361385.04044         0.00041  24201495.09844  24201489.74648
 97 06 27 16 44 30.0000000  0  8 04 05 07 09 10 16 24 30
   1238792.08349    965293.81746         0.00041  20844132.78746  20844131.03949
  -9507184.69449  -7408194.32946         0.00041  21420440.03446  21420437.26049
   8308750.44948   6474347.07644         0.00041  23350080.07844  23350075.90548
   1401991.99249   1092459.97046         0.00041  21512443.31846  21512441.24849
  -2302498.88648  -1794154.98844         0.00041  24779071.79144  24779064.55348
  -1370748.25548  -1068111.45344         0.00041  24673425.81844  24673419.92048
  -7055111.55949  -5497486.67547         0.00041  20289302.59847  20289299.56749
  -4412231.99948  -3438100.12344         0.00041  24182759.99644  24182754.81348
 97 06 27 16 45 00.0000000  0  8 04 05 07 09 10 16 24 30
   1283939.40649   1000473.54646         0.00041  20852724.04046  20852722.37249
  -9573957.13249  -7460224.78446         0.00041  21407733.44646  21407731.01749
   8376521.31248   6527155.49144         0.00041  23362975.26244  23362971.97048
   1447185.82449   1127675.91946         0.00041  21521043.40946  21521041.48149
  -2396386.00648  -1867313.70544         0.00041  24761202.73244  24761199.27848
  -1350354.19648  -1052220.05444         0.00041  24677309.08444  24677300.64548
  -7077898.69549  -5515242.87447         0.00041  20284966.13647  20284963.32249
  -4510662.99648  -3514799.55044         0.00041  24164027.72944  24164024.73448
 97 06 27 16 45 30.0000000  0  8 04 05 07 09 10 16 24 30
   1329570.93649   1036030.57946         0.00041  20861407.16946  20861405.77849
  -9640509.29049  -7512083.59246         0.00041  21395068.72446  21395066.40749
   8444299.63848   6579969.73545         0.00041  23375873.48945  23375869.90048
   1492858.84049   1163265.26946         0.00041  21529734.25946  21529732.64149
  -2490395.39548  -1940567.68344         0.00041  24743314.80244  24743309.10148
  -1329423.63848  -1035910.46844         0.00041  24681286.64544  24681284.35848
  -7100160.95549  -5532590.08047         0.00041  20280729.73247  20280726.91249
  -4609084.86548  -3591491.87544         0.00041  24145298.18244  24145296.34748
 97 06 27 16 46 00.0000000  0  8 04 05 07 09 10 16 24 30
   1375708.15049   1071981.63746         0.00041  20870186.95346  20870185.25949
  -9706820.06349  -7563754.30546         0.00041  21382450.01646  21382448.03849
   8512104.48948   6632804.64645         0.00041  23388777.40445  23388773.36748
   1539028.89649   1199241.93746         0.00041  21538520.27546  21538518.38349
  -2584513.39148  -2013906.31041         0.00041         0.00041  24725398.95948
  -1307958.31948  -1019184.22944         0.00041  24685374.80244  24685368.85348
  -7121885.48949  -5549518.27647         0.00041  20276595.76247  20276592.85349
  -4707472.68748  -3668157.65745         0.00041  24126576.76945  24126573.81048
 97 06 27 16 46 30.0000000  0  8 04 05 07 09 10 16 24 30
   1422379.36349   1108348.84846         0.00041  20879068.05246  20879066.45649
  -9772855.17749  -7615210.22546         0.00041  21369884.16146  21369882.19949
   8579968.01248   6685685.25845         0.00041  23401690.25945  23401687.12648
   1585707.25049   1235614.67746         0.00041  21547402.95146  21547401.09149
  -2678720.94148  -2087314.68544         0.00041  24707477.85844  24707472.04648
  -1285949.25048  -1002034.34744         0.00041  24689561.08144  24689557.91848
  -7143047.21749  -5566007.92547         0.00041  20272568.77547  20272565.89249
  -4805786.77848  -3744765.98045         0.00041  24107870.37745  24107865.27148
 97 06 27 16 47 00.0000000  0  8 04 05 07 09 10 16 24 30
   1469556.48549   1145110.24146         0.00041  20888045.83346  20888044.19349
  -9838623.80049  -7666458.48546         0.00041  21357368.89746  21357366.99349
   8647883.05548   6738606.03745         0.00041  23414614.44045  23414611.22048
   1632848.28949   1272347.82446         0.00041  21556373.68246  21556371.66649
  -2773032.09148  -2160803.84644         0.00041  24689532.50644  24689524.70148
  -1263442.84748   -984496.92144         0.00041  24693842.31244  24693840.73448
  -7163665.89749  -5582074.41947         0.00041  20268645.22047  20268642.39649
  -4904051.12548  -3821335.56145         0.00041  24089171.22545  24089165.96848
 97 06 27 16 47 30.0000000  0  8 04 05 07 09 10 16 24 30
   1517264.65649   1182285.43146         0.00041  20897124.43946  20897122.84749
  -9904092.77349  -7717473.26046         0.00041  21344910.74446  21344908.77349
   8715881.83048   6791592.04145         0.00041  23427555.01845  23427550.64648
   1680467.11349   1309453.38546         0.00041  21565435.75946  21565433.12649
  -2867429.24848  -2234359.96944         0.00041  24671567.40744  24671561.34048
  -1240420.91748   -966557.84444         0.00041  24698228.78244  24698220.84448
  -7183714.02749  -5597696.32947         0.00041  20264830.26647  20264827.20749
  -5002248.09648  -3897852.64744         0.00041  24070482.97544  24070479.44648
 97 06 27 16 48 00.0000000  0  8 04 05 07 09 10 16 24 30
   1565535.79549   1219899.30146         0.00041  20906310.19746  20906308.60449
  -9969225.11149  -7768225.72146         0.00041  21332516.44046  21332514.24649
   8783997.24448   6844668.91345         0.00041  23440516.81745  23440512.23548
   1728604.77649   1346963.22646         0.00041  21574595.92646  21574593.62749
  -2961876.63348  -2307955.21644         0.00041  24653594.00544  24653588.92048
  -1216843.79648   -948186.10744         0.00041  24702711.86044  24702708.06248
  -7203162.47049  -5612850.95047         0.00041  20261129.41047  20261126.47149
  -5100366.84448  -3974308.75845         0.00041  24051813.58745  24051808.25148
 97 06 27 16 48 30.0000000  0  8 04 05 07 09 10 16 24 30
   1614274.59749   1257877.58346         0.00041  20915584.69646  20915583.31349
 -10034101.90549  -7818779.05546         0.00041  21320170.75646  21320168.42949
   8852129.50648   6897758.91144         0.00041  23453481.86644  23453476.91348
   1777179.53149   1384813.65746         0.00041  21583839.42746  21583836.81749
  -3056449.60348  -2381648.35644         0.00041  24635598.43944  24635592.32848
  -1192771.31648   -929428.32044         0.00041  24707293.77444  24707288.77248
  -7222095.47149  -5627603.92747         0.00041  20257526.58947  20257523.71049
  -5198498.85848  -4050775.23345         0.00041  24033139.16845  24033134.26948
 97 06 27 16 49 00.0000000  0  8 04 05 07 09 10 16 24 30
   1663419.90749   1296172.63046         0.00041  20924937.17046  20924935.36149
 -10098775.59849  -7869174.12946         0.00041  21307863.97246  21307861.21349
   8920209.08648   6950807.87444         0.00041  23466438.87644  23466432.12648
   1826160.98349   1422980.99646         0.00041  21593160.26846  21593158.00649
  -3151184.61248  -2455467.73844         0.00041  24617572.36744  24617564.51048
  -1168235.73048   -910309.69744         0.00041  24711965.64244  24711957.45148
  -7240556.19449  -5641988.89947         0.00041  20254013.63347  20254010.63149
  -5296701.77148  -4127296.92845         0.00041  24014450.40345  24014447.27948
 97 06 27 16 49 30.0000000  0  8 04 05 07 09 10 16 24 30
   1713114.56949   1334895.73846         0.00041  20934393.57646  20934391.81749
 -10163128.10549  -7919318.92546         0.00041  21295618.33146  21295615.58449
   8988359.63248   7003912.15645         0.00041  23479407.67245  23479401.22548
   1875707.22049   1461588.42146         0.00041  21602588.66746  21602586.27849
  -3245929.48048  -2529294.77844         0.00041  24599545.91044  24599534.74048
  -1143081.47948   -890709.02544         0.00041  24716750.68044  24716744.46248
  -7258404.25449  -5655896.46647         0.00041  20250617.08447  20250614.24649
  -5394825.67048  -4203757.10745         0.00041  23995777.96945  23995775.00648
 97 06 27 16 50 00.0000000  0  8 04 05 07 09 10 16 24 30
   1763316.17649   1374013.87246         0.00041  20943946.66546  20943944.71749
 -10227199.99749  -7969245.05446         0.00041  21283425.25146  21283423.03149
   9056537.41148   7057037.65445         0.00041  23492379.06245  23492375.47048
   1925794.92049   1500617.77046         0.00041  21612120.09346  21612117.64849
  -3340693.34748  -2603136.68244         0.00041  24581505.74744  24581501.60248
  -1117351.67748   -870659.88244         0.00041  24721645.63944  24721641.18448
  -7275672.30449  -5669352.07947         0.00041  20247331.08647  20247328.40049
  -5492887.79148  -4280169.10945         0.00041  23977117.40045  23977113.74948
 97 06 27 16 50 30.0000000  0  8 04 05 07 09 10 16 24 30
   1813772.60249   1413330.56846         0.00041  20953548.23546  20953546.57849
 -10291221.87149  -8019132.21646         0.00041  21271242.24746  21271240.28149
   9124506.01848   7110000.15445         0.00041  23505312.47145  23505309.43748
   1976182.98149   1539881.14946         0.00041  21621708.67746  21621706.29149
  -3435702.72648  -2677169.85644         0.00041  24563428.35944  24563421.63148
  -1091290.29048   -850352.34644         0.00041  24726605.71744  24726599.88648
  -7292589.09249  -5682533.98347         0.00041  20244111.94947  20244109.07249
  -5591100.41248  -4356698.33944         0.00041  23958428.52244  23958424.33848
 97 06 27 16 51 00.0000000  0  8 04 05 07 09 10 16 24 30
   1864655.29049   1452979.41746         0.00041  20963230.97946  20963229.33349
 -10355028.52449  -8068851.67646         0.00041  21259100.32446  21259098.29649
   9192456.21848   7162948.31244         0.00041  23518243.34844  23518239.31248
   2027035.60049   1579506.50346         0.00041  21631385.37846  21631383.06849
  -3530786.31048         0.00041         0.00041         0.00041  24545328.05848
  -1064756.76348   -829676.91844         0.00041  24731656.01444  24731649.64148
  -7308975.70849  -5695302.76547         0.00041  20240993.71247  20240990.67249
  -5689292.22948  -4433211.36544         0.00041  23939745.39644  23939739.21748
 97 06 27 16 51 30.0000000  0  7 04 05 07 09 10 24 30
   1915997.44549   1492986.28646         0.00041  20973001.07646  20972999.12849
 -10418581.28049  -8118373.29146         0.00041  21247006.62446  21247004.65649
   9260433.17948   7215917.32844         0.00041  23531180.61544  23531174.96048
   2078361.51949   1619500.69146         0.00041  21641152.55846  21641150.16049
  -3625917.12248  -2825388.70044         0.00041  24527230.55844  24527224.80148
  -7324804.57849  -5707636.93847         0.00041  20237981.48647  20237978.38249
  -5787433.96248  -4509685.42444         0.00041  23921067.61144  23921063.31448
 97 06 27 16 52 00.0000000  0  7 04 05 07 09 10 24 30
   1967850.73149   1533391.43946         0.00041  20982868.47446  20982866.56249
 -10481812.92849  -8167644.70346         0.00041  21234973.79546  21234971.92449
   9328511.58248   7268965.39044         0.00041  23544135.35644  23544129.56948
   2130201.41849   1659895.41246         0.00041  21651017.54346  21651015.09449
  -3721059.23348  -2899525.31244         0.00041  24509126.12344  24509119.68148
  -7340024.53349  -5719496.63547         0.00041  20235085.24247  20235082.29749
  -5885477.16448  -4586082.66344         0.00041  23902408.08044  23902406.42548
 97 06 27 16 52 30.0000000  0  8 04 05 06 07 09 10 24 30
   2020109.68949   1574112.69146         0.00041  20992813.30646  20992811.13849
 -10544840.38349  -8216756.99646         0.00041  21222980.16646  21222977.94049
         0.14357         0.00051         0.00051         0.00051  25496652.76057
   9396582.43648   7322007.54844         0.00041  23557087.21744  23557083.50048
   2182427.34349   1700590.93946         0.00041  21660955.66746  21660953.36749
  -3816342.69048  -2973772.05544         0.00041  24490994.19944  24490988.81648
  -7354754.94549  -5730974.87247         0.00041  20232282.12347  20232279.11449
  -5983548.85348  -4662502.11544         0.00041  23883745.27044  23883744.19848
 97 06 27 16 53 00.0000000  0  8 04 05 06 07 09 10 24 30
   2072784.11649   1615157.69146         0.00041  21002836.92346  21002834.67849
 -10607671.41249  -8265716.22946         0.00041  21211024.06546  21211021.70749
    -73145.26947         0.00041         0.00041         0.00041  25482732.71547
   9464643.27648   7375041.91245         0.00041  23570039.79245  23570035.63548
   2235031.92049   1741581.50546         0.00041  21670966.46346  21670963.71649
  -3911775.06048  -3048134.82344         0.00041  24472834.99444  24472828.44648
  -7369014.28849  -5742086.03947         0.00041  20229568.70747  20229565.63149
  -6081662.57048  -4738954.36144         0.00041  23865075.82444  23865073.78748
 97 06 27 16 53 30.0000000  0  8 04 05 06 07 09 10 24 30
   2126004.30449   1656627.95946         0.00041  21012963.91246  21012961.84449
 -10670163.82849  -8314411.60846         0.00041  21199131.85546  21199129.65149
   -146189.44148         0.00041         0.00041         0.00041  25468833.47048
   9532817.76548   7428164.84244         0.00041  23583012.18344  23583008.71748
   2288138.38849   1782963.14846         0.00041  21681072.19446  21681069.65049
  -4007222.37648  -3122509.31944         0.00041  24454671.82144  24454665.48248
  -7382679.06649  -5752733.90847         0.00041  20226968.24047  20226965.32149
  -6179683.06948  -4815333.91444         0.00041  23846424.31944  23846421.11248
 97 06 27 16 54 00.0000000  0  8 04 05 06 07 09 10 24 30
   2179704.52949   1698472.28346         0.00041  21023183.14846  21023180.90249
 -10732373.88349  -8362886.95946         0.00041  21187293.73446  21187291.52249
   -219191.40248         0.00041         0.00041         0.00041  25454941.21648
   9601046.76348   7481330.26344         0.00041  23595995.64944  23595992.34048
   2341695.76149   1824696.12946         0.00041  21691263.91246  21691261.25749
  -4102738.42748  -3196937.30544         0.00041  24436496.53444  24436489.20348
  -7395810.98349  -5762966.56347         0.00041  20224469.25047  20224466.42549
  -6277655.88248  -4891676.31644         0.00041  23827780.50544  23827777.22648
 97 06 27 16 54 30.0000000  0  8 04 05 06 07 09 10 24 30
   2233862.01849   1740672.91546         0.00041  21033489.01946  21033486.70249
 -10794308.94549  -8411148.04346         0.00041  21175507.64446  21175505.70249
   -292169.38948         0.00041         0.00041         0.00041  25441054.40348
   9669293.84148   7534509.77044         0.00041  23608982.07744  23608979.58348
   2395681.03149   1866762.54446         0.00041  21701536.66246  21701534.42249
  -4198326.79048  -3271421.67144         0.00041  24418301.69944  24418298.22548
  -7408425.56249  -5772796.10047         0.00041  20222069.04547  20222066.13749
  -6375609.86248  -4968004.04844         0.00041  23809139.44744  23809137.01148
 97 06 27 16 55 00.0000000  0  8 04 05 06 07 09 10 24 30
   2288485.40749   1783236.58646         0.00041  21043883.11246  21043881.20749
 -10855933.70749  -8459167.33246         0.00041  21163780.77546  21163779.01349
   -365092.31148         0.00041         0.00041         0.00041  25427177.11848
   9737573.67348   7587714.72444         0.00041  23621975.33444  23621972.96948
   2450109.71449   1909174.48146         0.00041  21711894.38546  21711891.78649
  -4293962.02248  -3345942.57144         0.00041  24400106.32044  24400100.53548
  -7420502.52049  -5782206.70847         0.00041  20219770.79047  20219767.72649
  -6473519.11148  -5044296.94044         0.00041  23790508.12044  23790505.70648
 97 06 27 16 55 30.0000000  0  8 04 05 06 07 09 10 24 30
   2343555.02949   1826147.97346         0.00041  21054362.66846  21054360.65549
 -10917245.09749  -8506942.42446         0.00041  21152113.60246  21152111.95949
   -437944.27548   -341254.87941         0.00041         0.00041  25413314.02248
   9805883.63648   7640943.26644         0.00041  23634976.15944  23634971.14348
   2504975.01049   1951926.62446         0.00041  21722334.75646  21722332.26549
  -4389643.68148  -3420499.61544         0.00041  24381900.58144  24381892.87048
  -7432031.89149  -5791190.62347         0.00041  20217576.84047  20217573.88049
  -6571380.13548  -5120552.26245         0.00041  23771886.83945  23771883.27548
 97 06 27 16 56 00.0000000  0  8 04 05 06 07 09 10 24 30
   2399066.28849   1869403.49346         0.00041  21064926.15446  21064924.17149
 -10978241.94849  -8554472.42946         0.00041  21140506.46846  21140504.70549
   -510710.68148         0.00041         0.00041         0.00041  25399467.59048
   9874223.18248   7694194.74044         0.00041  23647978.83944  23647976.15748
   2560282.68549   1995023.47746         0.00041  21732859.41546  21732856.85149
  -4485370.17948  -3495091.61044         0.00041  24363682.20044  24363676.50848
  -7443009.36249  -5799744.48747         0.00041  20215487.97147  20215484.95349
  -6669186.58448  -5196765.03045         0.00041  23753273.98145  23753271.54248
 97 06 27 16 56 30.0000000  0  8 04 05 06 07 09 10 24 30
   2454988.15649   1912978.96646         0.00041  21075567.54246  21075565.74149
 -11038949.49849  -8601777.00746         0.00041  21128954.31946  21128952.41249
   -583419.19548         0.00041         0.00041         0.00041  25385631.23448
   9942560.61648   7747444.65244         0.00041  23660983.65544  23660980.42648
   2616001.37949   2038440.60946         0.00041  21743462.32646  21743459.78249
  -4581167.13948  -3569738.51044         0.00041  24345451.38644  24345446.37848
  -7453459.40249  -5807887.37047         0.00041  20213499.31047  20213496.34449
  -6766967.30048  -5272957.75245         0.00041  23734665.73145  23734664.15748
 97 06 27 16 57 00.0000000  0  8 04 05 06 07 09 10 24 30
   2511290.71449   1956851.08046         0.00041  21086281.53446  21086279.64749
 -11099403.64949  -8648884.13146         0.00041  21117450.29546  21117448.24249
   -656089.51548         0.00041         0.00041         0.00041  25371802.25248
  10010887.08348   7800685.99344         0.00041  23673986.59144  23673982.90648
   2672108.59449   2082160.48046         0.00041  21754139.52746  21754136.61549
  -4677060.65448  -3644460.66144         0.00041  24327205.63544  24327198.29148
  -7463406.13449  -5815638.06647         0.00041  20211606.41447  20211603.50149
  -6864714.51648  -5349124.39045         0.00041  23716064.83845  23716063.36748
 97 06 27 16 57 30.0000000  0  8 04 05 06 07 09 10 24 30
   2568004.60349   2001043.71546         0.00041  21097074.02046  21097071.97349
 -11159590.26649  -8695782.78546         0.00041  21105997.17646  21105995.03449
   -728706.64048   -567822.90341         0.00041         0.00041  25357983.79948
  10079238.37848   7853946.70244         0.00041  23686993.88144  23686989.81748
   2728638.79049   2126209.95746         0.00041  21764896.85246  21764893.94249
  -4773007.57448  -3719224.38944         0.00041  24308947.08044  24308940.22748
  -7472816.46549  -5822970.78847         0.00041  20209815.90247  20209812.92549
  -6962396.87148  -5425240.50345         0.00041  23697476.86845  23697475.15648
 97 06 27 16 58 00.0000000  0  8 04 05 06 07 09 10 24 30
   2625133.62749   2045559.83346         0.00041  21107945.42146  21107943.34249
 -11219514.68449  -8742477.12546         0.00041  21094593.93846  21094591.53449
   -801299.16348   -624388.46641         0.00041         0.00041  25344170.22348
  10147613.66748   7907226.05744         0.00041  23700006.14644  23700001.01448
   2785598.66949   2170594.24746         0.00041  21775736.25946  21775733.40349
  -4869001.19348  -3794024.54844         0.00041  24290679.06644  24290673.09848
  -7481702.87149  -5829895.25147         0.00041  20208124.74447  20208121.70949
  -7060017.70248  -5501308.63445         0.00041  23678900.19045  23678898.38248
 97 06 27 16 58 30.0000000  0  8 04 05 06 07 09 10 24 30
   2682755.30249   2090459.83446         0.00041  21118910.31746  21118908.31849
 -11279104.29549  -8788910.58446         0.00041  21083254.39946  21083252.27849
   -873802.55548   -680884.64741         0.00041         0.00041  25330373.31248
  10216090.99648   7960584.94444         0.00041  23713036.87944  23713031.76448
   2843068.35249   2215375.78846         0.00041  21786672.34246  21786669.21449
  -4964957.98948  -3868795.98444         0.00041  24272419.83144  24272413.14548
  -7489994.04949  -5836355.90147         0.00041  20206546.96847  20206544.02849
  -7157502.19048  -5577270.50645         0.00041  23660350.63745  23660347.46148
 97 06 27 16 59 00.0000000  0  8 04 05 06 07 09 10 24 30
   2740897.28249   2135765.27046         0.00041  21129974.09746  21129972.27349
 -11338341.54349  -8835069.48146         0.00041  21071981.84846  21071980.03049
   -946194.84448         0.00041         0.00041         0.00041  25316597.34448
  10284684.01748   8014033.98044         0.00041  23726088.88044  23726084.65048
   2901077.06449   2260577.35146         0.00041  21797710.73646  21797707.91949
  -5060857.50548  -3943522.77844         0.00041  24254170.90044  24254164.48448
  -7497676.10349  -5842341.90947         0.00041  20205085.07047  20205082.40949
  -7254835.79148  -5653114.84444         0.00041  23641828.23344  23641825.34548
 97 06 27 16 59 30.0000000  0  8 04 05 06 07 09 10 24 30
   2799488.48149   2181420.74546         0.00041  21141123.76646  21141121.80149
 -11397280.02549  -8880995.57446         0.00041  21060766.41146  21060764.14449
  -1018540.21648         0.00041         0.00041         0.00041  25302830.25948
  10353317.88948   8067514.84744         0.00041  23739149.24944  23739145.20348
   2959567.00449   2306153.88746         0.00041  21808840.96046  21808838.13749
  -5156756.83048  -4018249.42944         0.00041  24235921.61744  24235915.44948
  -7504821.65949  -5847909.87347         0.00041  20203725.26047  20203722.53349
  -7352105.18748  -5728909.11244         0.00041  23623318.50344  23623315.42748
 97 06 27 17 00 00.0000000  0  8 04 05 06 07 09 10 24 30
   2858441.63249   2227358.26046         0.00041  21152342.51046  21152340.60749
 -11455981.27149  -8926736.79946         0.00041  21049595.80346  21049593.65549
  -1090909.12648   -850058.55441         0.00041         0.00041  25289058.46948
  10421915.37748   8120967.39244         0.00041  23752203.53944  23752199.56548
   3018456.99249   2352042.15146         0.00041  21820047.08346  21820044.70949
  -5252750.43748  -4093049.56044         0.00041  24217653.68144  24217647.70648
  -7511517.09049  -5853127.08847         0.00041  20202451.12647  20202448.49349
  -7449382.47248  -5804709.56644         0.00041  23604808.03344  23604804.94948
 97 06 27 17 00 30.0000000  0  8 04 05 06 07 09 10 24 30
   2917738.87649   2273563.89646         0.00041  21163626.02546  21163624.21949
 -11514456.14949  -8972301.63146         0.00041  21038468.44846  21038466.04549
  -1163295.67848   -906463.66341         0.00041         0.00041  25275284.28348
  10490445.76448   8174367.62044         0.00041  23765245.30644  23765240.38548
   3077714.15149   2398216.52546         0.00041  21831323.48146  21831321.35149
  -5348864.10848  -4167943.23944         0.00041  24199365.92544  24199358.61248
  -7517774.54749  -5858003.02647         0.00041  20201260.53147  20201257.57249
  -7546678.60948  -5880524.70445         0.00041  23586292.38745  23586290.77448
 97 06 27 17 01 00.0000000  0  8 04 05 06 07 09 10 24 30
   2977451.78249   2320093.43546         0.00041  21174988.89146  21174987.23449
 -11572622.32849  -9017625.91846         0.00041  21027399.65346  21027397.51149
  -1235613.02848         0.00041         0.00041         0.00041  25261523.12948
  10558989.48548   8227778.21344         0.00041  23778287.69844  23778284.27448
   3137392.46849   2444719.05846         0.00041  21842679.77346  21842677.62149
  -5445016.10548  -4242866.76044         0.00041  24181068.45944  24181061.24348
  -7523505.80249  -5862468.93247         0.00041  20200169.85447  20200167.01649
  -7643914.19248  -5956292.65545         0.00041  23567789.05445  23567787.15948
 97 06 27 17 01 30.0000000  0  8 04 05 06 07 09 10 24 30
   3037602.46249   2366964.07646         0.00041  21186435.36246  21186433.50049
 -11630453.08749  -9062688.84446         0.00041  21016394.90346  21016392.96749
  -1307839.86948  -1019095.47541         0.00041         0.00041  25247777.97948
  10627601.60848   8281242.14545         0.00041  23791344.34045  23791340.72648
   3197505.35449   2491560.25246         0.00041  21854119.02046  21854116.82149
  -5541170.23148  -4317791.96344         0.00041  24162768.75744  24162763.41948
  -7528666.90149  -5866490.56047         0.00041  20199187.67247  20199184.87349
  -7741044.14348  -6031978.32245         0.00041  23549305.46045  23549303.51248
 97 06 27 17 02 00.0000000  0  8 04 05 06 07 09 10 24 30
   3098184.34849   2414170.73346         0.00041  21197963.94246  21197961.97749
 -11687972.56249  -9107509.21346         0.00041  21005449.30946  21005447.33749
  -1380010.53348         0.00041         0.00041         0.00041  25234045.32748
  10696256.26948   8334739.21444         0.00041  23804409.36444  23804404.48148
   3258013.60549   2538709.49746         0.00041  21865633.31546  21865631.10849
  -5637346.50748  -4392734.40644         0.00041  24144468.09944  24144461.59248
  -7533271.79049  -5870078.78347         0.00041  20198311.27747  20198308.48449
  -7838075.92748  -6107587.46145         0.00041  23530840.01445  23530839.09948
 97 06 27 17 02 30.0000000  0  8 04 05 06 07 09 10 24 30
   3159106.80649   2461642.76446         0.00041  21209557.08446  21209555.05949
 -11745281.92549  -9152165.86346         0.00041  20994543.86346  20994541.87649
  -1452221.77948  -1131600.86241         0.00041         0.00041  25220303.35648
  10764856.83548   8388194.11644         0.00041  23817461.19844  23817458.73648
   3318818.46749   2586089.88146         0.00041  21877204.39146  21877202.00849
  -5733617.30148  -4467750.50244         0.00041  24126148.22944  24126142.29248
  -7537405.70149  -5873300.01047         0.00041  20197524.52347  20197521.85849
  -7935111.46248  -6183199.54045         0.00041  23512375.21245  23512373.92448
 97 06 27 17 03 00.0000000  0  8 04 05 06 07 09 10 24 30
   3220384.27949   2509391.42846         0.00041  21221217.83446  21221215.94749
 -11802357.99849  -9196640.72346         0.00041  20983682.48946  20983680.70249
  -1524468.18148  -1187896.71641         0.00041         0.00041  25206555.45448
  10833437.43048   8441633.48344         0.00041  23830515.51544  23830509.24648
   3379944.07149   2633720.18346         0.00041  21888836.13446  21888833.86349
  -5829954.91848  -4542818.66944         0.00041  24107815.49044  24107809.55948
  -7541054.54449  -5876143.26347         0.00041  20196830.30747  20196827.54549
  -8032126.79648  -6258795.90245         0.00041  23493912.52645  23493912.83948
 97 06 27 17 03 30.0000000  0  8 04 05 06 07 09 10 24 30
   3282128.09649   2557503.47946         0.00041  21232967.18646  21232965.36649
 -11859086.32449  -9240844.61246         0.00041  20972887.64946  20972885.53549
  -1596650.67348  -1244142.86441         0.00041         0.00041  25192820.14148
  10902090.57348   8495129.38544         0.00041  23843578.55344  23843573.36448
   3441511.72849   2681694.93946         0.00041  21900552.20046  21900549.74749
  -5926246.02348  -4617850.60344         0.00041  24089492.00844  24089485.86648
  -7544130.58749  -5878540.17647         0.00041  20196245.29147  20196242.41349
  -8129020.27348  -6334297.29945         0.00041  23475476.46245  23475474.44248
 97 06 27 17 04 00.0000000  0  8 04 05 06 07 09 10 24 30
   3344364.55249   2605999.40346         0.00041  21244810.44146  21244808.76849
 -11915429.48649  -9284748.37346         0.00041  20962165.90246  20962163.56349
  -1668727.68548         0.00041         0.00041         0.00041  25179103.22148
  10970817.10748   8548682.42644         0.00041  23856655.98744  23856651.05648
   3503544.25649   2730031.94646         0.00041  21912356.91346  21912354.20349
  -6022462.47448  -4692824.31644         0.00041  24071182.93844  24071176.32448
  -7546622.61249  -5880482.01147         0.00041  20195770.40247  20195767.90849
  -8225776.27748  -6409691.56845         0.00041  23457063.40645  23457062.21948
 97 06 27 17 04 30.0000000  0  8 04 05 06 07 09 10 24 30
   3407030.25449   2654829.80746         0.00041  21256735.53646  21256733.44349
 -11971436.59249  -9328390.26946         0.00041  20951508.09446  20951505.76849
  -1740731.53948  -1356413.72741         0.00041         0.00041  25165401.46948
  11039576.99848   8602261.47944         0.00041  23869740.66444  23869736.24948
   3565982.04349   2778684.72746         0.00041  21924238.32346  21924235.50549
  -6118658.76048  -4767782.33744         0.00041  24052878.49344  24052870.76048
  -7548580.92549  -5882007.96547         0.00041  20195398.24447  20195395.42649
  -8322455.81048  -6485026.23045         0.00041  23438666.14645  23438664.50148
 97 06 27 17 05 00.0000000  0  8 04 05 06 07 09 10 24 30
   3470130.02849   2703998.45046         0.00041  21268742.75546  21268740.81149
 -12027109.07249  -9371771.41346         0.00041  20940913.80546  20940911.51949
  -1812660.56548  -1412462.26441         0.00041         0.00041  25151713.79548
  11108370.50448   8655866.71744         0.00041  23882832.73044  23882827.85848
   3628819.39049   2827648.85946         0.00041  21936195.99846  21936193.17749
  -6214838.03548  -4842727.06244         0.00041  24034575.07244  24034567.71148
  -7550003.77449  -5883116.67647         0.00041  20195127.22647  20195124.57449
  -8419050.47048  -6560294.75845         0.00041  23420286.18145  23420282.96748
 97 06 27 17 05 30.0000000  0  8 04 05 06 07 09 10 24 30
   3533636.04349   2753483.64346         0.00041  21280827.82946  21280825.68349
 -12082474.53549  -9414913.32746         0.00041  20930378.21346  20930375.84849
  -1884538.51348  -1468471.04041         0.00041         0.00041  25138035.47748
  11177174.09148   8709479.83944         0.00041  23895925.17444  23895920.83448
   3692028.09749   2876902.36446         0.00041  21948224.22446  21948221.48449
  -6311018.65048  -4917672.87844         0.00041  24016271.51644  24016265.11048
  -7550907.79649  -5883821.10447         0.00041  20194955.30747  20194952.52449
  -8515591.45148  -6635521.45445         0.00041  23401914.69445  23401911.66048
 97 06 27 17 06 00.0000000  0  8 04 05 06 07 09 10 24 30
   3597536.69949   2803276.34246         0.00041  21292987.69846  21292985.66849
 -12137536.96749  -9457819.11746         0.00041  20919900.26446  20919897.97649
  -1956374.59948  -1524447.20144         0.00041  25124370.54544  25124367.33648
  11245998.54848   8763109.20044         0.00041  23909020.97744  23909017.98348
   3755589.44749   2926430.66746         0.00041  21960319.47546  21960317.08349
  -6407219.55848  -4992634.50944         0.00041  23997963.55444  23997958.80148
  -7551285.77149  -5884115.62947         0.00041  20194883.31447  20194880.67249
  -8612074.02448  -6710702.62845         0.00041  23383553.07645  23383551.57948
 97 06 27 17 06 30.0000000  0  8 04 05 06 07 09 10 24 30
   3661802.95549   2853353.92846         0.00041  21305217.25746  21305215.19849
 -12192308.00649  -9500497.84646         0.00041  20909477.73646  20909475.52349
  -2028203.31048  -1580417.58044         0.00041  25110703.88344  25110697.94148
  11314833.28248   8816746.63644         0.00041  23922118.63444  23922116.80448
   3819494.99249   2976227.16346         0.00041  21972480.51746  21972477.96049
  -6503456.02448  -5067623.79944         0.00041  23979653.51144  23979645.71648
  -7551153.97949  -5884012.93347         0.00041  20194908.41547  20194905.83049
  -8708513.16648  -6785849.96845         0.00041  23365202.18345  23365200.14248
 97 06 27 17 07 00.0000000  0  8 04 05 06 07 09 10 24 30
   3726443.69749   2903723.31946         0.00041  21317517.87046  21317516.05849
 -12246760.16749  -9542928.10246         0.00041  20899115.68246  20899113.66649
  -2100027.23948  -1636384.29441         0.00041         0.00041  25097030.87948
  11383684.98148   8870397.20144         0.00041  23935222.63044  23935219.15548
   3883775.49849   3026315.82246         0.00041  21984712.53546  21984710.15849
  -6599707.22948  -5142624.54644         0.00041  23961337.68044  23961329.48948
  -7550516.61049  -5883516.27947         0.00041  20195029.92047  20195027.12149
  -8804881.60648  -6860942.22645         0.00041  23346863.87745  23346862.20248
 97 06 27 17 07 30.0000000  0  8 04 05 06 07 09 10 24 30
   3791460.91949   2954386.07246         0.00041  21329890.31946  21329888.32649
 -12300850.90949  -9585076.73846         0.00041  20888822.55846  20888820.55149
  -2171821.95548  -1692328.23244         0.00041  25083368.38544  25083368.24748
  11452569.73848   8924073.59844         0.00041  23948329.18544  23948327.40548
   3948452.43349   3076713.37846         0.00041  21997020.64646  21997017.85149
  -6695948.72248  -5217617.45844         0.00041  23943017.69844  23943015.07448
  -7549364.12749  -5882618.23947         0.00041  20195249.25547  20195246.44049
  -8901155.30748  -6935960.65445         0.00041  23328543.85845  23328541.91548
 97 06 27 17 08 00.0000000  0  8 04 05 06 07 09 10 24 30
   3856870.07149   3005354.22946         0.00041  21342337.10446  21342335.07249
 -12354555.16149  -9626924.20046         0.00041  20878602.87146  20878600.77749
  -2243553.44448  -1748222.85944         0.00041  25069723.49744  25069718.38248
  11521497.05648   8977783.15744         0.00041  23961444.26044  23961443.35948
   4013548.03149   3127437.17646         0.00041  22009408.12646  22009405.40149
  -6792157.91748  -5292585.94244         0.00041  23924717.20744  23924707.52748
  -7547688.78449  -5881312.77647         0.00041  20195567.86547  20195565.18049
  -8997303.59048  -7010881.36045         0.00041  23310246.83045  23310245.44848
 97 06 27 17 08 30.0000000  0  8 04 05 06 07 09 10 24 30
   3922710.99749   3056658.83446         0.00041  21354866.27546  21354864.25749
 -12407833.83149  -9668440.04146         0.00041  20868464.34546  20868462.29849
  -2315160.46648  -1804020.54944         0.00041  25056096.43044  25056091.44648
  11590509.76248   9031559.19144         0.00041  23974581.63944  23974575.23648
   4079124.96049   3178536.04846         0.00041  22021886.86246  22021883.89249
  -6888264.10848  -5367473.74744         0.00041  23906425.41744  23906419.23448
  -7545444.70449  -5879564.13947         0.00041  20195994.87747  20195992.03049
  -9093271.30748  -7085661.37445         0.00041  23291985.18845  23291983.39448
 97 06 27 17 09 00.0000000  0  8 04 05 06 07 09 10 24 30
   3989021.52249   3108329.35046         0.00041  21367484.64246  21367482.69249
 -12460668.11949  -9709609.61346         0.00041  20858410.41146  20858408.31149
  -2386607.42048  -1859693.49044         0.00041  25042504.01244  25042495.82148
  11659637.46148   9085424.74344         0.00041  23987736.22844  23987730.32348
   4145193.07149   3230017.64446         0.00041  22034458.63446  22034456.36849
  -6984233.15748  -5442254.65244         0.00041  23888163.22244  23888156.57148
  -7542600.48749  -5877347.86347         0.00041  20196536.10547  20196533.26949
  -9189028.14248  -7160277.04745         0.00041  23273763.72945  23273761.85948
 97 06 27 17 09 30.0000000  0  8 04 05 06 07 09 10 24 30
   4055708.90449   3160293.53046         0.00041  21380174.90746  21380172.93449
 -12513170.97949  -9750520.92446         0.00041  20848419.37646  20848417.11649
  -2457983.09348  -1915310.93844         0.00041  25028917.61444  25028913.97148
  11728778.33648   9139300.58544         0.00041  24000895.34844  24000887.99748
   4211650.34949   3281802.48946         0.00041  22047105.32046  22047102.92049
  -7080162.39548  -5517004.57344         0.00041  23869906.25744  23869901.31948
  -7539236.64349  -5874726.68147         0.00041  20197176.61347  20197173.53149
  -9284670.49648  -7234803.52245         0.00041  23255563.12845  23255561.49648
 97 06 27 17 10 00.0000000  0  8 04 05 06 07 09 10 24 30
   4122719.81549   3212509.80646         0.00041  21392926.79146  21392924.79549
 -12565426.83849  -9791239.77446         0.00041  20838475.52446  20838473.54449
  -2529362.57648  -1970931.31644         0.00041  25015333.87644  25015330.57348
  11797867.74648         0.00041         0.00041         0.00041  24014035.58248
   4278430.57149   3333838.97346         0.00041  22059813.56146  22059810.72949
  -7176120.27848  -5591776.79044         0.00041  23851647.42044  23851641.65848
  -7535410.40849  -5871745.19747         0.00041  20197904.79047  20197901.75449
  -9380264.24748  -7309292.12845         0.00041  23237372.22145  23237370.46048
 97 06 27 17 10 30.0000000  0  8 04 05 06 07 09 10 24 30
   4190064.78449   3264986.38746         0.00041  21405741.77646  21405740.03649
 -12617411.57149  -9831747.36046         0.00041  20828582.94446  20828580.90149
  -2600751.01748  -2026558.67644         0.00041  25001751.84344  25001746.04148
  11866926.69148   9246948.54341         0.00041         0.00041  24027177.44048
   4345535.80948   3386128.72846         0.00041  22072582.73146  22072579.98448
  -7272096.44248  -5666563.25844         0.00041  23833384.10544  23833377.96248
  -7531099.51449  -5868386.05647         0.00041  20198724.80747  20198722.09249
  -9475799.04348  -7383734.81445         0.00041  23219192.47645  23219190.77148
 97 06 27 17 11 00.0000000  0  8 04 05 06 07 09 10 24 30
   4257633.58049   3317637.37646         0.00041  21418599.90546  21418597.97749
 -12669226.10549  -9872122.32446         0.00041  20818723.05046  20818720.91349
  -2672266.27548  -2082284.84444         0.00041  24988143.26944  24988136.72948
  11935847.61848         0.00041         0.00041         0.00041  24040292.44448
   4412844.45449   3438576.97646         0.00041  22085390.93546  22085388.51349
  -7368209.26948  -5741456.23244         0.00041  23815092.09744  23815088.01748
  -7526412.52949  -5864733.85447         0.00041  20199616.76447  20199614.07749
  -9571383.83348  -7458216.45745         0.00041  23201003.11245  23201001.60848
 97 06 27 17 11 30.0000000  0  8 04 05 06 07 09 10 24 30
   4325539.84649   3370551.32746         0.00041  21431522.30846  21431520.37749
 -12720731.83549  -9912256.66546         0.00041  20808921.85746  20808919.85049
  -2743774.14648  -2138005.25241         0.00041         0.00041  24974529.48448
  12004772.74848         0.00041         0.00041         0.00041  24053408.81148
   4480506.76848   3491300.80946         0.00041  22098266.77846  22098264.33948
  -7464324.23848  -5816350.87944         0.00041  23796805.17744  23796797.28348
  -7521226.44849  -5860692.74747         0.00041  20200603.65547  20200600.90649
  -9666873.18848  -7532623.71745         0.00041  23182832.37545  23182829.98348
 97 06 27 17 12 00.0000000  0  8 04 05 06 07 09 10 24 30
   4393805.71949   3423745.49346         0.00041  21444513.02546  21444510.96949
 -12771880.70749  -9952112.92946         0.00041  20799188.23646  20799186.40149
  -2815243.79948  -2193695.89041         0.00041         0.00041  24960928.57548
  12073750.09648   9408110.18344         0.00041  24066539.60144  24066535.39248
   4548541.48549   3544314.83146         0.00041  22111213.44646  22111211.05849
  -7560399.52848  -5891214.59644         0.00041  23778521.29244  23778514.86148
  -7515519.73949  -5856245.95647         0.00041  20201689.45647  20201686.80149
  -9762238.19448  -7606934.08545         0.00041  23164684.71345  23164682.42948
 97 06 27 17 12 30.0000000  0  8 04 05 06 07 09 10 24 30
   4462430.50649   3477219.33646         0.00041  21457571.59246  21457569.66049
 -12822663.62849  -9991684.03746         0.00041  20789524.64846  20789522.72449
  -2886670.90748  -2249353.45941         0.00041         0.00041  24947336.41348
  12142786.82048   9461911.56846         0.00041  24079673.15946  24079671.30248
   4616948.65148   3597619.07146         0.00041  22124231.09846  22124228.45448
  -7656427.16748  -5966041.16844         0.00041  23760245.34944  23760241.86648
  -7509293.79149  -5851394.56347         0.00041  20202874.11447  20202871.68349
  -9857472.79548  -7681142.82245         0.00041  23146562.52145  23146559.39148
 97 06 27 17 13 00.0000000  0  8 04 05 06 07 09 10 24 30
   4531448.93849   3530999.90946         0.00041  21470705.77646  21470703.68249
 -12873066.78849 -10030959.22346         0.00041  20779933.31046  20779931.40649
  -2958011.53948  -2304943.53741         0.00041         0.00041  24933760.94648
  12211902.48048   9515779.13446         0.00041  24092826.34846  24092824.07848
   4685753.10848   3651232.89346         0.00041  22137324.46546  22137321.64048
  -7752375.69948  -6040806.14844         0.00041  23741989.79044  23741983.36848
  -7502536.48749  -5846129.12547         0.00041  20204160.14047  20204157.59449
  -9952551.26848  -7755229.92445         0.00041  23128468.75545  23128467.28848
 97 06 27 17 13 30.0000000  0  8 04 05 06 07 09 10 24 30
   4600871.11349   3585095.09146         0.00041  21483916.35246  21483914.15249
 -12923076.10249 -10069927.51646         0.00041  20770416.90346  20770414.93449
  -3029250.63448  -2360454.47541         0.00041         0.00041  24920204.29848
  12281096.86048   9569689.75446         0.00041  24105994.48046  24105991.79948
   4754952.56848   3705154.50946         0.00041  22150492.56946  22150489.72448
  -7848235.80948  -6115502.23044         0.00041  23723745.66344  23723740.88848
  -7495249.89149  -5840451.25547         0.00041  20205546.57947  20205544.05749
 -10047477.29048  -7829198.23045         0.00041  23110405.58445  23110403.57948
 97 06 27 17 14 00.0000000  0  8 04 05 06 07 09 10 24 30
   4670685.94049   3639496.24046         0.00041  21497201.67046  21497199.44249
 -12972706.32149 -10108600.41446         0.00041  20760972.64446  20760970.65849
  -3100416.76348  -2415908.62841         0.00041         0.00041  24906662.19048
  12350332.12348   9623635.36344         0.00041  24119167.53544  24119166.97348
   4824503.15448   3759349.71646         0.00041  22163727.87646  22163724.93848
  -7944025.65148  -6190143.52644         0.00041  23705519.53944  23705512.76048
  -7487443.71449  -5834368.52047         0.00041  20207032.03047  20207029.60449
 -10142287.49948  -7903076.31345         0.00041  23092364.21845  23092361.61448
 97 06 27 17 14 30.0000000  0  7 04 05 06 09 10 24 30
   4740849.84649   3694169.38946         0.00041  21510553.63546  21510551.42149
 -13022009.76649 -10147018.68246         0.00041  20751590.57346  20751588.64849
  -3171552.58848  -2471339.12144         0.00041  24893129.09544  24893126.00448
   4894362.98348   3813785.90046         0.00041  22177021.77646  22177018.89148
  -8039786.83848  -6264762.53044         0.00041  23687296.55144  23687290.62748
  -7479164.14149  -5827916.90547         0.00041  20208607.65347  20208605.35249
 -10237017.00048  -7976891.47845         0.00041  23074338.18045  23074335.29748
 97 06 27 17 15 00.0000000  0  7 04 05 06 09 10 24 30
   4811403.87249   3749146.53246         0.00041  21523979.16446  21523977.48349
 -13070915.51449 -10185127.05746         0.00041  20742284.23146  20742282.22549
  -3242595.79748  -2526697.45041         0.00041         0.00041  24879606.12448
   4964580.90848   3868501.11446         0.00041  22190384.15846  22190381.26148
  -8135447.12448  -6339302.89244         0.00041  23669092.72944  23669086.80948
  -7470360.51049  -5821056.93247         0.00041  20210282.99347  20210280.47949
 -10331601.97948  -8050594.01745         0.00041  23056338.23145  23056336.24048
 97 06 27 17 15 30.0000000  0  8 04 05 06 07 09 10 24 30
   4882263.27049   3804361.62546         0.00041  21537463.59046  21537461.77049
 -13119476.95449 -10222967.14346         0.00041  20733043.06546  20733041.11749
  -3313636.64248  -2582053.96244         0.00041  24866091.55944  24866087.99548
        -0.65458         0.00051         0.00051         0.00051  24158701.15558
   5035094.34448   3923446.60446         0.00041  22203801.92046  22203799.21748
  -8231064.40348  -6413809.76744         0.00041  23650896.75944  23650891.20548
  -7461085.56349  -5813829.69847         0.00041  20212047.94647  20212045.49549
 -10426098.90648  -8124227.94545         0.00041  23038356.18545  23038354.31148
 97 06 27 17 16 00.0000000  0  8 04 05 06 07 09 10 24 30
   4953406.85049   3859798.16246         0.00041  21551001.47346  21550999.77949
 -13167719.19149 -10260558.49646         0.00041  20723862.84846  20723861.11649
  -3384712.28248  -2637437.55044         0.00041  24852566.18144  24852563.10148
     69241.15348     53954.80241         0.00041         0.00041  24171877.16948
   5105882.07748   3978605.82846         0.00041  22217272.75946  22217269.96448
  -8326644.37248  -6488287.55644         0.00041  23632709.37944  23632702.26548
  -7451348.98849  -5806242.75747         0.00041  20213900.80247  20213898.02149
 -10520516.05548  -8197799.72745         0.00041  23020389.05645  23020387.70848
 97 06 27 17 16 30.0000000  0  8 04 05 06 07 09 10 24 30
   5024925.52449   3915526.97946         0.00041  21564611.23746  21564609.22449
 -13215553.83149 -10297832.24646         0.00041  20714760.33446  20714758.44949
  -3455723.11248  -2692770.64944         0.00041  24839053.78244  24839049.89648
    138558.61848    107968.37044         0.00041  24185074.92444  24185067.84848
   5177034.66148   4034049.35446         0.00041  22230812.63546  22230809.85848
  -8422100.21248  -6562668.64944         0.00041  23614545.12944  23614538.36348
  -7441071.02149  -5798233.94947         0.00041  20215856.67247  20215854.06049
 -10614760.96948  -8271237.30945         0.00041  23002455.12845  23002453.09148
 97 06 27 17 17 00.0000000  0  8 04 05 06 07 09 10 24 30
   5096840.55749   3971564.64446         0.00041  21578296.05846  21578294.25249
 -13262946.11449 -10334761.29846         0.00041  20705741.81546  20705739.79549
  -3526645.09548  -2748034.51244         0.00041  24825557.17944  24825553.57748
    207968.00248    162053.45244         0.00041  24198280.87144  24198276.25948
   5248568.82948   4089790.22046         0.00041  22244425.08346  22244422.20248
  -8517409.95248  -6636935.88944         0.00041  23596405.34844  23596401.61848
  -7430215.55349  -5789775.14447         0.00041  20217922.48147  20217919.57149
 -10708822.20848  -8344531.75345         0.00041  22984556.20745  22984553.56548
 97 06 27 17 17 30.0000000  0  8 04 05 06 07 09 10 24 30
   5169098.22949   4027869.30246         0.00041  21592046.40346  21592044.42549
 -13309968.08649 -10371401.80046         0.00041  20696793.73546  20696791.97749
  -3597552.56348  -2803287.03844         0.00041  24812063.76544  24812060.03648
    277390.66848    216148.89844         0.00041  24211490.07644  24211487.68648
   5320415.16648   4145774.33046         0.00041  22258097.23746  22258094.12948
  -8612649.23448  -6711148.24844         0.00041  23578282.87044  23578277.80548
  -7418845.73549  -5780915.54747         0.00041  20220086.16947  20220083.30449
 -10802781.95048  -8417747.08646         0.00041  22966675.28146  22966673.85248
 97 06 27 17 18 00.0000000  0  8 04 05 06 07 09 10 24 30
   5241688.60349   4084433.21246         0.00041  21605859.64746  21605857.55049
 -13356646.83449 -10407774.85346         0.00041  20687911.19046  20687909.12849
  -3668453.86048  -2858534.76744         0.00041  24798574.41744  24798567.35748
    346794.33548    270229.56444         0.00041  24224699.01744  24224694.85648
   5392549.83248   4201983.09846         0.00041  22271824.33946  22271820.91548
  -8707846.39348  -6785327.75944         0.00041  23560168.82944  23560162.16448
  -7407000.10449  -5771685.18747         0.00041  20222340.28247  20222337.39949
 -10896667.50648  -8490904.62946         0.00041  22948809.77146  22948808.00848
 97 06 27 17 18 30.0000000  0  8 04 05 06 07 09 10 24 30
   5314636.13549   4141275.42846         0.00041  21619741.29546  21619739.04449
 -13402934.48449 -10443843.15146         0.00041  20679103.11846  20679100.97549
  -3739292.43748  -2913733.63244         0.00041  24785092.60144  24785088.11748
    416207.68948    324317.79644         0.00041  24237906.63444  24237903.90648
   5465022.74848   4258455.43946         0.00041  22285615.20046  22285611.90848
  -8802968.60448  -6859448.88644         0.00041  23542066.21644  23542060.57548
  -7394651.84849  -5762063.17147         0.00041  20224689.99747  20224687.06349
 -10990425.14648  -8563962.50846         0.00041  22930968.68546  22930966.32648
 97 06 27 17 19 00.0000000  0  8 04 05 06 07 09 10 24 30
   5387920.37649   4198380.01546         0.00041  21633686.74246  21633684.72249
 -13448840.81349 -10479614.32046         0.00041  20670367.65446  20670365.36049
  -3810084.63048  -2968896.36244         0.00041  24771622.28744  24771617.38648
    485632.56148    378415.05244         0.00041  24251118.33344  24251115.52048
   5537830.46348   4315188.67746         0.00041  22299470.23746  22299466.90948
  -8898016.54548  -6933512.12744         0.00041  23523979.74144  23523974.22748
  -7381808.05149  -5752055.01947         0.00041  20227133.98447  20227131.32549
 -11084047.89748  -8636915.25646         0.00041  22913152.48546  22913150.49748
 97 06 27 17 19 30.0000000  0  8 04 05 06 07 09 10 24 30
   5461572.43849   4255771.21746         0.00041  21647702.39446  21647700.24749
 -13494337.65249 -10515066.40446         0.00041  20661709.65446  20661707.38149
  -3880792.02548  -3023992.98844         0.00041  24758166.07444  24758162.14248
    555124.73148    432564.70641         0.00041         0.00041  24264338.50948
   5611018.04548   4372217.91446         0.00041  22313397.22946  22313394.04548
  -8992953.83948  -7007489.17345         0.00041  23505911.81245  23505908.16248
  -7368447.88349  -5741644.49947         0.00041  20229676.46547  20229673.88349
 -11177481.12948  -8709720.33146         0.00041  22895373.24746  22895370.93048
 97 06 27 17 20 00.0000000  0  8 04 05 06 07 09 10 24 30
   5535633.06449   4313480.77546         0.00041  21661795.73046  21661793.70049
 -13539373.69349 -10550159.42246         0.00041  20653139.46846  20653137.14849
  -3951350.77048  -3078973.82544         0.00041  24744740.99644  24744734.93148
    624750.83448    486818.75641         0.00041         0.00041  24277588.33648
   5684640.83748   4429586.27846         0.00041  22327407.24646  22327403.91048
  -9087717.05948  -7081330.56945         0.00041  23487879.52645  23487875.18048
  -7354515.40249  -5730788.02047         0.00041  20232327.44747  20232325.11249
 -11270649.99548  -8782319.40746         0.00041  22877643.24646  22877641.69748
 97 06 27 17 20 30.0000000  0  8 04 05 06 07 09 10 24 30
   5610086.75849   4371496.62346         0.00041  21675963.46646  21675962.14249
 -13583947.80449 -10584892.49646         0.00041  20644657.32546  20644655.36749
  -4021771.19748  -3133846.86344         0.00041  24731340.43944  24731334.27648
    694518.27248    541182.91941         0.00041         0.00041  24290865.61948
   5758680.82948   4487279.73246         0.00041  22341496.79946  22341493.45548
  -9182303.02248  -7155033.82645         0.00041  23469880.58445  23469875.86748
  -7339999.05649  -5719476.58347         0.00041  20235090.11047  20235087.51049
 -11363565.12148  -8854720.78746         0.00041  22859962.33246  22859960.44148
 97 06 27 17 21 00.0000000  0  8 04 05 06 07 09 10 24 30
   5684881.82849   4429778.48046         0.00041  21690196.62046  21690194.95449
 -13628127.07449 -10619317.90246         0.00041  20636250.68746  20636248.35249
  -4092129.53248  -3188671.53044         0.00041  24717950.46144  24717945.64048
    764371.02748    595613.59541         0.00041         0.00041  24304157.66148
   5833073.34048   4545247.88446         0.00041  22355653.06746  22355650.00348
  -9276768.56348  -7228643.27245         0.00041  23451905.50745  23451899.27748
  -7324956.45849  -5707755.07947         0.00041  20237952.67147  20237950.07249
 -11456307.11448  -8926987.24446         0.00041  22842312.57046  22842312.05248
 97 06 27 17 21 30.0000000  0  8 04 05 06 07 09 10 24 30
   5759932.37349   4488259.40446         0.00041  21704478.42146  21704476.61849
 -13671984.19049 -10653492.28146         0.00041  20627904.68646  20627902.56149
  -4162520.62648  -3243521.71344         0.00041  24704553.51144  24704550.39248
    834206.52248         0.00041         0.00041         0.00041  24317446.91348
   5907734.99648   4603425.75946         0.00041  22369860.95646  22369857.76648
  -9371193.36748  -7302220.98045         0.00041  23433935.55645  23433930.57148
  -7309473.27449  -5695690.26247         0.00041  20240898.76447  20240896.36649
 -11548956.24648  -8999181.34545         0.00041  22824682.69345  22824681.41148
 97 06 27 17 22 00.0000000  0  8 04 05 06 07 09 10 24 30
   5835157.25849   4546876.17546         0.00041  21718793.51946  21718791.69449
 -13715584.78349 -10687466.77246         0.00041  20619607.83846  20619605.78249
  -4233027.60048  -3298462.17044         0.00041  24691141.23744  24691133.44148
    903933.09348         0.00041         0.00041         0.00041  24330714.72148
   5982581.65948   4661747.79446         0.00041  22384103.66946  22384100.48348
  -9465644.49248  -7375819.19145         0.00041  23415962.21345  23415957.06548
  -7293623.15549  -5683339.52547         0.00041  20243915.09747  20243912.55949
 -11641587.41048  -9071361.43245         0.00041  22807056.14345  22807054.17948
 97 06 27 17 22 30.0000000  0  8 04 05 06 07 09 10 24 30
   5910564.54549   4605635.08646         0.00041  21733142.26746  21733140.84249
 -13758916.12449 -10721231.45946         0.00041  20611361.98646  20611359.91149
  -4303645.94248  -3353489.49544         0.00041  24677703.07844  24677695.41048
    973558.07848    758616.28141         0.00041         0.00041  24343963.55548
   6057621.13448   4720220.06546         0.00041  22398383.36246  22398380.28548
  -9560109.99648  -7449428.60245         0.00041  23397985.96745  23397981.06948
  -7277408.07949  -5670704.40847         0.00041  20247000.54447  20246998.11949
 -11734186.81748  -9143516.78546         0.00041  22789434.81146  22789432.93148
 97 06 27 17 23 00.0000000  0  8 04 05 06 07 09 10 24 30
   5986240.02049   4664602.95846         0.00041  21747543.05646  21747541.18849
 -13801891.87849 -10754719.06446         0.00041  20603184.07746  20603181.80949
  -4374284.71648  -3408532.66744         0.00041  24664258.05244  24664253.37548
   1043158.38848    812850.20044         0.00041  24357214.92644  24357208.41748
   6132931.09148   4778903.10446         0.00041  22412714.51646  22412711.32148
  -9654501.91548  -7522980.67845         0.00041  23380024.69945  23380018.90448
  -7260764.15849  -5657735.12647         0.00041  20250167.90347  20250165.31949
 -11826646.47448  -9215563.25346         0.00041  22771839.91346  22771838.42548
 97 06 27 17 23 30.0000000  0  8 04 05 06 07 09 10 24 30
   6062187.96849   4723783.16146         0.00041  21761995.50346  21761993.93349
 -13844493.53349 -10787915.16146         0.00041  20595077.43946  20595075.20349
  -4444915.51548  -3463569.62744         0.00041  24650817.52444  24650812.44348
   1112746.13248    867074.40441         0.00041         0.00041  24370450.51048
   6208501.31848   4837788.94946         0.00041  22427094.87246  22427091.77548
  -9748802.58148  -7596461.64745         0.00041  23362080.95245  23362074.23548
  -7243677.44449  -5644420.80847         0.00041  20253419.44947  20253416.91349
 -11918944.79248  -9287483.98645         0.00041  22754276.40745  22754274.53248
 97 06 27 17 24 00.0000000  0  8 04 05 06 07 09 10 24 30
   6138420.02649   4783184.74046         0.00041  21776502.41846  21776500.34249
 -13886723.45149 -10820821.59146         0.00041  20587041.22646  20587039.09749
  -4515511.26748  -3518579.28644         0.00041  24637383.65844  24637378.94748
   1182344.13748    921306.47844         0.00041  24383700.87844  24383695.23148
   6284327.99248   4896874.61946         0.00041  22441524.38846  22441521.22248
  -9843006.46548  -7669867.17145         0.00041  23344152.03945  23344148.05548
  -7226138.99749  -5630754.49047         0.00041  20256756.99547  20256754.16549
 -12011083.68348  -9359280.48545         0.00041  22736741.45445  22736740.90448
 97 06 27 17 24 30.0000000  0  8 04 05 06 07 09 10 24 30
   6214969.90249   4842833.96346         0.00041  21791069.21246  21791067.29749
 -13928554.58249 -10853417.28246         0.00041  20579080.82746  20579078.81449
  -4586050.75348  -3573545.08144         0.00041  24623957.72544  24623955.62248
   1251983.86348    975571.12844         0.00041  24396950.43744  24396947.22948
   6360427.03848   4956172.53046         0.00041  22456005.67746  22456002.75848
  -9937092.58448  -7743180.97145         0.00041  23326247.26745  23326243.66448
  -7208119.25349  -5616713.13447         0.00041  20260185.82347  20260183.14549
 -12103034.24748  -9430930.25445         0.00041  22719244.83445  22719243.74148
 97 06 27 17 25 00.0000000  0  8 04 05 06 07 09 10 24 30
   6291870.54348   4902756.51346         0.00041  21805703.24246  21805701.04948
 -13969957.36149 -10885679.18746         0.00041  20571202.28646  20571200.20349
  -4656502.88248  -3628442.79144         0.00041  24610552.34544  24610548.55548
   1321688.04548   1029886.05544         0.00041  24410219.91344  24410211.72248
   6436829.44448   5015706.83246         0.00041  22470544.63146  22470541.34348
 -10031034.94748  -7816382.75545         0.00041  23308370.82845  23308366.45548
  -7189588.54749  -5602273.62647         0.00041  20263712.21847  20263709.47949
 -12194773.92948  -9502415.69045         0.00041  22701787.09145  22701786.18748
 97 06 27 17 25 30.0000000  0  8 04 05 06 07 09 10 24 30
   6369200.21048   4963013.36746         0.00041  21820418.39046  21820416.42248
 -14010843.91149 -10917538.84446         0.00041  20563421.89946  20563419.81049
  -4726771.60748  -3683197.65944         0.00041  24597180.42044  24597178.19648
   1391545.90948   1084320.71844         0.00041  24423512.79344  24423506.08048
   6513637.52048   5075557.21846         0.00041  22485160.14246  22485157.17248
 -10124734.00448  -7889394.93745         0.00041  23290541.03945  23290535.90748
  -7170445.62249  -5587357.06347         0.00041  20267354.93547  20267352.38449
 -12286224.37648  -9573675.75145         0.00041  22684385.70045  22684383.47948
 97 06 27 17 26 00.0000000  0  8 04 05 06 07 09 10 24 30
   6446849.82448   5023519.53946         0.00041  21835194.40346  21835192.26548
 -14051311.09049 -10949071.71546         0.00041  20555721.29746  20555718.94349
  -4796974.30248  -3737901.07344         0.00041  24583822.95544  24583817.98948
   1461448.24248   1138790.00344         0.00041  24436811.85144  24436807.21648
   6590748.67348   5135643.79446         0.00041  22499834.39746  22499831.20248
 -10218291.21848  -7962296.61345         0.00041  23272737.92645  23272732.93748
  -7150809.75849  -5572056.39447         0.00041  20271091.65747  20271088.88149
 -12377487.50348  -9644789.85246         0.00041  22667017.96946  22667016.89548
 97 06 27 17 26 30.0000000  0  8 04 05 06 07 09 10 24 30
   6524686.32848   5084171.32946         0.00041  21850006.18746  21850004.28248
 -14091475.40849 -10980368.58446         0.00041  20548078.13546  20548076.22749
  -4867248.55548  -3792660.22341         0.00041         0.00041  24570445.21948
   1531256.81948   1193186.25744         0.00041  24450095.88744  24450091.87048
   6668028.10148   5195861.47446         0.00041  22514540.17246  22514537.15748
 -10311834.37048  -8035187.32245         0.00041  23254937.38845  23254932.55248
  -7130815.31449  -5556476.31247         0.00041  20274896.25847  20274893.73049
 -12468689.81148  -9715856.55546         0.00041  22649663.04446  22649661.72248
 97 06 27 17 27 00.0000000  0  8 04 05 06 07 09 10 24 30
   6602744.38748   5144995.77246         0.00041  21864860.01246  21864858.24948
 -14131292.24549 -11011394.69147         0.00041  20540501.22247  20540499.21349
  -4937538.68248  -3847431.75044         0.00041  24557075.01144  24557069.93848
   1601013.40548   1247541.97744         0.00041  24463370.09444  24463365.77048
   6745521.79948   5256246.12346         0.00041  22529286.66746  22529283.53948
 -10405311.37448  -8108026.50045         0.00041  23237150.47945  23237144.55448
  -7110413.17449  -5540578.54247         0.00041  20278778.84547  20278776.16249
 -12559798.64048  -9786850.40946         0.00041  22632325.83446  22632324.56548
 97 06 27 17 27 30.0000000  0  8 04 05 06 07 09 10 24 30
   6681013.26648   5205984.47946         0.00041  21879754.49446  21879752.41848
 -14170747.21349 -11042138.81647         0.00041  20532993.19947  20532990.98549
  -5007850.97048  -3902220.50844         0.00041  24543694.61644  24543689.58148
   1670725.68248   1301863.14441         0.00041         0.00041  24476631.65848
   6823218.24948   5316788.77046         0.00041  22544071.31046  22544068.44048
 -10498714.60148  -8180808.19645         0.00041  23219375.10345  23219370.56548
  -7089592.23449  -5524354.43747         0.00041  20282740.93147  20282738.09049
 -12650811.66348  -9857769.62746         0.00041  22615005.62846  22615005.15248
 97 06 27 17 28 00.0000000  0  8 04 05 06 07 09 10 24 30
   6759597.00849   5267218.54146         0.00041  21894708.65546  21894706.50449
 -14209744.15149 -11072526.03647         0.00041  20525572.21947  20525570.30049
  -5078113.51248  -3956970.49044         0.00041  24530322.76444  24530319.55248
   1740493.96048   1356227.98344         0.00041  24489912.43244  24489908.70548
   6901204.99048   5377557.61546         0.00041  22558912.12646  22558908.98848
 -10591963.17448  -8253469.39045         0.00041  23201630.47745  23201625.03648
  -7068259.42149  -5507731.46747         0.00041  20286800.54647  20286797.58349
 -12741631.17448  -9928538.06146         0.00041  22597723.44746  22597722.22748
 97 06 27 17 28 30.0000000  0  8 04 05 06 07 09 10 24 30
   6838466.48048   5328675.24646         0.00041  21909717.06246  21909714.58848
 -14248320.86849 -11102585.81447         0.00041  20518231.25947  20518229.39549
  -5148358.91748  -4011707.13344         0.00041  24516957.81644  24516951.86748
   1810294.31848   1410617.77544         0.00041  24503195.36844  24503191.23848
   6979452.44248   5438529.62046         0.00041  22573802.35446  22573799.17548
 -10685081.62648  -8326029.18745         0.00041  23183910.79145  23183905.48048
  -7046441.12449  -5490730.19847         0.00041  20290952.44047  20290949.40049
 -12832290.10848  -9999181.36346         0.00041  22580471.90546  22580470.21648
 97 06 27 17 29 00.0000000  0  8 04 05 06 07 09 10 24 30
   6917571.58548   5390315.56146         0.00041  21924770.62146  21924767.76048
 -14286517.66849 -11132349.55747         0.00041  20510962.62847  20510960.86949
  -5218624.09048  -4066459.15944         0.00041  24503586.14544  24503580.86248
   1880092.76548   1465006.12744         0.00041  24516480.14244  24516473.11148
   7057924.51448   5499676.64646         0.00041  22588735.22046  22588731.89148
 -10778086.15648  -8398500.22345         0.00041  23166211.86745  23166207.16748
  -7024186.60849  -5473389.01947         0.00041  20295187.41147  20295184.46949
 -12922833.79848 -10069734.85846         0.00041  22563242.13446  22563240.63748
 97 06 27 17 29 30.0000000  0  8 04 05 06 07 09 10 24 30
   6996915.46848   5452141.93446         0.00041  21939868.98546  21939866.66548
 -14324333.11349 -11161816.14047         0.00041  20503766.54247  20503764.89749
  -5288915.45848  -4121231.59844         0.00041  24490211.16844  24490205.07648
   1949900.90548   1519402.01444         0.00041  24529763.69344  24529756.50148
   7136625.87448   5561002.33546         0.00041  22603710.87946  22603707.88748
 -10870962.84948  -8470871.63045         0.00041  23148537.99345  23148533.57348
  -7001516.17449  -5455723.75247         0.00041  20299501.49547  20299498.57449
 -13013249.95648 -10140188.98846         0.00041  22546036.66146  22546035.28148
 97 06 27 17 30 00.0000000  0  8 04 05 06 07 09 10 24 30
   7076525.58848   5514175.77146         0.00041  21955018.39146  21955016.20548
 -14361753.84749 -11190975.15247         0.00041  20496645.60947  20496643.81449
  -5359205.91848  -4176003.35544         0.00041  24476831.47044  24476828.72948
   2019738.71448   1573821.02044         0.00041  24543053.69444  24543047.19748
   7215590.80448   5622533.40846         0.00041  22618738.53446  22618734.80648
 -10963685.45748  -8543122.97045         0.00041  23130894.08945  23130889.31348
  -6978418.48649  -5437725.55747         0.00041  20303896.56647  20303893.94149
 -13103508.58248 -10210520.34646         0.00041  22528861.14946  22528859.68448
 97 06 27 17 30 30.0000000  0  8 04 05 06 07 09 10 24 30
   7156508.84948   5576500.37246         0.00041  21970238.56946  21970236.42848
 -14398658.92049 -11219732.35147         0.00041  20489622.97547  20489620.90349
  -5429356.90848  -4230666.41444         0.00041  24463483.98244  24463479.80948
   2089728.06548   1628358.11744         0.00041  24556370.88144  24556365.32948
   7294934.76248   5684359.83146         0.00041  22633837.12446  22633833.92748
 -11056123.91748  -8615152.90545         0.00041  23113303.22545  23113298.55448
  -6954769.24049  -5419297.58247         0.00041  20308396.79047  20308394.20649
 -13193485.74748 -10280632.39446         0.00041  22511738.54546  22511737.39448
 97 06 27 17 31 00.0000000  0  8 04 05 06 07 09 10 24 30
   7236808.39848   5639071.42546         0.00041  21985519.08746  21985517.04448
 -14435093.40749 -11248122.86047         0.00041  20482689.98447  20482687.73849
  -5499410.64948  -4285253.67244         0.00041  24450150.16344  24450148.51548
   2159814.21848   1682970.57744         0.00041  24569708.68144  24569702.11448
   7374613.97548   5746447.48546         0.00041  22648999.50846  22648996.06848
 -11148332.96348  -8687004.06645         0.00041  23095756.23745  23095751.54348
  -6930613.32549  -5400474.80047         0.00041  20312993.39147  20312990.97749
 -13283209.18348 -10350546.74646         0.00041  22494665.66146  22494664.01448
 97 06 27 17 31 30.0000000  0  8 04 05 06 07 09 10 24 30
   7317375.33848   5701850.82946         0.00041  22000850.51346  22000848.49648
 -14471106.08949 -11276184.69247         0.00041  20475836.84747  20475834.68049
  -5569420.11648  -4339806.48744         0.00041  24436829.92844  24436825.84548
   2229942.53748   1737615.92141         0.00041         0.00041  24583046.89648
   7454574.04748   5808753.99246         0.00041  22664215.33946  22664212.43548
 -11240390.94548  -8758737.51445         0.00041  23078238.49545  23078233.39948
  -6905983.67449  -5381282.87347         0.00041  20317680.50647  20317677.68849
 -13372700.83848 -10420280.47046         0.00041  22477635.92746  22477634.10448
 97 06 27 17 32 00.0000000  0  8 04 05 06 07 09 10 24 30
   7398197.82548   5764829.37046         0.00041  22016230.48946  22016228.36348
 -14506694.03149 -11303915.54947         0.00041  20469064.84847  20469062.45549
  -5639386.00648  -4394325.32644         0.00041  24423514.70144  24423511.50048
   2300097.00748   1792281.70341         0.00041         0.00041  24596396.98748
   7534784.56648   5871255.65846         0.00041  22679478.86446  22679475.85348
 -11332309.32048  -8830362.17345         0.00041  23060746.85145  23060741.99548
  -6880874.95349  -5361717.64247         0.00041  20322458.55847  20322455.82349
 -13461963.32948 -10489835.63746         0.00041  22460648.92146  22460647.79648
 97 06 27 17 32 30.0000000  0  8 04 05 06 07 09 10 24 30
   7479315.37548   5828037.82546         0.00041  22031666.61146  22031664.30448
 -14541807.54149 -11331276.71947         0.00041  20462382.51847  20462380.50249
  -5709255.38848  -4448768.95244         0.00041  24410220.94344  24410215.81348
   2370320.47448   1847001.23541         0.00041         0.00041  24609760.39348
   7615270.39048   5933971.83146         0.00041  22694794.86046  22694791.64348
 -11424036.69148  -8901837.99745         0.00041  23043291.91845  23043286.98048
  -6855250.70549  -5341750.70347         0.00041  20327334.76747  20327331.97249
 -13550944.96248 -10559171.95946         0.00041  22443716.61946  22443715.04748
 97 06 27 17 33 00.0000000  0  8 04 05 06 07 09 10 24 30
   7560742.66448   5891487.63246         0.00041  22047162.14146  22047159.49048
 -14576429.03949 -11358254.50647         0.00041  20455794.19947  20455792.30349
  -5779021.84348  -4503132.36644         0.00041  24396943.30344  24396939.71248
   2440622.70348   1901782.09644         0.00041  24623144.15744  24623138.79248
   7696043.89048   5996912.16846         0.00041  22710165.51246  22710162.47648
 -11515540.30348  -8973139.46545         0.00041  23025880.06445  23025874.81748
  -6829106.77849  -5321378.81547         0.00041  20332309.84647  20332306.98649
 -13639623.11748 -10628271.79846         0.00041  22426841.62446  22426839.88348
 97 06 27 17 33 30.0000000  0  8 04 05 06 07 09 10 24 30
   7642467.56148   5955169.34746         0.00041  22062713.26046  22062711.24148
 -14610567.80849 -11384856.14647         0.00041  20449298.17047  20449296.05049
  -5848704.62748  -4557430.57544         0.00041  24383682.76144  24383679.52748
   2510995.32148         0.00041         0.00041         0.00041  24636529.97548
   7777080.59048   6060057.60346         0.00041  22725586.43646  22725583.33648
 -11606823.00348  -9044268.78845         0.00041  23008507.89245  23008503.90548
  -6802457.93349  -5300613.48747         0.00041  20337380.79347  20337378.02549
 -13728034.74448 -10697163.96146         0.00041  22410017.41446  22410015.25148
 97 06 27 17 34 00.0000000  0  8 04 05 06 07 09 10 24 30
   7724414.72848   6019024.25246         0.00041  22078307.69346  22078305.38548
 -14644293.75949 -11411136.11347         0.00041  20442880.25047  20442878.24249
  -5918375.30848  -4611719.37844         0.00041  24370427.21544  24370421.38548
   2581375.91048   2011459.70044         0.00041  24649927.17944  24649923.72948
   7858317.33548   6123358.91546         0.00041  22741045.28446  22741042.08248
 -11697920.28648  -9115253.63245         0.00041  22991173.18545  22991168.43248
  -6775387.60749  -5279519.73347         0.00041  20342532.30047  20342529.27349
 -13816261.23348 -10765911.84446         0.00041  22393229.18446  22393226.44748
 97 06 27 17 34 30.0000000  0  8 04 05 06 07 09 10 24 30
   7806588.50148   6083055.74646         0.00041  22093944.84246  22093942.59748
 -14677602.02249 -11437090.61047         0.00041  20436541.86447  20436539.85049
  -5988026.82948  -4665993.26144         0.00041  24357172.94144  24357168.00748
   2651776.77748         0.00041         0.00041         0.00041  24663319.46648
   7939784.54048   6186839.80646         0.00041  22756548.17946  22756545.01248
 -11788810.47548  -9186077.10945         0.00041  22973877.71445  22973872.32248
  -6747888.74849  -5258092.05647         0.00041  20347765.04847  20347762.25249
 -13904291.43248 -10834506.76746         0.00041  22376476.80746  22376474.83348
 97 06 27 17 35 00.0000000  0  8 04 05 06 07 09 10 24 30
   7888991.79248   6147266.08846         0.00041  22109625.91446  22109623.59748
 -14710487.24949 -11462715.46747         0.00041  20430284.11647  20430281.97449
  -6057682.88148  -4720270.66444         0.00041  24343917.74544  24343912.69948
   2722204.76948   2121196.24441         0.00041         0.00041  24676721.99248
   8021487.90048   6250504.72746         0.00041  22772095.62446  22772092.48948
 -11879500.44748  -9256744.56145         0.00041  22956620.19845  22956614.76248
  -6719957.17949  -5236327.20447         0.00041  20353080.09147  20353077.39649
 -13992144.48748 -10902963.66846         0.00041  22359759.54946  22359756.65248
 97 06 27 17 35 30.0000000  0  8 04 05 06 07 09 10 24 30
   7971642.25348   6211669.01646         0.00041  22125353.79346  22125351.27648
 -14742935.12549 -11487999.53247         0.00041  20424109.30347  20424107.29149
  -6127330.42148  -4774541.43244         0.00041  24330664.84444  24330658.86548
   2792671.48348   2176105.30841         0.00041         0.00041  24690131.71848
   8103436.45548   6314360.69746         0.00041  22787689.60446  22787686.46448
 -11969989.35148  -9327255.34145         0.00041  22939399.26445  22939395.29248
  -6691590.96249  -5214223.66747         0.00041  20358477.99347  20358475.19949
 -14079807.20748 -10971272.24046         0.00041  22343078.15846  22343074.96548
 97 06 27 17 36 00.0000000  0  8 04 05 06 07 09 10 24 30
   8054519.32548   6276248.52246         0.00041  22141124.89146  22141122.33848
 -14774974.22049 -11512965.06147         0.00041  20418012.57847  20418010.39349
  -6196986.37948  -4828818.73044         0.00041  24317411.14244  24317404.15948
   2863147.36748   2231021.56141         0.00041         0.00041  24703542.70948
   8185602.93348   6378386.47046         0.00041  22803325.66246  22803322.44948
 -12060308.91248  -9397634.15545         0.00041  22922213.61445  22922208.05248
  -6662821.27649  -5191805.73447         0.00041  20363952.72547  20363949.85449
 -14167283.04248 -11039435.19746         0.00041  22326431.24246  22326429.15848
 97 06 27 17 36 30.0000000  0  8 04 05 06 07 09 10 24 30
   8137622.09948   6341003.90746         0.00041  22156938.35646  22156936.29848
 -14806615.85049 -11537620.88047         0.00041  20411991.43147  20411989.33949
  -6266659.68148  -4883109.53544         0.00041  24304150.11544  24304145.62248
   2933610.77948         0.00041         0.00041         0.00041  24716951.76248
   8267956.74548   6442558.23146         0.00041  22818997.40346  22818993.82248
 -12150493.87848  -9467908.08145         0.00041  22905052.43045  22905046.60048
  -6633663.42949  -5169085.33447         0.00041  20369501.17447  20369498.54349
 -14254591.09448 -11107467.40546         0.00041  22309817.43446  22309815.52748
 97 06 27 17 37 00.0000000  0  8 04 05 06 07 09 10 24 30
   8220955.09148   6405938.68446         0.00041  22172796.62546  22172793.96748
 -14837851.74449 -11561960.53747         0.00041  20406047.35147  20406045.33949
  -6336346.91548  -4937411.22444         0.00041  24290891.46444  24290884.73148
   3004056.87748   2340821.01341         0.00041         0.00041  24730357.17848
   8350478.91548   6506861.16546         0.00041  22834701.25346  22834697.47048
 -12240558.11248  -9538087.93745         0.00041  22887913.42345  22887907.92448
  -6604117.26149  -5146062.34747         0.00041  20375123.83647  20375121.13149
 -14341735.48048 -11175372.09446         0.00041  22293233.97946  22293232.42148
 97 06 27 17 37 30.0000000  0  8 04 05 06 07 09 10 24 30
   8304517.15148   6471051.94546         0.00041  22188698.44246  22188695.40648
 -14868672.16249 -11585976.45047         0.00041  20400182.45747  20400180.33649
  -6406010.02848  -4991694.09844         0.00041  24277630.64444  24277627.65348
   3074485.96948   2395700.73741         0.00041         0.00041  24743759.01148
   8433174.12648   6571298.95846         0.00041  22850437.81846  22850433.75848
 -12330479.27248  -9608156.30945         0.00041  22870801.19745  22870796.54148
  -6574166.58949  -5122724.16247         0.00041  20380822.92247  20380820.46149
 -14428684.15448 -11243124.28946         0.00041  22276688.41946  22276686.37848
 97 06 27 17 38 00.0000000  0  8 04 05 06 07 09 10 24 30
   8388395.33748   6536411.54246         0.00041  22204659.45946  22204656.85048
 -14898977.09149 -11609590.68547         0.00041  20394415.67447  20394413.44249
  -6475551.49648  -5045882.18544         0.00041  24264397.18944  24264394.59648
   3144993.21248   2450641.37641         0.00041         0.00041  24757175.95548
   8516125.48348   6635936.32546         0.00041  22866222.18146  22866218.85248
 -12420164.30348  -9678040.67145         0.00041  22853734.09245  22853730.20948
  -6543710.11049  -5098991.84247         0.00041  20386618.52547  20386616.04649
 -14515349.52748 -11310655.72346         0.00041  22260196.03646  22260194.74848
 97 06 27 17 38 30.0000000  0  8 04 05 06 07 09 10 24 30
   8472561.04948   6601995.18446         0.00041  22220675.26146  22220672.97748
 -14928776.56349 -11632811.06047         0.00041  20388744.99547  20388742.94149
  -6545002.40248  -5099999.70644         0.00041  24251181.35144  24251178.68548
   3215569.62348   2505635.85341         0.00041         0.00041  24770606.85448
   8599313.60548   6700758.18846         0.00041  22882052.57946  22882049.20748
 -12509613.27748  -9747741.10845         0.00041  22836713.52145  22836708.34948
  -6512778.82149  -5074889.54247         0.00041  20392504.77847  20392502.22649
 -14601759.63348 -11377988.25046         0.00041  22243753.31646  22243751.77848
 97 06 27 17 39 00.0000000  0  8 04 05 06 07 09 10 24 30
   8556855.32448   6667679.01546         0.00041  22236715.91346  22236713.55848
 -14958201.81249 -11655739.82747         0.00041  20383145.45047  20383143.42249
  -6614498.15548  -5154152.17044         0.00041  24237956.87044  24237953.84348
   3286095.91648         0.00041         0.00041         0.00041  24784027.48548
   8682609.49448   6765664.00646         0.00041  22897902.86746  22897899.79848
 -12598943.25548  -9817348.81846         0.00041  22819713.96246  22819709.20748
  -6481504.41549  -5050519.87947         0.00041  20398456.10447  20398453.37749
 -14688022.95448 -11445206.39746         0.00041  22227338.04846  22227336.37148
 97 06 27 17 39 30.0000000  0  8 04 05 06 07 09 10 24 30
   8641329.49948   6733503.01746         0.00041  22252791.09346  22252788.84548
 -14987197.76249 -11678334.07447         0.00041  20377627.66147  20377625.66649
  -6683981.22848  -5208294.75344         0.00041  24224735.48944  24224731.64848
   3356651.74448         0.00041         0.00041         0.00041  24797453.51348
   8766085.08548   6830709.85246         0.00041  22913788.38046  22913784.97048
 -12688084.45848  -9886809.42545         0.00041  22802750.07345  22802746.24948
  -6449832.55549  -5025840.51447         0.00041  20404483.32447  20404480.41949
 -14774064.83348 -11512251.99346         0.00041  22210964.75446  22210962.80748
 97 06 27 17 40 00.0000000  0  8 04 05 06 07 09 10 24 30
   8726031.30348   6799504.40146         0.00041  22268909.95246  22268907.37348
 -15015707.48149 -11700549.44147         0.00041  20372202.44047  20372200.56949
  -6753415.19848  -5262399.12344         0.00041  24211523.28044  24211518.14648
   3427295.17948         0.00041         0.00041         0.00041  24810897.15748
   8849784.75048   6895930.31746         0.00041  22929715.49246  22929712.24648
 -12776982.52948  -9956080.58045         0.00041  22785835.07845  22785829.09648
  -6417722.32549  -5000819.56247         0.00041  20410593.67947  20410590.76449
 -14859840.66548 -11579090.27946         0.00041  22194641.87946  22194640.14948
 97 06 27 17 40 30.0000000  0  8 04 05 06 07 09 10 24 30
   8810948.19048   6865673.36946         0.00041  22285068.41546  22285066.46948
 -15043737.71249 -11722391.18347         0.00041  20366868.67347  20366866.69049
  -6822797.53648  -5316463.20844         0.00041  24198318.50344  24198315.44248
   3498022.93348         0.00041         0.00041         0.00041  24824355.98848
   8933711.46948   6961327.69646         0.00041  22945686.51546  22945682.94948
 -12865641.72948 -10025165.59945         0.00041  22768963.32145  22768957.87348
  -6385169.04849  -4975453.37947         0.00041  20416788.48647  20416785.64349
 -14945336.22448 -11645710.16746         0.00041  22178372.48846  22178370.35248
 97 06 27 17 41 00.0000000  0  8 04 05 06 07 09 10 24 30
   8896051.17148   6931987.35946         0.00041  22301263.40546  22301261.26148
 -15071314.91949 -11743879.92247         0.00041  20361620.77547  20361618.94249
  -6892139.31948  -5370495.69444         0.00041  24185123.50644  24185120.42948
   3568804.82848   2780883.75941         0.00041         0.00041  24837825.36448
   9017841.56848   7026883.56846         0.00041  22961695.92946  22961692.73248
 -12954093.86948 -10094089.28245         0.00041  22752130.95545  22752125.85248
  -6352172.14849  -4949741.51547         0.00041  20423067.39547  20423064.64249
 -15030574.34648 -11712129.45546         0.00041  22162152.32046  22162150.23848
 97 06 27 17 41 30.0000000  0  8 04 05 06 07 09 10 24 30
   8981336.98048   6998443.79946         0.00041  22317492.79346  22317490.37448
 -15098463.34349 -11765034.53947         0.00041  20356454.73547  20356452.78649
  -6961472.54248  -5424521.54244         0.00041  24171931.66944  24171926.52048
   3639595.29248         0.00041         0.00041         0.00041  24851296.25848
   9102145.30048   7092574.72746         0.00041  22977738.88746  22977735.35048
 -13042361.31248 -10162869.04345         0.00041  22735332.69945  22735329.03248
  -6318759.58549  -4923705.75747         0.00041  20429425.50847  20429422.77249
 -15115601.76248 -11778384.54946         0.00041  22145972.23646  22145970.25048
 97 06 27 17 42 00.0000000  0  8 04 05 06 07 09 10 24 30
   9066887.44248   7065106.46846         0.00041  22333772.64146  22333769.71048
 -15125105.46849 -11785794.63747         0.00041  20351384.89647  20351382.73049
  -7030730.83348  -5478488.96144         0.00041  24158751.16844  24158747.41548
   3710454.64248   2891260.01941         0.00041         0.00041  24864781.17848
   9186687.92548   7158452.04546         0.00041  22993826.27946  22993823.07648
 -13130356.04548 -10231436.30445         0.00041  22718588.88545  22718584.70848
  -6284856.09149  -4897287.45547         0.00041  20435876.98247  20435874.51349
 -15200342.33448 -11844416.14546         0.00041  22129846.47046  22129844.74548
 97 06 27 17 42 30.0000000  0  8 04 05 06 07 09 10 24 30
   9152773.48848   7132030.62246         0.00041  22350116.61446  22350113.47148
 -15151201.41949 -11806129.14547         0.00041  20346418.90047  20346416.97049
  -7099858.19748  -5532354.35444         0.00041  24145595.81744  24145592.45548
   3781443.90648   2946576.35244         0.00041  24878292.57044  24878289.10848
   9271529.46348   7224562.28046         0.00041  23009971.19446  23009968.00348
 -13218020.03548 -10299745.84546         0.00041  22701907.17446  22701902.83948
  -6250407.14349  -4870444.12547         0.00041  20442432.64647  20442429.97349
 -15284736.79148 -11910178.04346         0.00041  22113786.90246  22113784.97048
 97 06 27 17 43 00.0000000  0  8 04 05 06 07 09 10 24 30
   9238945.20848   7199177.39046         0.00041  22366513.45046  22366511.20448
 -15176808.90349 -11826083.03247         0.00041  20341546.01447  20341544.00749
  -7168932.07348  -5586178.08044         0.00041  24132453.23644  24132448.11948
   3852510.59148   3001952.94941         0.00041         0.00041  24891812.95648
   9356607.64948   7290856.90846         0.00041  23026162.00046  23026157.12448
 -13305385.85948 -10367823.04245         0.00041  22685281.55145  22685277.21448
  -6215486.53349  -4843233.26247         0.00041  20449077.54447  20449075.14049
 -15368850.64948 -11975721.29646         0.00041  22097780.14446  22097778.78748
 97 06 27 17 43 30.0000000  0  8 04 05 06 07 09 10 24 30
   9325390.65048   7266537.44746         0.00041  22382963.60646  22382961.39048
 -15201945.13149 -11845669.70147         0.00041  20336762.73047  20336760.79449
  -7237978.66448  -5639980.58044         0.00041  24119313.12544  24119308.74448
   3923645.76648   3057382.88941         0.00041         0.00041  24905349.86948
   9441894.82948   7357314.39045         0.00041  23042391.51045  23042387.15948
 -13392465.00348 -10435676.87346         0.00041  22668711.06346  22668706.68748
  -6180136.94249  -4815688.13047         0.00041  20455804.62747  20455801.89349
 -15452686.29648 -12041047.76746         0.00041  22081826.71046  22081825.50148
 97 06 27 17 44 00.0000000  0  8 04 05 06 07 09 10 24 30
   9411981.86948   7334011.10246         0.00041  22399441.86346  22399439.10748
 -15226720.46449 -11864975.15847         0.00041  20332048.05747  20332046.26949
  -7307096.26948  -5693838.37844         0.00041  24106160.54344  24106156.35648
   3994764.21848   3112799.73041         0.00041         0.00041  24918882.99648
   9527279.59848   7423847.90346         0.00041  23058639.70246  23058635.55848
 -13479374.52048 -10503398.51246         0.00041  22652173.08246  22652168.43948
  -6144472.23849  -4787897.45447         0.00041  20462591.67547  20462588.66049
 -15536323.52548 -12106219.62046         0.00041  22065910.94346  22065909.81248
 97 06 27 17 44 30.0000000  0  8 04 05 06 07 09 10 24 30
   9498679.57848   7401567.72646         0.00041  22415940.47346  22415937.31348
 -15251157.57449 -11884017.07247         0.00041  20327397.88547  20327395.96849
  -7376304.31448  -5747766.66844         0.00041  24092989.89644  24092986.45148
   4065830.02648         0.00041         0.00041         0.00041  24932406.55448
   9612729.09148   7490431.86846         0.00041  23074900.15746  23074896.36348
 -13566155.74748 -10571020.19246         0.00041  22635658.41246  22635654.38848
  -6108524.70849  -4759886.39447         0.00041  20469432.13347  20469429.15849
 -15619789.51248 -12171258.03746         0.00041  22050028.10046  22050026.59748
 97 06 27 17 45 00.0000000  0  8 04 05 06 07 09 10 24 30
   9585573.77948   7469277.45546         0.00041  22432475.25946  22432472.44048
 -15275119.85349 -11902688.97947         0.00041  20322838.32247  20322836.25349
  -7445484.55148  -5801673.24644         0.00041  24079825.70344  24079821.63248
   4136943.22848         0.00041         0.00041         0.00041  24945938.67548
   9698358.30848   7557155.87745         0.00041  23091194.12245  23091190.60348
 -13652684.60048 -10638445.21346         0.00041  22619193.02746  22619188.56348
  -6072179.88249  -4731565.74947         0.00041  20476348.44247  20476345.45749
 -15702959.36848 -12236065.69246         0.00041  22034201.42546  22034199.78948
 97 06 27 17 45 30.0000000  0  8 04 05 06 07 09 10 24 30
   9672694.14248   7537163.41146         0.00041  22449053.37846  22449051.35048
 -15298544.68449 -11920942.09247         0.00041  20318380.68447  20318378.65449
  -7514563.26948  -5855500.77345         0.00041  24066679.92045  24066676.63448
   4208148.21248         0.00041         0.00041         0.00041  24959488.99048
   9784212.10748   7624054.88546         0.00041  23107531.93446  23107528.52348
 -13738920.46648 -10705641.93946         0.00041  22602782.42546  22602778.04548
  -6035381.68949  -4702891.83447         0.00041  20483350.88547  20483347.85749
 -15785770.61848 -12300593.91946         0.00041  22018442.84246  22018441.27648
 97 06 27 17 46 00.0000000  0  8 04 05 06 07 09 10 24 30
   9760107.63148   7605277.79746         0.00041  22465687.94646  22465685.69648
 -15321354.13949 -11938715.68947         0.00041  20314040.24547  20314038.05649
  -7583468.86348  -5909193.34645         0.00041  24053567.47245  24053564.30248
   4279486.92647   3334661.15141         0.00041         0.00041  24973064.10647
   9870359.34848   7691182.54945         0.00041  23123925.58145  23123921.98748
 -13824790.13148 -10772553.30946         0.00041  22586442.69746  22586437.73748
  -5998052.38849  -4673804.06747         0.00041  20490454.25547  20490451.35049
 -15868164.69648 -12364797.07346         0.00041  22002764.04946  22002761.95648
 97 06 27 17 46 30.0000000  0  8 04 05 06 07 09 10 24 30
   9847619.45148   7673468.79246         0.00041  22482340.52946  22482338.37648
 -15343729.90449 -11956151.35247         0.00041  20309781.91547  20309779.98449
  -7652394.65248  -5962901.70145         0.00041  24040450.87145  24040447.73548
   4350740.76547         0.00041         0.00041         0.00041  24986623.63647
   9956599.98948   7758383.00545         0.00041  23140335.71645  23140332.56348
 -13910463.17948 -10839311.48046         0.00041  22570138.34746  22570134.39848
  -5960381.54249  -4644450.16447         0.00041  20497622.65547  20497619.92149
 -15950373.09548 -12428855.54346         0.00041  21987120.33746  21987118.02548
 97 06 27 17 47 00.0000000  0  8 04 05 06 07 09 10 24 30
   9935144.24648   7741669.89246         0.00041  22498996.70846  22498994.07648
 -15365741.13049 -11973302.95647         0.00041  20305593.40347  20305591.47649
  -7721411.70548  -6016681.16645         0.00041  24027318.50045  24027314.63948
   4421848.67947   3445592.21741         0.00041         0.00041  25000155.31747
  10042851.52848   7825591.92345         0.00041  23156749.93645  23156745.93348
 -13996003.76748 -10905966.42246         0.00041  22553860.66446  22553856.64948
  -5922445.65549  -4614889.73547         0.00041  20504841.62847  20504838.95449
 -16032473.77548 -12492830.07846         0.00041  21971497.29546  21971495.30748
 97 06 27 17 47 30.0000000  0  8 04 05 06 07 09 10 24 30
  10022703.20348   7809897.60946         0.00041  22515658.00546  22515656.02648
 -15387390.29649 -11990172.43747         0.00041  20301474.01947  20301471.89949
  -7790514.85348  -6070527.76344         0.00041  24014167.24244  24014165.05048
   4492825.73247         0.00041         0.00041         0.00041  25013662.04047
  10129109.73848   7892806.04545         0.00041  23173164.47045  23173160.71648
 -14081415.98548 -10972521.34346         0.00041  22537607.80446  22537603.42948
  -5884244.11849  -4585122.30846         0.00041  20512111.08646  20512108.30449
 -16114468.15048 -12556721.77546         0.00041  21955894.51046  21955892.21248
 97 06 27 17 48 00.0000000  0  8 04 05 06 07 09 10 24 30
  10110367.34548   7878207.30146         0.00041  22532339.91946  22532337.86948
 -15408625.40249 -12006719.27347         0.00041  20297432.92247  20297430.81649
  -7859661.12248  -6124407.89344         0.00041  24001009.89844  24001006.59248
   4563730.77448         0.00041         0.00041         0.00041  25027154.71248
  10215437.56548   7960074.42845         0.00041  23189591.89345  23189588.53148
 -14166629.54348 -11038921.47346         0.00041  22521391.72046  22521387.89448
  -5845722.69049  -4555105.61746         0.00041  20519441.52046  20519438.79549
 -16196300.11149 -12620486.91946         0.00041  21940322.20146  21940320.41949
 97 06 27 17 48 30.0000000  0  8 04 05 06 07 09 10 24 30
  10198214.46248   7946659.57646         0.00041  22549056.99246  22549054.64048
 -15429350.49949 -12022868.70347         0.00041  20293489.13947  20293487.12849
  -7928760.35048  -6178251.37544         0.00041  23987861.61744  23987856.76148
   4634686.14248   3611439.16641         0.00041         0.00041  25040657.39548
  10301940.87148   8027479.53045         0.00041  23206053.35445  23206049.44048
 -14251544.83148 -11105089.17846         0.00041  22505233.73746  22505228.82148
  -5806789.82949  -4524768.33046         0.00041  20526850.34146  20526847.37849
 -16277857.06349 -12684037.77746         0.00041  21924802.08046  21924800.72949
 97 06 27 17 49 00.0000000  0  8 04 05 06 07 09 10 24 30
  10286336.89148   8015326.37546         0.00041  22565826.28946  22565823.96448
 -15449487.43049 -12038559.81747         0.00041  20289657.06947  20289655.12749
  -7997728.95848  -6231993.08244         0.00041  23974737.87744  23974732.36148
   4705803.02448   3666854.77341         0.00041         0.00041  25054190.50548
  10388722.56748   8095101.57645         0.00041  23222567.19945  23222563.47448
 -14336083.82948 -11170963.68946         0.00041  22489145.98146  22489141.33148
  -5767368.35749  -4494050.30447         0.00041  20534352.12747  20534349.23249
 -16359016.17149 -12747278.62546         0.00041  21909358.08446  21909356.69249
 97 06 27 17 49 30.0000000  0  8 04 05 06 07 09 10 24 30
  10374699.58448   8084180.38546         0.00041  22582641.40246  22582638.85548
 -15469091.01149 -12053835.33547         0.00041  20285926.48247  20285924.66949
  -8066629.59548  -6285681.81844         0.00041  23961626.54544  23961620.19248
   4777035.24548   3722360.23344         0.00041  25067748.88144  25067745.70248
  10475739.79948   8162907.15145         0.00041  23239125.85645  23239122.59648
 -14420285.45748 -11236575.29046         0.00041  22473123.56746  22473118.36348
  -5727506.52949  -4462989.14246         0.00041  20541937.33346  20541934.73349
 -16439819.60549 -12810242.32846         0.00041  21893981.61746  21893980.09349
 97 06 27 17 50 00.0000000  0  8 04 05 06 07 09 10 24 30
  10463334.33948   8153246.40146         0.00041  22599508.00546  22599505.33448
 -15488125.26249 -12068667.22347         0.00041  20282304.45247  20282302.60749
  -8135423.64748  -6339287.49544         0.00041  23948534.46344  23948529.76948
   4848424.33748   3777988.00341         0.00041         0.00041  25081331.17348
  10563028.49748   8230924.23945         0.00041  23255735.83745  23255732.97748
 -14504107.36148 -11301891.00946         0.00041  22457172.22546  22457167.64448
  -5687159.28149  -4431549.73146         0.00041  20549615.11146  20549612.35949
 -16520219.23649 -12872891.38146         0.00041  21878681.82346  21878680.45449
 97 06 27 17 50 30.0000000  0  8 04 05 06 07 09 10 24 30
  10552183.16548   8222479.22046         0.00041  22616415.37346  22616412.16348
 -15506655.54449 -12083106.40547         0.00041  20278778.38647  20278776.41449
  -8204166.70048  -6392853.44745         0.00041  23935454.15245  23935448.99448
   4919912.91148   3833693.27841         0.00041         0.00041  25094934.68648
  10650507.28648   8299089.46045         0.00041  23272383.42245  23272379.70848
 -14587624.50248 -11366969.25846         0.00041  22441279.31946  22441274.63048
  -5646390.55049  -4399781.89047         0.00041  20557373.35547  20557370.61049
 -16600281.78549 -12935277.77046         0.00041  21863446.37246  21863445.03549
 97 06 27 17 51 00.0000000  0  8 04 05 06 07 09 10 24 30
  10641215.53948   8291855.06746         0.00041  22633357.21246  22633354.76548
 -15524726.02249 -12097187.29647         0.00041  20275339.63447  20275337.58649
  -8272897.16748  -6446409.57044         0.00041  23922373.92844  23922369.48848
   4991457.76348         0.00041         0.00041         0.00041  25108549.13148
  10738095.86648   8367340.23745         0.00041  23289051.62345  23289047.57848
 -14670883.31748 -11431846.20046         0.00041  22425435.17346  22425431.15348
  -5605240.41649  -4367716.85646         0.00041  20565203.95346  20565201.28749
 -16680058.15548 -12997441.15546         0.00041  21848265.59846  21848263.74048
 97 06 27 17 51 30.0000000  0  8 04 05 06 07 09 10 24 30
  10730474.37648   8361407.37346         0.00041  22650343.16246  22650340.79248
 -15542279.76749 -12110865.54247         0.00041  20271999.18847  20271997.26949
  -8341558.93248  -6499912.20944         0.00041  23909307.99744  23909303.89748
   5063096.01048         0.00041         0.00041         0.00041  25122180.86948
  10825818.00748   8435695.07545         0.00041  23305744.23445  23305740.30548
 -14753828.07548 -11496478.43746         0.00041  22409651.43446  22409647.40748
  -5563648.50649  -4335307.58146         0.00041  20573118.67746  20573116.06649
 -16759504.06048 -13059347.03146         0.00041  21833147.67146  21833145.86648
 97 06 27 17 52 00.0000000  0  8 04 05 06 07 09 10 24 30
  10819861.73348   8431059.83746         0.00041  22667353.05746  22667350.49548
 -15559396.08649 -12124202.94147         0.00041  20268742.10047  20268740.29649
  -8410224.48248  -6553417.74944         0.00041  23896239.81844  23896238.10648
   5134733.39648         0.00041         0.00041         0.00041  25135813.30748
  10913582.66848   8504083.03445         0.00041  23322444.56445  23322441.22548
 -14836542.06148 -11560930.84546         0.00041  22393911.58846  22393907.39648
  -5521707.02949  -4302625.91846         0.00041  20581099.89846  20581097.37249
 -16838699.59248 -13121057.82046         0.00041  21818076.89346  21818075.51548
 97 06 27 17 52 30.0000000  0  8 04 05 06 07 09 10 24 30
  10909377.29548   8500812.18646         0.00041  22684387.05846  22684384.46948
 -15576049.83849 -12137179.89947         0.00041  20265573.05547  20265571.18549
  -8478895.97348  -6606927.96745         0.00041  23883172.83545  23883169.82948
   5206379.84648         0.00041         0.00041         0.00041  25149447.41448
  11001403.58048   8572514.84945         0.00041  23339157.69645  23339153.27848
 -14918997.15648 -11625181.52846         0.00041  22378221.27846  22378216.54448
  -5479417.40549  -4269672.97446         0.00041  20589147.50746  20589144.64949
 -16917631.61748 -13182563.27646         0.00041  21803056.73846  21803055.47348
 97 06 27 17 53 00.0000000  0  8 04 05 06 07 09 10 24 30
  10999065.36948   8570698.96746         0.00041  22701453.86746  22701451.79648
 -15592174.64249 -12149744.69147         0.00041  20262504.62247  20262502.75149
  -8547518.60248  -6660400.10744         0.00041  23870114.32444  23870111.47048
   5278096.23848         0.00041         0.00041         0.00041  25163094.29548
  11089351.67748   8641045.75345         0.00041  23355892.44845  23355888.99248
 -15001109.35148 -11689165.00546         0.00041  22362595.26846  22362590.91648
  -5436726.89549  -4236407.65446         0.00041  20597271.35846  20597268.35249
 -16996228.67349 -13243807.72546         0.00041  21788100.52246  21788098.98949
 97 06 27 17 53 30.0000000  0  8 04 05 06 07 09 10 24 30
  11088896.64548   8640697.34546         0.00041  22718548.77946  22718546.29048
 -15607798.84749 -12161919.40447         0.00041  20259531.61647  20259529.42849
  -8616127.43548  -6713861.47944         0.00041  23857058.59744  23857055.75748
   5349850.95147         0.00041         0.00041         0.00041  25176748.32447
  11177438.94248   8709685.09345         0.00041  23372655.23245  23372651.61648
 -15082890.13748 -11752890.23146         0.00041  22347033.09746  22347028.58248
  -5393674.95549  -4202860.69346         0.00041  20605463.84746  20605460.85449
 -17074513.25849 -13304808.68346         0.00041  21773203.14146  21773201.83849
 97 06 27 17 54 00.0000000  0  7 04 05 06 09 10 24 30
  11178874.26648   8710809.74146         0.00041  22735670.46046  22735668.49148
 -15622917.43449 -12173700.12947         0.00041  20256654.62247  20256652.40549
  -8684749.52948  -6767333.20144         0.00041  23843999.87244  23843996.99048
  11265674.52448   8778440.01345         0.00041  23389445.36745  23389442.16248
 -15164346.57148 -11816362.74146         0.00041  22331532.22546  22331528.29348
  -5350267.04649  -4169036.35646         0.00041  20613723.88046  20613720.88249
 -17152491.88449 -13365571.23246         0.00041  21758364.64246  21758363.11149
 97 06 27 17 54 30.0000000  0  7 04 05 06 09 10 24 30
  11268953.16148   8781001.06746         0.00041  22752812.66246  22752809.50348
 -15637582.23649 -12185127.25147         0.00041  20253864.08247  20253861.86949
  -8753441.78848  -6820859.59644         0.00041  23830927.20744  23830925.07848
  11354004.60048   8847268.56345         0.00041  23406255.28345  23406250.92248
 -15245540.70848 -11879630.85046         0.00041  22316081.21646  22316076.78048
  -5306549.75349  -4134970.94146         0.00041  20622042.89146  20622040.17249
 -17230228.28749 -13426145.04146         0.00041  21743571.65446  21743570.15449
 97 06 27 17 55 00.0000000  0  7 04 05 06 09 10 24 30
  11359266.06248   8851374.72846         0.00041  22769998.77746  22769995.77648
 -15651668.81349 -12196103.80747         0.00041  20251183.41647  20251181.36749
  -8822062.21148  -6874329.97544         0.00041  23817870.62944  23817867.05848
  11442553.07148   8916267.29645         0.00041  23423104.40045  23423101.23948
 -15326359.77448 -11942606.70546         0.00041  22300702.32446  22300697.65148
  -5262392.66949  -4100562.83546         0.00041  20630445.71246  20630443.00549
 -17307599.26649 -13486434.09946         0.00041  21728848.97346  21728847.00049
 97 06 27 17 55 30.0000000  0  7 04 05 06 09 10 24 30
  11449721.13048   8921859.16946         0.00041  22787212.02946  22787208.90148
 -15665276.52249 -12206707.22247         0.00041  20248593.83747  20248591.80149
  -8890700.01648  -6927813.92144         0.00041  23804810.39744  23804806.01448
  11531212.80248   8985352.72345         0.00041  23439975.61745  23439972.41348
 -15406923.41648 -12005383.51346         0.00041  22285371.73046  22285367.06348
  -5217889.55949  -4065885.09546         0.00041  20638914.37846  20638911.68149
 -17384705.70849 -13546517.02646         0.00041  21714175.48946  21714173.76949
 97 06 27 17 56 00.0000000  0  7 04 05 06 09 10 24 30
  11540610.05248   8992681.69146         0.00041  22804506.51646  22804504.38748
 -15678096.41249 -12216696.75347         0.00041  20246154.42547  20246152.40749
  -8959028.89748  -6981057.15644         0.00041  23791806.45944  23791803.33448
  11620249.83548   9054732.16345         0.00041  23456919.23245  23456915.63448
 -15486941.08248 -12067734.89946         0.00041  22270144.02846  22270139.90648
  -5172736.25249  -4030700.70946         0.00041  20647506.49946  20647504.15849
 -17461248.34449 -13606160.62446         0.00041  21699610.11646  21699608.10249
 97 06 27 17 56 30.0000000  0  7 04 05 06 09 10 24 30
  11631833.84948   9063765.14646         0.00041  22821866.05446  22821863.71848
 -15690238.40149 -12226158.04447         0.00041  20243843.86547  20243841.84149
  -9027114.25948  -7034110.62045         0.00041  23778850.10645  23778846.91748
  11709554.78748   9124320.35245         0.00041  23473913.90845  23473910.33248
 -15566486.73148 -12129718.46946         0.00041  22255007.02646  22255002.47548
  -5127034.90349  -3995089.28046         0.00041  20656203.37446  20656200.74249
 -17537313.59749 -13665432.23246         0.00041  21685135.10746  21685133.12749
 97 06 27 17 57 00.0000000  0  7 04 05 06 09 10 24 30
  11723185.79348   9134948.46046         0.00041  22839249.73646  22839247.70548
 -15701904.34049 -12235248.38547         0.00041  20241623.78347  20241621.72849
  -9095146.62048  -7087122.81544         0.00041  23765904.16944  23765900.28048
  11798926.96448   9193960.92745         0.00041  23490922.05345  23490917.66748
 -15645737.09948 -12191471.96146         0.00041  22239925.81546  22239922.04248
  -5080988.81249  -3959209.21946         0.00041  20664965.74746  20664963.00349
 -17613074.28849 -13724466.52246         0.00041  21670718.13746  21670716.57849
 97 06 27 17 57 30.0000000  0  7 04 05 06 09 10 24 30
  11814086.25748   9205779.96146         0.00041  22856547.50246  22856545.53848
 -15713676.52449 -12244421.52147         0.00041  20239383.87247  20239381.62749
  -9163706.78548  -7140546.27145         0.00041  23752857.20845  23752854.30648
  11887779.02048   9263196.21145         0.00041  23507829.16445  23507825.82848
 -15725251.02448 -12253430.81246         0.00041  22224795.66146  22224790.66148
  -5035170.78649  -3923506.87246         0.00041  20673684.90346  20673682.01249
 -17689102.78349 -13783709.49246         0.00041  21656250.84946  21656249.14849
 97 06 27 17 58 00.0000000  0  7 04 05 06 09 10 24 30
  11904958.15248   9276589.19646         0.00041  22873839.63046  22873838.12648
 -15725118.28149 -12253337.18647         0.00041  20237206.47947  20237204.26749
  -9232370.12248  -7194050.13045         0.00041  23739789.62345  23739788.18948
  11976548.97748   9332367.51945         0.00041  23524723.13545  23524718.06948
 -15804574.77948 -12315241.48446         0.00041  22209700.32946  22209696.09548
  -4989148.54649  -3887645.39546         0.00041  20682442.54346  20682439.68949
 -17764953.97849 -13842814.30446         0.00041  21641816.98946  21641815.41449
 97 06 27 17 58 30.0000000  0  7 04 05 06 09 10 24 30
  11995956.21348   9347496.75346         0.00041  22891156.28646  22891154.28048
 -15736077.36849 -12261876.74047         0.00041  20235121.05047  20235119.03649
  -9301000.69548  -7247528.45545         0.00041  23726732.51045  23726728.04648
  12065405.38048   9401606.19245         0.00041  23541631.42545  23541626.83348
 -15883545.51348 -12376777.08146         0.00041  22194672.89546  22194668.61948
  -4942771.63249  -3851507.54846         0.00041  20691267.94246  20691264.91249
 -17840450.75349 -13901642.94746         0.00041  21627449.88746  21627448.63649
 97 06 27 17 59 00.0000000  0  7 04 05 06 09 10 24 30
  12087032.03748   9418464.90546         0.00041  22908487.04946  22908485.21148
 -15746579.11949 -12270059.92647         0.00041  20233122.48947  20233120.43549
  -9369646.21048  -7301018.41245         0.00041  23713668.51545  23713664.64348
  12154322.67448   9470892.31745         0.00041  23558551.20145  23558547.81448
 -15962210.95948 -12438074.78246         0.00041  22179703.35446  22179698.87548
  -4896079.71849  -3815124.24846         0.00041  20700153.00546  20700149.89849
 -17915621.16949 -13960217.28746         0.00041  21613145.85746  21613144.19849
 97 06 27 17 59 30.0000000  0  7 04 05 06 09 10 24 30
  12178227.89048   9489526.56546         0.00041  22925841.69646  22925839.13248
 -15756576.91949 -12277850.42447         0.00041  20231220.02747  20231218.07649
  -9438274.10848  -7354494.65945         0.00041  23700607.77145  23700605.68548
  12243334.68648   9540252.24645         0.00041  23575488.76745  23575486.33848
 -16040541.70548 -12499111.67946         0.00041  22164796.74946  22164793.14048
  -4849039.02549  -3778469.17246         0.00041  20709104.64046  20709101.53849
 -17990437.54249 -14018515.74446         0.00041  21598908.59246  21598907.03049
 97 06 27 18 00 00.0000000  0  7 04 05 06 09 10 24 30
  12269602.97248   9560727.89745         0.00041  22943229.65545  22943227.27048
 -15765994.64849 -12285188.91747         0.00041  20229427.86847  20229426.18749
  -9506811.98348  -7407900.75045         0.00041  23687566.70845  23687563.27248
  12332511.04848   9609740.21945         0.00041  23592459.16445  23592455.42448
 -16118476.74648 -12559840.23746         0.00041  22149966.99346  22149962.94248
  -4801589.04749  -3741495.17046         0.00041  20718134.01846  20718130.99149
 -18064819.46349 -14076475.66846         0.00041  21584754.33546  21584752.61249
 97 06 27 18 00 30.0000000  0  7 04 05 06 09 10 24 30
  12361225.74048   9632122.23345         0.00041  22960665.38945  22960662.29748
 -15774762.81749 -12292021.25947         0.00041  20227759.40947  20227757.62249
  -9575193.95948  -7461185.40345         0.00041  23674553.13345  23674550.33748
  12421909.84448   9679401.53945         0.00041  23609473.25545  23609467.53748
 -16195950.84548 -12620209.62046         0.00041  22135223.23746  22135219.69348
  -4753671.55349  -3704156.86846         0.00041  20727252.50646  20727249.39449
 -18138706.37449 -14134049.86946         0.00041  21570693.87246  21570692.22149
 97 06 27 18 01 00.0000000  0  7 04 05 06 09 10 24 30
  12453039.87248   9703665.67345         0.00041  22978137.06945  22978134.08748
 -15782930.58249 -12298385.75347         0.00041  20226205.05947  20226203.10949
  -9643466.74948  -7514384.95745         0.00041  23661561.48545  23661558.34848
  12511471.21348   9749189.51145         0.00041  23626514.68545  23626511.41548
 -16273008.49948 -12680254.49846         0.00041  22120559.68846  22120555.98048
  -4705336.28849  -3666493.03746         0.00041  20736450.28446  20736447.16349
 -18212163.57849 -14191289.22946         0.00041  21556715.47746  21556713.63449
 97 06 27 18 01 30.0000000  0  7 04 05 06 09 10 24 30
  12545003.64948   9775325.71045         0.00041  22995636.90545  22995634.15148
 -15790545.00449 -12304319.07147         0.00041  20224756.44247  20224754.22949
  -9711679.84148  -7567537.98145         0.00041  23648581.50245  23648577.70448
  12601133.59548   9819056.21845         0.00041  23643577.25845  23643573.16648
 -16349688.68848 -12740005.24746         0.00041  22105967.81346  22105964.55248
  -4656635.86449  -3628544.66346         0.00041  20745717.70646  20745714.94849
 -18285239.88449 -14248231.79446         0.00041  21542809.86146  21542807.72649
 97 06 27 18 02 00.0000000  0  7 04 05 06 09 10 24 30
  12637082.29048   9847075.28545         0.00041  23013159.03245  23013156.50348
 -15797641.80449 -12309849.04847         0.00041  20223405.90247  20223403.70949
  -9779860.85148  -7620666.00345         0.00041  23635607.26045  23635603.26048
  12690869.72348   9888980.38545         0.00041  23660653.49345  23660649.80048
 -16426009.32948 -12799475.81546         0.00041  22091444.84546  22091441.32148
  -4607603.31149  -3590337.48446         0.00041  20755048.12946  20755045.69049
 -18357953.55649 -14304891.79046         0.00041  21528972.40046  21528970.84549
 97 06 27 18 02 30.0000000  0  7 04 05 06 09 10 24 30
  12729209.95848   9918863.04845         0.00041  23030690.60645  23030688.06948
 -15804302.35649 -12315039.09647         0.00041  20222138.45447  20222136.43049
  -9848095.04048  -7673835.46145         0.00041  23622621.74845  23622619.00548
  12780602.46348   9958901.91345         0.00041  23677728.62845  23677725.20848
 -16502033.00248 -12858714.99046         0.00041  22076977.58646  22076974.16348
  -4558315.65349  -3551931.52446         0.00041  20764427.27046  20764424.61349
 -18430385.01949 -14361331.88246         0.00041  21515189.01746  21515187.66849
 97 06 27 18 03 00.0000000  0  7 04 05 06 09 10 24 30
  12821467.78348   9990752.22045         0.00041  23048247.56045  23048244.32548
 -15810450.34749 -12319829.74547         0.00041  20220968.48947  20220966.51849
  -9916296.30648  -7726979.27145         0.00041  23609644.48145  23609640.96048
  12870414.08348  10028884.90445         0.00041  23694818.51245  23694815.31148
 -16577686.25448 -12917665.52446         0.00041  22062581.00246  22062577.73748
  -4508691.45749  -3513263.32446         0.00041  20773870.33546  20773867.82149
 -18502457.79749 -14417492.48546         0.00041  21501474.45946  21501472.49349
 97 06 27 18 03 30.0000000  0  7 04 05 06 09 10 24 30
  12913961.40148  10062825.13845         0.00041  23065847.26445  23065845.31448
 -15815982.42349 -12324140.46347         0.00041  20219915.65947  20219913.74149
  -9984366.34348  -7780020.81045         0.00041  23596690.27545  23596686.84948
  12960391.97448  10098997.45745         0.00041  23711942.67345  23711937.73348
 -16652871.95748 -12976251.73546         0.00041  22048274.06446  22048270.50648
  -4458635.09549  -3474258.36946         0.00041  20783395.90246  20783393.00449
 -18574079.84949 -14473301.86646         0.00041  21487845.21246  21487843.50849
 97 06 27 18 04 00.0000000  0  7 04 05 06 09 10 24 30
  13006579.43748  10134994.99745         0.00041  23083472.21945  23083469.53448
 -15820991.45149 -12328043.60947         0.00041  20218962.45347  20218960.64649
 -10052413.12548  -7833044.24345         0.00041  23583741.55845  23583738.01748
  13050443.55148  10169167.43445         0.00041  23729078.49045  23729074.11948
 -16727698.04148 -13034557.72946         0.00041  22034035.00846  22034031.50548
  -4408237.01049  -3434987.14046         0.00041  20792986.52146  20792983.52849
 -18645355.80049 -14528841.56446         0.00041  21474281.74246  21474280.15449
 97 06 27 18 04 30.0000000  0  7 04 05 06 09 10 24 30
  13099338.82448  10207275.01045         0.00041  23101123.92445  23101121.10248
 -15825439.52949 -12331509.65047         0.00041  20218115.81447  20218113.90749
 -10120415.27148  -7886032.87945         0.00041  23570801.30745  23570798.28648
  13140583.46748  10239406.24845         0.00041  23746231.48545  23746227.13648
 -16802150.44748 -13092572.53846         0.00041  22019867.06246  22019863.92248
  -4357469.38549  -3395427.96046         0.00041  20802647.21246  20802644.07749
 -18716276.58849 -14584104.50946         0.00041  21460785.63046  21460784.19249
 97 06 27 18 05 00.0000000  0  7 04 05 06 09 10 24 30
  13192206.76348  10279639.61545         0.00041  23118795.92745  23118793.03848
 -15829343.29949 -12334551.55647         0.00041  20217372.95247  20217371.18949
 -10188386.17648  -7938997.18145         0.00041  23557867.31145  23557864.11748
  13230779.87248  10309689.07845         0.00041  23763395.13445  23763391.18448
 -16876254.77148 -13150316.11946         0.00041  22005765.57446  22005762.07848
  -4306361.04349  -3355603.28546         0.00041  20812372.93046  20812369.77349
 -18786867.92649 -14639110.73946         0.00041  21447352.83246  21447350.95249
 97 06 27 18 05 30.0000000  0  7 04 05 06 09 10 24 30
  13285161.63248  10352071.93745         0.00041  23136484.88945  23136481.84448
 -15832717.60649 -12337180.89747         0.00041  20216731.00747  20216729.11449
 -10256348.46248  -7991954.78345         0.00041  23544934.61145  23544931.51248
  13321003.97748  10379993.49845         0.00041  23780564.74945  23780560.41048
 -16950015.64748 -13207792.07646         0.00041  21991729.40846  21991725.80048
  -4254925.99549  -3315524.03746         0.00041  20822160.67946  20822157.55149
 -18857132.26549 -14693862.16246         0.00041  21433982.26646  21433980.36349
 97 06 27 18 06 00.0000000  0  7 04 05 06 09 10 24 30
  13378210.07948  10424577.18445         0.00041  23154191.33545  23154188.20748
 -15835557.88949 -12339394.11447         0.00041  20216190.49347  20216188.51149
 -10324282.70648  -8044890.54245         0.00041  23532007.34845  23532003.60248
  13411282.35148  10450340.20345         0.00041  23797744.44845  23797740.05748
 -17023414.85448 -13264986.20846         0.00041  21977762.02946  21977758.36248
  -4203149.38649  -3275178.63746         0.00041  20832013.63046  20832010.60049
 -18927033.48049 -14748330.62846         0.00041  21420680.52146  21420678.51049
 97 06 27 18 06 30.0000000  0  7 04 05 06 09 10 24 30
  13471386.54248  10497182.16545         0.00041  23171922.74645  23171919.57748
 -15837855.66649 -12341184.59547         0.00041  20215753.38047  20215751.44549
 -10392151.50248  -8097775.28445         0.00041  23519092.50145  23519088.46848
  13501620.08248  10520733.14245         0.00041  23814936.43045  23814930.62748
 -17096406.84248 -13321863.03146         0.00041  21963872.02946  21963868.32748
  -4151025.47449  -3234562.61146         0.00041  20841932.64446  20841929.47349
 -18996541.57649 -14802492.77346         0.00041  21407453.31446  21407451.43049
 97 06 27 18 07 00.0000000  0  7 04 05 06 09 10 24 30
  13564701.84248  10569895.35445         0.00041  23189680.30045  23189677.04448
 -15839621.69749 -12342560.72747         0.00041  20215417.32247  20215415.33149
 -10459948.98948  -8150604.45545         0.00041  23506190.07045  23506186.85548
  13592029.77348  10591182.18245         0.00041  23832139.47645  23832134.97748
 -17168976.04048 -13378410.41946         0.00041  21950062.33946  21950058.92948
  -4098549.79649  -3193672.47946         0.00041  20851918.17346  20851915.01149
 -19065632.37349 -14856329.74946         0.00041  21394305.99346  21394304.11749
 97 06 27 18 07 30.0000000  0  7 04 05 06 09 10 24 30
  13658092.97348  10642667.61945         0.00041  23207452.13845  23207448.51448
 -15840923.49349 -12343575.11847         0.00041  20215169.69947  20215167.64349
 -10527749.11348  -8203435.65245         0.00041  23493287.63745  23493284.77548
  13682456.56848  10661644.54745         0.00041  23849348.19845  23849342.77748
 -17241173.71448 -13434668.30146         0.00041  21936323.52946  21936320.30548
  -4045790.17049  -3152561.08746         0.00041  20861957.99546  20861954.96649
 -19134356.57749 -14909881.07146         0.00041  21381227.79246  21381226.13749
 97 06 27 18 08 00.0000000  0  7 04 05 06 09 10 24 30
  13751551.27248  10715492.23445         0.00041  23225236.74345  23225232.94848
 -15841763.25049 -12344229.48147         0.00041  20215009.94547  20215007.88249
 -10595565.81748  -8256279.74144         0.00041  23480382.27344  23480379.89548
  13772906.10448  10732124.61245         0.00041  23866559.54845  23866554.90148
 -17312997.37348 -13490634.74646         0.00041  21922655.98946  21922652.33348
  -3992770.16249  -3111246.80146         0.00041  20872047.25846  20872044.19149
 -19202723.93049 -14963154.33046         0.00041  21368218.02646  21368216.52349
 97 06 27 18 08 30.0000000  0  7 04 05 06 09 10 24 30
  13845155.98248  10788430.93745         0.00041  23243047.89445  23243045.49648
 -15842055.87349 -12344457.50947         0.00041  20214954.26547  20214952.25849
 -10663328.20348  -8309080.95446         0.00041  23467487.54246  23467485.08448
  13863441.47248  10802671.55945         0.00041  23883787.75145  23883783.04648
 -17384365.59548 -13546246.30146         0.00041  21909074.91346  21909071.41248
  -3939417.31549  -3069673.16046         0.00041  20882199.82046  20882197.06049
 -19270665.15649 -15016095.54146         0.00041  21355289.36446  21355287.73049
 97 06 27 18 09 00.0000000  0  7 04 05 06 09 10 24 30
  13938858.00048  10861445.45045         0.00041  23260879.22545  23260876.43648
 -15841836.31949 -12344286.43747         0.00041  20214996.11747  20214994.01249
 -10731092.17848  -8361884.75845         0.00041  23454594.54245  23454590.15448
  13954014.60448  10873247.95045         0.00041  23901024.79945  23901018.99748
 -17455335.72148 -13601547.66146         0.00041  21895569.99046  21895566.34348
  -3885778.13249  -3027876.39846         0.00041  20892407.18346  20892404.39049
 -19338224.32649 -15068739.04546         0.00041  21342432.86046  21342431.32849
 97 06 27 18 09 30.0000000  0  7 04 05 06 09 10 24 30
  14032506.28048  10934418.10845         0.00041  23278699.17545  23278697.13848
 -15841230.37449 -12343814.27847         0.00041  20215111.23847  20215109.31149
 -10798995.12548  -8414796.05545         0.00041  23441671.55745  23441668.99748
  14044469.29748  10943732.03144         0.00041  23918234.94744  23918231.83448
 -17526052.14048 -13656651.32346         0.00041  21882113.03946  21882109.30948
  -3832003.06849  -2985973.75646         0.00041  20902640.04446  20902637.54449
 -19405546.52349 -15121197.89146         0.00041  21329622.05646  21329620.60249
 97 06 27 18 10 00.0000000  0  7 04 05 06 09 10 24 30
  14126149.45248  11007386.77345         0.00041  23296520.38545  23296517.28248
 -15840175.47449 -12342992.28547         0.00041  20215311.90247  20215309.99749
 -10866971.04948  -8467764.25645         0.00041  23428736.67145  23428733.14448
  14134849.80448  11014158.31045         0.00041  23935435.13545  23935430.54948
 -17596478.17648 -13711528.72046         0.00041  21868710.83246  21868707.63748
  -3778028.34449  -2943915.53746         0.00041  20912911.18646  20912908.52849
 -19472579.55049 -15173431.40546         0.00041  21316866.37046  21316864.74349
 97 06 27 18 10 30.0000000  0  7 04 05 06 09 10 24 30
  14219871.86448  11080417.18645         0.00041  23314354.40245  23314352.20848
 -15838577.05649 -12341746.76647         0.00041  20215616.24847  20215613.97949
 -10934910.48848  -8520704.03245         0.00041  23415807.31145  23415804.48948
  14225240.03848  11084592.17744         0.00041  23952635.41244  23952631.00548
 -17666527.45748 -13766112.53746         0.00041  21855381.23846  21855377.93948
  -3723746.88249  -2901618.30246         0.00041  20923240.75946  20923237.97849
 -19539230.32949 -15225367.06346         0.00041  21304182.97946  21304181.00849
 97 06 27 18 11 00.0000000  0  7 04 05 06 09 10 24 30
  14313668.04348  11153505.08245         0.00041  23332203.46645  23332200.66448
 -15836419.63849 -12340065.66847         0.00041  20216026.69947  20216024.50649
 -11002798.75648  -8573603.96545         0.00041  23402887.86445  23402885.60548
  14315652.41648  11155043.27644         0.00041  23969841.01244  23969835.81348
 -17736187.95048 -13820393.40846         0.00041  21842125.40446  21842121.94848
  -3669149.17649  -2859074.64046         0.00041  20933630.29146  20933627.63849
 -19605485.54249 -15276994.49046         0.00041  21291575.35246  21291573.23449
 97 06 27 18 11 30.0000000  0  7 04 05 06 09 10 24 30
  14407582.76348  11226685.34045         0.00041  23350074.63945  23350071.67648
 -15833635.31849 -12337896.07347         0.00041  20216556.70247  20216554.33349
 -11070566.50248  -8626409.96245         0.00041  23389993.79945  23389989.79748
  14406169.49748  11225575.95145         0.00041  23987065.47345  23987060.84648
 -17805382.61648 -13874311.30146         0.00041  21828958.02746  21828954.74948
  -3614158.87149  -2816225.05346         0.00041  20944094.60846  20944091.98249
 -19671268.39649 -15328253.84546         0.00041  21279057.12246  21279055.32549
 97 06 27 18 12 00.0000000  0  7 04 05 06 09 10 24 30
  14501672.45048  11300001.93445         0.00041  23367979.10245  23367976.79348
 -15830182.47249 -12335205.54747         0.00041  20217213.70747  20217211.55849
 -11138164.11848  -8679083.38145         0.00041  23377130.53945  23377126.27448
  14496838.71248  11296227.18644         0.00041  24004318.99744  24004315.00648
 -17874040.19448 -13927810.69446         0.00041  21815892.61046  21815889.35948
  -3558726.97649  -2773031.37546         0.00041  20954643.08646  20954640.25049
 -19736529.02649 -15379106.27346         0.00041  21266638.30846  21266636.75349
 97 06 27 18 12 30.0000000  0  7 04 05 06 09 10 24 30
  14595811.35248  11373356.89745         0.00041  23385893.73545  23385890.70648
 -15826192.87749 -12332096.77747         0.00041  20217972.85047  20217970.71249
 -11205730.67548  -8731732.58945         0.00041  23364272.02845  23364268.82648
  14587511.76248  11366881.41144         0.00041  24021573.55944  24021569.27548
 -17942278.49748 -13980983.37546         0.00041  21802907.41046  21802904.33348
  -3502998.22049  -2729606.38146         0.00041  20965247.63546  20965244.94249
 -19801392.94049 -15429649.57546         0.00041  21254295.40446  21254293.75249
 97 06 27 18 13 00.0000000  0  7 04 05 06 09 10 24 30
  14689954.08548  11446714.83145         0.00041  23403808.01645  23403805.31948
 -15821729.61649 -12328618.91947         0.00041  20218822.24947  20218820.15949
 -11273328.78948  -8784406.29245         0.00041  23351408.23145  23351405.24248
  14678131.15448  11437493.84444         0.00041  24038819.69344  24038813.51148
 -18010146.31648 -14033867.36846         0.00041  21789992.72646  21789989.35848
  -3447038.50649  -2686001.41546         0.00041  20975896.53646  20975893.85249
 -19865907.88149 -15479920.94646         0.00041  21242018.44146  21242016.91849
 97 06 27 18 13 30.0000000  0  7 04 05 06 09 10 24 30
  14784184.48348  11520141.07945         0.00041  23421739.67545  23421736.48748
 -15816738.34749 -12324729.62947         0.00041  20219771.91447  20219769.99749
 -11340902.10048  -8837060.92545         0.00041  23338550.00645  23338546.61348
  14768761.41948  11508114.72344         0.00041  24056065.59144  24056060.76548
 -18077572.70448 -14086407.38146         0.00041  21777161.84746  21777158.65848
  -3390780.95449  -2642164.37246         0.00041  20986601.97246  20986599.17249
 -19930013.17049 -15529873.10946         0.00041  21229819.58746  21229818.05649
 97 06 27 18 14 00.0000000  0  7 04 05 06 09 10 24 30
  14878537.18848  11593662.62245         0.00041  23439694.58645  23439691.44248
 -15811205.81249 -12320418.57347         0.00041  20220824.64847  20220822.74449
 -11408436.02648  -8889684.70645         0.00041  23325697.42745  23325695.50948
  14859400.18048  11578742.22945         0.00041  24073315.16945  24073308.94548
 -18144554.91148 -14138601.28646         0.00041  21764415.51746  21764412.21448
  -3334212.84849  -2598085.33946         0.00041  20997366.62546  20997363.75249
 -19993700.94549 -15579499.93446         0.00041  21217700.33746  21217698.50849
 97 06 27 18 14 30.0000000  0  7 04 05 06 09 10 24 30
  14973003.79348  11667272.93145         0.00041  23457671.50845  23457668.31948
 -15805124.71249 -12315680.06047         0.00041  20221981.98847  20221980.12249
 -11475930.72348  -8942277.94545         0.00041  23312854.99945  23312851.94448
  14950055.74548  11649382.84444         0.00041  24090566.00744  24090560.25348
 -18211103.10448 -14190456.99546         0.00041  21751751.69546  21751748.47148
  -3277325.19449  -2553757.30346         0.00041  21008191.85346  21008189.21849
 -20056956.93149 -15628790.29946         0.00041  21205662.98646  21205661.43349
 97 06 27 18 15 00.0000000  0  7 04 05 06 09 10 24 30
  15067540.30148  11740937.71345         0.00041  23475660.83545  23475657.98448
 -15798533.76449 -12310544.26847         0.00041  20223236.19047  20223234.23649
 -11543414.48648  -8994862.64445         0.00041  23300013.51445  23300010.31548
  15040715.68648  11720026.86144         0.00041  24107817.39144  24107811.86748
 -18277242.94148 -14241994.50746         0.00041  21739165.79146  21739162.37448
  -3220149.62749  -2509204.91546         0.00041  21019072.42746  21019069.44849
 -20119809.11249 -15677766.01446         0.00041  21193702.60146  21193700.79449
 97 06 27 18 15 30.0000000  0  7 04 05 06 09 10 24 30
  15162104.96648  11814624.41745         0.00041  23493655.57545  23493653.34548
 -15791446.48449 -12305021.72147         0.00041  20224584.96947  20224582.95649
 -11610921.90548  -9047465.78245         0.00041  23287167.04445  23287163.89548
  15131342.77348  11790645.29544         0.00041  24125063.95444  24125058.03148
 -18342997.00248 -14293231.41946         0.00041  21726653.09646  21726649.79648
  -3162716.36049  -2464451.72746         0.00041  21030001.45346  21029998.52849
 -20182275.68949 -15726441.25046         0.00041  21181815.35746  21181813.94149
 97 06 27 18 16 00.0000000  0  7 04 05 06 09 10 24 30
  15256692.90748  11888329.27445         0.00041  23511654.58845  23511652.88748
 -15783836.09749 -12299091.56047         0.00041  20226033.12547  20226030.91849
 -11678427.34948  -9100067.37345         0.00041  23274321.33645  23274317.45048
  15221930.48648  11861232.99344         0.00041  24142301.94944  24142296.58248
 -18408352.59348 -14344157.84246         0.00041  21714216.52446  21714212.96648
  -3105028.19049  -2419499.91046         0.00041  21040979.08746  21040976.39949
 -20244331.69549 -15774796.57046         0.00041  21170006.95646  21170005.35949
 97 06 27 18 16 30.0000000  0  7 04 05 06 09 10 24 30
  15351295.83248  11962045.80445         0.00041  23529657.17845  23529655.13748
 -15775704.60049 -12292755.34047         0.00041  20227580.65847  20227578.37949
 -11745929.07448  -9152666.05545         0.00041  23261475.85545  23261472.21648
  15312479.20448  11931790.33544         0.00041  24159532.73144  24159527.47148
 -18473285.62448 -14394754.99746         0.00041  21701860.01446  21701856.59648
  -3047105.58549  -2374365.42346         0.00041  21052001.65846  21051998.81849
 -20305979.63349 -15822833.91446         0.00041  21158275.63246  21158274.10949
 97 06 27 18 17 00.0000000  0  7 04 05 06 09 10 24 30
  15445924.37748  12035782.28645         0.00041  23547664.41445  23547662.25848
 -15767051.72149 -12286012.84847         0.00041  20229226.89147  20229224.97349
 -11813427.94148  -9205262.53345         0.00041  23248631.08845  23248627.95848
  15402985.45448  12002314.56244         0.00041  24176756.04944  24176750.15248
 -18537782.61948 -14445012.37946         0.00041  21689586.64646  21689583.32148
  -2988964.32349  -2329060.55146         0.00041  21063065.08046  21063062.62249
 -20367234.76649 -15870565.17646         0.00041  21146619.15546  21146617.59749
 97 06 27 18 17 30.0000000  0  7 04 05 06 09 10 24 30
  15540656.65148  12109599.60945         0.00041  23565691.72045  23565689.08548
 -15757801.11249 -12278804.59347         0.00041  20230987.42147  20230985.42049
 -11880847.33248  -9257797.07745         0.00041  23235801.49245  23235798.20448
  15493505.24248  12072849.34644         0.00041  24193980.24044  24193975.81448
 -18601771.06149 -14494873.48646         0.00041  21677409.92646  21677406.75149
  -2930534.78849  -2283531.04846         0.00041  21074184.24946  21074181.19549
 -20428039.10949 -15917945.17946         0.00041  21135048.58046  21135046.78149
 97 06 27 18 18 00.0000000  0  7 04 05 06 09 10 24 30
  15635484.87548  12183491.68045         0.00041  23583737.81045  23583734.65248
 -15747988.48949 -12271158.40347         0.00041  20232854.86847  20232852.77449
 -11948193.03748  -9310274.22745         0.00041  23222985.94645  23222983.05948
  15584033.75948  12143390.91544         0.00041  24211209.95444  24211202.41348
 -18665271.24649 -14544354.13746         0.00041  21665326.44946  21665323.11549
  -2871835.70949  -2237791.51846         0.00041  21085354.43846  21085351.29549
 -20488417.84749 -15964993.54046         0.00041  21123558.86746  21123556.87049
 97 06 27 18 18 30.0000000  0  7 04 05 06 09 10 24 30
  15730379.30248  12257435.33345         0.00041  23601793.84845  23601792.49748
 -15737661.43049 -12263111.35647         0.00041  20234820.20547  20234818.07849
 -12015504.18848  -9362724.45045         0.00041  23210176.91145  23210173.82848
  15674561.93148  12213932.24544         0.00041  24228435.79544  24228429.18548
 -18728314.23748 -14593478.52646         0.00041  21653329.46946  21653326.13148
  -2812886.50049  -2191857.07546         0.00041  21096571.88846  21096568.70749
 -20548395.52649 -16011729.38646         0.00041  21112145.58446  21112143.71549
 97 06 27 18 19 00.0000000  0  7 04 05 06 09 10 24 30
  15825367.70848  12331452.23145         0.00041  23619871.02845  23619868.33748
 -15726787.96049 -12254638.53847         0.00041  20236889.26247  20236887.13149
 -12082745.07548  -9415119.91845         0.00041  23197381.85245  23197378.51248
  15765117.15548  12284494.63144         0.00041  24245667.21144  24245661.02948
 -18790886.58648 -14642236.17946         0.00041  21641422.65446  21641419.12148
  -2753633.30149  -2145685.76146         0.00041  21107847.32646  21107844.44249
 -20607915.56249 -16058108.63446         0.00041  21100819.10446  21100817.30149
 97 06 27 18 19 30.0000000  0  7 04 05 06 09 10 24 30
  15920406.06648  12405508.04845         0.00041  23637955.83045  23637953.32548
 -15715395.66549 -12245761.44047         0.00041  20239057.19147  20239055.08249
 -12149945.71448  -9467484.02145         0.00041  23184592.57445  23184590.26348
  15855660.04048  12355047.39844         0.00041  24262897.59344  24262891.00048
 -18853028.78949 -14690658.64946         0.00041  21629597.28146  21629593.96549
  -2694085.61149  -2099284.97746         0.00041  21119178.97746  21119176.11749
 -20666977.61049 -16104131.00146         0.00041  21089579.54846  21089578.15649
 97 06 27 18 20 00.0000000  0  7 04 05 06 09 10 24 30
  16015467.03348  12479581.46745         0.00041  23656045.86545  23656043.05748
 -15703498.59549 -12236491.00947         0.00041  20241321.04747  20241319.04549
 -12217130.30548  -9519835.61545         0.00041  23171808.39045  23171805.25048
  15946175.72848  12425579.00644         0.00041  24280120.76644  24280115.78848
 -18914767.03049 -14738766.34146         0.00041  21617848.75146  21617845.58849
  -2634261.90249  -2052669.10746         0.00041  21130563.11346  21130560.37849
 -20725582.29649 -16149796.98646         0.00041  21078427.70946  21078426.22049
 97 06 27 18 20 30.0000000  0  7 04 05 06 09 10 24 30
  16110548.51948  12553670.87245         0.00041  23674137.96545  23674136.44048
 -15691063.70549 -12226801.49847         0.00041  20243687.34447  20243685.16549
 -12284291.93148  -9572169.31445         0.00041  23159029.50645  23159024.80848
  16036665.86748  12496090.69144         0.00041  24297342.40844  24297335.94448
 -18976088.23549 -14786549.06646         0.00041  21606179.87646  21606176.37949
  -2574139.29949  -2005820.32946         0.00041  21142003.70646  21142001.05949
 -20783718.04549 -16195097.56946         0.00041  21067364.70946  21067363.08049
 97 06 27 18 21 00.0000000  0  7 04 05 06 09 10 24 30
  16205681.06948  12627800.10245         0.00041  23692242.06645  23692239.50848
 -15678042.18649 -12216654.87347         0.00041  20246165.29447  20246163.07549
 -12351401.68348  -9624462.58545         0.00041  23146257.40945  23146254.29448
  16127151.84848  12566599.15844         0.00041  24314559.14244  24314554.54048
 -19036957.62249 -14833979.72946         0.00041  21594596.62046  21594593.41849
  -2513694.91449  -1958720.82446         0.00041  21153505.96246  21153503.37749
 -20841361.57049 -16240014.59746         0.00041  21056395.35946  21056393.87849
 97 06 27 18 21 30.0000000  0  7 04 05 06 09 10 24 30
  16300846.39248  12701954.83745         0.00041  23710351.01845  23710349.20548
 -15664437.38049 -12206053.74047         0.00041  20248754.35747  20248752.09849
 -12418480.66248  -9676731.86045         0.00041  23133493.29445  23133489.85548
  16217627.50448  12637099.55344         0.00041  24331777.31044  24331771.31748
 -19097370.64549 -14881054.78246         0.00041  21583100.26846  21583097.34049
  -2452958.75149  -1911393.95546         0.00041  21165063.89246  21165060.83549
 -20898541.89249 -16284570.69846         0.00041  21045514.42246  21045512.80449
 97 06 27 18 22 00.0000000  0  7 04 05 06 09 10 24 30
  16395977.21748  12776082.72145         0.00041  23728455.08545  23728451.91848
 -15650317.63549 -12195051.35847         0.00041  20251440.98647  20251438.95549
 -12485585.68648  -9729021.43045         0.00041  23120723.16445  23120720.27848
  16308034.82148  12707546.69844         0.00041  24348984.22444  24348975.78448
 -19157384.92649 -14927819.12446         0.00041  21571679.94446  21571676.72049
  -2392014.33149  -1863904.80746         0.00041  21176661.00946  21176658.17349
 -20955350.40349 -16328837.06746         0.00041  21034704.20146  21034702.59249
 97 06 27 18 22 30.0000000  0  7 04 05 06 09 10 24 30
  16491138.00548  12850233.94745         0.00041  23746563.28445  23746560.25548
 -15635628.64649 -12183605.40947         0.00041  20254236.30647  20254234.26949
 -12552664.57148  -9781290.66145         0.00041  23107958.62645  23107955.78848
  16398424.29748  12777979.95344         0.00041  24366181.49944  24366176.85648
 -19216920.84449 -14974210.71046         0.00041  21560350.53046  21560347.36249
  -2330802.70149  -1816207.44546         0.00041  21188309.69246  21188306.53149
 -21011726.88149 -16372766.79146         0.00041  21023975.85846  21023974.53149
 97 06 27 18 23 00.0000000  0  8 04 05 06 09 10 17 24 30
  16586482.97148  12924528.68645         0.00041  23764706.76045  23764704.00248
 -15620244.02349 -12171617.40947         0.00041  20257164.04247  20257161.90949
 -12619572.81848  -9833426.91945         0.00041  23095226.16745  23095223.54548
  16488918.85748  12848495.11344         0.00041  24383404.47344  24383397.35948
 -19275823.54148 -15020108.87746         0.00041  21549141.88446  21549138.61148
        -0.68557         0.00051         0.00051         0.00051  25609628.72857
  -2269209.33349  -1768212.62846         0.00041  21200030.34346  21200027.17049
 -21067510.38249 -16416234.45146         0.00041  21013360.85946  21013359.42949
 97 06 27 18 23 30.0000000  0  8 04 05 06 09 10 17 24 30
  16681748.95548  12998761.88245         0.00041  23782834.34445  23782832.42248
 -15604445.90849 -12159307.20547         0.00041  20260170.24747  20260168.10949
 -12686561.48948  -9885625.85145         0.00041  23082478.53345  23082476.10348
  16579239.61148  12918874.78044         0.00041  24400590.02844  24400584.74748
 -19334353.63749 -15065716.70246         0.00041  21538003.64646  21538000.44449
    -98432.55248         0.00041         0.00041         0.00041  25590898.14848
  -2207500.44049  -1720127.79146         0.00041  21211773.15346  21211770.24349
 -21122967.17649 -16459447.53146         0.00041  21002807.47646  21002806.37749
 97 06 27 18 24 00.0000000  0  8 04 05 06 09 10 17 24 30
  16776965.76648  13072956.76244         0.00041  23800953.83644  23800951.52048
 -15588231.70149 -12146672.77347         0.00041  20263255.77947  20263253.57049
 -12753611.91848  -9937872.90545         0.00041  23069719.62845  23069716.45848
  16669382.62248  12989115.99144         0.00041  24417743.94844  24417738.55948
 -19392503.89749 -15111028.55646         0.00041  21526938.28946  21526934.76349
   -196886.93948   -153417.63341         0.00041         0.00041  25572163.09648
  -2145665.32149  -1671944.59446         0.00041  21223540.01146  21223537.12049
 -21178082.14849 -16502394.25646         0.00041  20992319.76046  20992318.13649
 97 06 27 18 24 30.0000000  0  8 04 05 06 09 10 17 24 30
  16872271.13248  13147220.66844         0.00041  23819090.71844  23819087.49348
 -15571485.36049 -12133623.68747         0.00041  20266442.61147  20266440.44149
 -12820617.06748  -9990084.66745         0.00041  23056968.24545  23056965.67048
  16759455.60548  13059302.56944         0.00041  24434885.81244  24434879.00448
 -19450158.71449 -15155954.34846         0.00041  21515966.87446  21515963.49449
   -295258.16348         0.00041         0.00041         0.00041  25553443.78848
  -2083593.27449  -1623576.77946         0.00041  21235351.98446  21235349.10949
 -21232714.77549 -16544965.13246         0.00041  20981923.48446  20981921.83649
 97 06 27 18 25 00.0000000  0  8 04 05 06 09 10 17 24 30
  16967679.03548  13221564.46144         0.00041  23837244.79544  23837242.84848
 -15554189.31249 -12120146.26047         0.00041  20269733.73147  20269731.50549
 -12887539.66248 -10042232.10445         0.00041  23044233.62245  23044231.17948
  16849471.28448  13129444.54344         0.00041  24452012.16944  24452008.95848
 -19507313.30148 -15200490.35046         0.00041  21505090.63046  21505087.18048
   -393517.20448   -306635.93541         0.00041         0.00041  25534746.27248
  -2021275.69449  -1575017.64446         0.00041  21247210.79246  21247207.79449
 -21286852.31249 -16587150.22046         0.00041  20971621.42646  20971619.92149
 97 06 27 18 25 30.0000000  0  8 04 05 06 09 10 17 24 30
  17063131.86648  13295943.23544         0.00041  23855410.05344  23855407.47148
 -15536365.88149 -12106257.88847         0.00041  20273125.51647  20273123.31749
 -12954421.26548 -10094347.59845         0.00041  23031506.91845  23031503.88048
  16939410.12848  13199526.65344         0.00041  24469127.74344  24469123.31748
 -19564013.60449 -15244672.36946         0.00041  21494300.73846  21494297.57849
   -491698.12148   -383140.46641         0.00041         0.00041  25516063.00248
  -1958732.71149  -1526282.86746         0.00041  21259112.06346  21259109.18449
 -21340553.20949 -16628995.07246         0.00041  20961402.66246  20961401.05349
 97 06 27 18 26 00.0000000  0  8 04 05 06 09 10 17 24 30
  17158531.88948  13370280.85844         0.00041  23873563.22044  23873560.94448
 -15518091.99349 -12092018.51247         0.00041  20276603.06247  20276600.82349
 -13021366.10848 -10146512.38945         0.00041  23018767.27345  23018764.04048
  17029190.10848  13269484.92644         0.00041  24486211.54544  24486208.09148
 -19620343.96449 -15288566.12246         0.00041  21483581.85146  21483578.56749
   -589875.47148   -459642.26941         0.00041         0.00041  25497380.00448
  -1896051.55249  -1477440.42046         0.00041  21271039.87146  21271036.67249
 -21393888.66849 -16670555.17146         0.00041  20951253.13346  20951251.62449
 97 06 27 18 26 30.0000000  0  8 04 05 06 09 10 17 24 30
  17253917.74748  13444607.46044         0.00041  23891716.09144  23891712.54748
 -15499305.08749 -12077379.38147         0.00041  20280177.93547  20280175.75649
 -13088301.36048 -10198669.68645         0.00041  23006029.77645  23006026.75048
  17118882.54048  13339375.04144         0.00041  24503281.58044  24503276.16548
 -19676221.34549 -15332106.90746         0.00041  21472948.48146  21472945.11349
   -687971.99248   -536081.04041         0.00041         0.00041  25478712.89848
  -1833164.49949  -1428437.53346         0.00041  21283006.79146  21283003.88949
 -21446782.50649 -16711771.15346         0.00041  20941187.84646  20941186.36049
 97 06 27 18 27 00.0000000  0  8 04 05 06 09 10 17 24 30
  17349365.70748  13518982.43544         0.00041  23909879.33844  23909875.74348
 -15479897.05449 -12062256.25747         0.00041  20283871.24447  20283869.11249
 -13155108.43348 -10250727.11645         0.00041  22993316.60745  22993313.69348
  17208599.98348  13409284.60944         0.00041  24520354.62244  24520348.47448
 -19731524.78749 -15375200.46446         0.00041  21462424.39246  21462421.19649
   -785851.55748         0.00041         0.00041         0.00041  25460086.61048
  -1769955.45149  -1379183.74346         0.00041  21295035.49946  21295032.58649
 -21499127.95849 -16752559.81846         0.00041  20931226.86546  20931225.29749
 97 06 27 18 27 30.0000000  0  8 04 05 06 09 10 17 24 30
  17444822.18148  13593364.04844         0.00041  23928044.53644  23928040.43948
 -15459923.27649 -12046692.29347         0.00041  20287672.15247  20287669.91849
 -13221852.45548 -10302735.40045         0.00041  22980615.17445  22980612.88048
  17298297.46148  13479178.61144         0.00041  24537422.61144  24537417.75248
 -19786295.15149 -15417878.63546         0.00041  21452002.28646  21451999.11349
   -883560.94648   -688487.76041         0.00041         0.00041  25441492.80048
  -1706482.24949  -1329724.12446         0.00041  21307113.91646  21307110.88049
 -21550967.51349 -16792954.27946         0.00041  20921362.04046  20921360.33749
 97 06 27 18 28 00.0000000  0  8 04 05 06 09 10 17 24 30
  17540251.86148  13667724.78744         0.00041  23946203.59044  23946200.42148
 -15439458.98949 -12030746.11347         0.00041  20291566.50847  20291564.19049
 -13288580.92148 -10354731.57845         0.00041  22967917.59745  22967915.42748
  17387913.09548  13549008.84144         0.00041  24554477.62744  24554470.83648
 -19840570.17549 -15460170.83046         0.00041  21441673.59446  21441670.40649
   -981146.88248   -764528.60941         0.00041         0.00041  25422923.16248
  -1642806.82149  -1280106.92646         0.00041  21319230.86746  21319228.05349
 -21602329.49049 -16832976.59947         0.00041  20911588.28647  20911586.71649
 97 06 27 18 28 30.0000000  0  8 04 05 06 09 10 17 24 30
  17635694.84148  13742095.88244         0.00041  23964366.14244  23964362.27648
 -15418472.75049 -12014393.22247         0.00041  20295560.03847  20295557.69449
 -13355248.55448 -10406680.33846         0.00041  22955231.27146  22955228.86348
  17477481.69648  13618802.44844         0.00041  24571518.62644  24571514.92148
 -19894308.89949 -15502045.13346         0.00041  21431447.53146  21431444.39849
  -1078598.02448   -840464.45741         0.00041         0.00041  25404378.40848
  -1578903.92149  -1230312.47646         0.00041  21331390.94646  21331388.23249
 -21653192.64549 -16872610.22146         0.00041  20901909.35046  20901907.85749
 97 06 27 18 29 00.0000000  0  8 04 05 06 09 10 17 24 30
  17731186.42848  13816504.87644         0.00041  23982537.11044  23982533.91648
 -15396917.36849 -11997596.83847         0.00041  20299661.89847  20299659.60449
 -13421844.43248 -10458573.19346         0.00041  22942558.75546  22942556.25648
  17567027.62948  13688578.35444         0.00041  24588561.16444  24588555.32848
 -19947493.73649 -15543487.84046         0.00041  21421326.95846  21421323.88849
  -1175898.31148   -916282.75344         0.00041  25385867.74144  25385862.74848
  -1514750.15549  -1180322.54046         0.00041  21343599.03746  21343596.13849
 -21703538.66049 -16911840.87847         0.00041  20892328.98547  20892327.43349
 97 06 27 18 29 30.0000000  0  8 04 05 06 09 10 17 24 30
  17826745.82548  13890966.66845         0.00041  24000722.74145  24000718.25148
 -15374780.58549 -11980347.41247         0.00041  20303874.51247  20303872.28249
 -13488377.74548 -10510417.29546         0.00041  22929896.88246  22929895.05248
  17656556.94548  13758341.32044         0.00041  24605601.06044  24605592.62148
 -20000119.55349 -15584494.95046         0.00041  21411312.47546  21411309.25449
  -1273055.83748         0.00041         0.00041         0.00041  25367373.73148
  -1450335.54849  -1130129.35846         0.00041  21355856.90546  21355853.84549
 -21753369.17949 -16950669.85447         0.00041  20882846.51647  20882844.82649
 97 06 27 18 30 00.0000000  0  8 04 05 06 09 10 17 24 30
  17922388.99348  13965493.74644         0.00041  24018922.02444  24018919.08648
 -15352030.48449 -11962620.08147         0.00041  20308203.65447  20308201.36349
 -13554827.57548 -10562196.35346         0.00041  22917253.08546  22917250.16048
  17746077.74648  13828097.67244         0.00041  24622633.59944  24622627.61448
 -20052170.00849 -15625053.72246         0.00041  21401407.73346  21401404.52849
  -1370058.35148  -1067576.04341         0.00041         0.00041  25348914.74948
  -1385626.53549  -1079706.77346         0.00041  21368170.59446  21368167.50549
 -21802662.53949 -16989080.26247         0.00041  20873466.41047  20873464.72649
 97 06 27 18 30 30.0000000  0  8 04 05 06 09 10 17 24 30
  18018085.89748  14040062.72745         0.00041  24037133.52545  24037130.34448
 -15328657.44849 -11944407.35147         0.00041  20312651.13947  20312648.94449
 -13621214.25048 -10613926.20046         0.00041  22904619.01146  22904617.15448
  17835562.69948  13897826.09044         0.00041  24639661.60344  24639656.16748
 -20103675.73049 -15665188.03246         0.00041  21391606.33646  21391603.20549
  -1466916.27848  -1143049.63841         0.00041         0.00041  25330483.62048
  -1320643.71449  -1029070.82046         0.00041  21380536.38146  21380533.58849
 -21851444.26249 -17027091.99547         0.00041  20864183.22047  20864181.76449
 97 06 27 18 31 00.0000000  0  8 04 05 06 09 10 17 24 30
  18113807.25848  14114650.73945         0.00041  24055348.34145  24055344.37448
 -15304689.20949 -11925730.82447         0.00041  20317212.28347  20317210.07049
 -13687566.62348 -10665629.32046         0.00041  22891993.32346  22891990.50648
  17924977.51248  13967499.84644         0.00041  24656675.99144  24656671.35748
 -20154671.44849 -15704924.94046         0.00041  21381902.14646  21381899.16449
  -1563633.46648         0.00041         0.00041         0.00041  25312078.29448
  -1255407.38149   -978237.33646         0.00041  21392950.62446  21392947.55449
 -21899721.07849 -17064710.29947         0.00041  20854996.80247  20854995.00949
 97 06 27 18 31 30.0000000  0  8 04 05 06 09 10 17 24 30
  18209396.43748  14189135.74445         0.00041  24073538.32045  24073534.34448
 -15280328.34749 -11906748.35847         0.00041  20321848.06847  20321845.71949
 -13754038.42448 -10717425.49146         0.00041  22879343.78546  22879340.89248
  18014141.66348  14036978.28744         0.00041  24673642.78544  24673638.58148
 -20205323.37149 -15744393.96046         0.00041  21372263.53446  21372260.50749
  -1660377.19248  -1293798.25141         0.00041         0.00041  25293668.96248
  -1190090.41149   -927341.01346         0.00041  21405380.02746  21405377.05049
 -21947645.26349 -17102053.82147         0.00041  20845877.12747  20845875.48649
 97 06 27 18 32 00.0000000  0  8 04 05 06 09 10 17 24 30
  18304882.01648  14263540.06044         0.00041  24091707.84944  24091704.85248
 -15255560.18849 -11887448.51647         0.00041  20326561.47247  20326559.01449
 -13820590.01248 -10769283.82246         0.00041  22866679.90746  22866676.99948
  18103058.37648  14106263.92944         0.00041  24690564.92744  24690559.41048
 -20255611.23149 -15783579.28746         0.00041  21362694.26546  21362691.00949
  -1757119.96348  -1369182.13241         0.00041         0.00041  25275259.85748
  -1124675.09049   -876368.04946         0.00041  21417828.22446  21417825.40249
 -21995190.36349 -17139101.95347         0.00041  20836829.38147  20836827.81549
 97 06 27 18 32 30.0000000  0  8 04 05 06 09 10 17 24 30
  18400338.08448  14337921.37444         0.00041  24109870.19744  24109869.09148
 -15230320.29149 -11867781.08247         0.00041  20331364.40647  20331361.98549
 -13887140.84248 -10821141.57946         0.00041  22854015.35346  22854012.65548
  18191817.18448  14175426.49644         0.00041  24707455.19244  24707449.91348
 -20305453.70149 -15822417.55346         0.00041  21353209.34546  21353206.12649
  -1853781.43048  -1444502.64641         0.00041         0.00041  25256865.28048
  -1059089.41049   -825262.33546         0.00041  21430308.71046  21430305.83949
 -22042282.07249 -17175796.79547         0.00041  20827868.16747  20827866.28649
 97 06 27 18 33 00.0000000  0  8 04 05 06 09 10 17 24 30
  18495822.41748  14412324.66344         0.00041  24128043.21644  24128039.64748
 -15204569.96649 -11847715.91447         0.00041  20336264.58947  20336262.01949
 -13953628.64548 -10872950.24446         0.00041  22841362.31246  22841360.59448
  18280484.52848  14244517.83144         0.00041  24724326.03344  24724322.30548
 -20354788.26149 -15860860.04146         0.00041  21343821.27646  21343818.14349
  -1950312.30448  -1519721.42944         0.00041  25238506.38344  25238496.70348
   -993269.85049   -773974.37946         0.00041  21442833.66346  21442830.58449
 -22088860.93649 -17212092.01347         0.00041  20819004.58047  20819002.77749
 97 06 27 18 33 30.0000000  0  8 04 05 06 09 10 17 24 30
  18591378.58448  14486783.96844         0.00041  24146227.85644  24146223.48048
 -15178250.85349 -11827207.53647         0.00041  20341273.06447  20341270.56249
 -14020004.26048 -10924671.47346         0.00041  22828731.42046  22828729.49448
  18369106.11348  14313573.49644         0.00041  24741193.67144  24741186.42448
 -20403565.44149 -15898868.21746         0.00041  21334539.31246  21334536.14749
  -2046679.49148  -1594812.60644         0.00041  25220166.69444  25220158.00648
   -927177.29949   -722473.71446         0.00041  21455410.97346  21455407.93949
 -22134888.40749 -17247957.57747         0.00041  20810245.80747  20810243.66849
 97 06 27 18 34 00.0000000  0  8 04 05 06 09 10 17 24 30
  18686987.99548  14561284.75644         0.00041  24164420.04344  24164417.78848
 -15151322.17049 -11806224.17447         0.00041  20346397.47047  20346394.88249
 -14086266.65948 -10976304.48846         0.00041  22816122.92046  22816119.77148
  18457697.80648  14382605.86344         0.00041  24758052.19844  24758045.19148
 -20451774.52449 -15936433.72546         0.00041  21325365.26446  21325362.03249
  -2142868.41848  -1669764.96744         0.00041  25201862.03344  25201853.84148
   -860810.29249   -670759.17646         0.00041  21468040.13846  21468037.11449
 -22180362.27949 -17283391.76447         0.00041  20801592.51947  20801590.55649
 97 06 27 18 34 30.0000000  0  8 04 05 06 09 10 17 24 30
  18782602.44148  14635789.48544         0.00041  24182612.69944  24182612.39148
 -15123802.22949 -11784780.09147         0.00041  20351634.23447  20351631.91449
 -14152454.47648 -11027879.38046         0.00041  22803527.38746  22803524.73248
  18546242.97448  14451602.01744         0.00041  24774903.27544  24774894.58748
 -20499438.42849 -15973574.41746         0.00041  21316295.22646  21316292.00449
  -2238921.63048  -1744611.51541         0.00041         0.00041  25183576.11548
   -794224.03049   -618873.79846         0.00041  21480711.23946  21480708.17249
 -22225302.06849 -17318409.78446         0.00041  20793040.79946  20793038.83549
 97 06 27 18 35 00.0000000  0  8 04 05 06 09 10 17 24 30
  18878169.01948  14710256.90744         0.00041  24200800.79544  24200798.59948
 -15095739.79049 -11762913.28247         0.00041  20356974.32247  20356972.04849
 -14218627.45348 -11079442.70946         0.00041  22790935.49046  22790932.93948
  18634672.06048  14520507.64744         0.00041  24791728.59344  24791722.70948
 -20546607.69449 -16010329.68146         0.00041  21307319.16546  21307315.92149
  -2334900.72448         0.00041         0.00041         0.00041  25165311.89348
   -727489.92549   -566873.21946         0.00041  21493410.20246  21493407.27249
 -22269763.17249 -17353054.80347         0.00041  20784580.08147  20784578.25949
 97 06 27 18 35 30.0000000  0  8 04 05 06 09 10 17 24 30
  18973624.04248  14784637.38844         0.00041  24218963.43644  24218962.81448
 -15067191.27549 -11740667.70747         0.00041  20362406.79247  20362404.56049
 -14284855.42648 -11131048.89746         0.00041  22778332.70546  22778330.33248
  18722912.02648  14589265.96644         0.00041  24808520.43444  24808515.72748
 -20593334.73249 -16046740.34446         0.00041  21298427.25446  21298424.03449
  -2430865.73948  -1894178.23841         0.00041         0.00041  25147049.27948
   -660683.02149   -514815.90946         0.00041  21506123.14346  21506120.21249
 -22313817.29349 -17387382.69147         0.00041  20776196.56847  20776194.93449
 97 06 27 18 36 00.0000000  0  8 04 05 06 09 10 17 24 30
  19069141.70348  14859066.73444         0.00041  24237142.23444  24237138.56648
 -15037994.24249 -11717916.79547         0.00041  20367962.93847  20367960.59549
 -14350968.77248 -11182565.76546         0.00041  22765752.02146  22765748.98948
  18811141.32948  14658015.97644         0.00041  24825311.40544  24825304.17748
 -20639428.97549 -16082657.92146         0.00041  21289655.95946  21289652.84749
  -2526630.39148  -1968799.98144         0.00041  25128831.92144  25128826.00048
   -593618.35749   -462557.75346         0.00041  21518885.16546  21518882.00649
 -22357292.75849 -17421259.67947         0.00041  20767923.56647  20767921.81049
 97 06 27 18 36 30.0000000  0  8 04 05 06 09 10 17 24 30
  19164737.37348  14933556.77844         0.00041  24255333.90444  24255330.12348
 -15008167.32549 -11694675.06047         0.00041  20373638.90447  20373636.58849
 -14416971.77248 -11233996.65646         0.00041  22753192.22446  22753189.05448
  18899352.79648  14726752.08544         0.00041  24842095.68744  24842089.64848
 -20684894.61549 -16118085.67246         0.00041  21281003.98946  21281000.80849
  -2622197.55348  -2043267.78844         0.00041  25110642.34544  25110640.04848
   -526296.90149   -410099.49346         0.00041  21531695.67946  21531692.64149
 -22400192.31549 -17454687.90847         0.00041  20759760.17347  20759758.42049
 97 06 27 18 37 00.0000000  0  8 04 05 06 09 10 17 24 30
  19260323.05448  15008039.08844         0.00041  24273519.20644  24273519.37248
 -14977819.28849 -11671027.26147         0.00041  20379414.03947  20379411.59349
 -14482967.60148 -11285421.94846         0.00041  22740633.23246  22740629.94848
  18987433.51048  14795386.27244         0.00041  24858854.52144  24858851.15548
 -20729836.41249 -16153105.24146         0.00041  21272451.88446  21272448.74749
  -2717638.03948  -2117636.95444         0.00041  25092484.75544  25092478.00148
   -458793.53749   -357499.48946         0.00041  21544541.40846  21544538.23249
 -22442613.61249 -17487743.46447         0.00041  20751687.52547  20751685.95449
 97 06 27 18 37 30.0000000  0  8 04 05 06 09 10 17 24 30
  19355849.86748  15082475.50244         0.00041  24291702.98744  24291697.47748
 -14947001.43949 -11647013.37647         0.00041  20385278.69547  20385276.05249
 -14548995.40248 -11336872.16146         0.00041  22728068.50746  22728065.42648
  19075338.19648  14863883.36544         0.00041  24875587.40944  24875579.21848
 -20774304.00749 -16187755.29746         0.00041  21263989.97746  21263986.82349
  -2812977.82548  -2191927.58244         0.00041  25074343.59644  25074335.95948
   -391136.89649   -304780.04746         0.00041  21557415.95546  21557412.92049
 -22484583.57949 -17520447.33347         0.00041  20743701.00447  20743699.33949
 97 06 27 18 38 00.0000000  0  8 04 05 06 09 10 17 24 30
  19451315.09348  15156863.91944         0.00041  24309867.30144  24309863.61248
 -14915718.65149 -11622637.20147         0.00041  20391231.43247  20391229.00449
 -14615049.20048 -11388342.62546         0.00041  22715498.88646  22715495.61748
  19163063.10248  14932240.32444         0.00041  24892277.87944  24892272.19248
 -20818303.85049 -16222040.87246         0.00041  21255616.96446  21255613.79149
  -2908216.31348  -2266139.30744         0.00041  25056219.94644  25056212.92948
   -323323.79249   -251938.69446         0.00041  21570320.58746  21570317.47349
 -22526085.13549 -17552786.20847         0.00041  20735803.35947  20735801.59649
 97 06 27 18 38 30.0000000  0  8 04 05 06 09 10 17 24 30
  19546802.82248  15231269.84444         0.00041  24328037.22544  24328034.06148
 -14883892.74449 -11597837.81947         0.00041  20397287.75847  20397285.40149
 -14681042.02348 -11439765.57046         0.00041  22702940.50346  22702937.88548
  19250678.77948  15000512.20744         0.00041  24908952.93544  24908945.05548
 -20861767.32649 -16255908.50446         0.00041  21247346.32646  21247343.19949
  -3003272.56348  -2340209.03544         0.00041  25038129.77744  25038123.42148
   -255283.46349   -198920.27746         0.00041  21583268.09746  21583265.17249
 -22567031.81749 -17584692.71447         0.00041  20728011.42347  20728009.87349
 97 06 27 18 39 00.0000000  0  8 04 05 06 09 10 17 24 30
  19642350.46248  15305722.45444         0.00041  24346217.31344  24346216.45948
 -14851484.91149 -11572584.99047         0.00041  20403454.88447  20403452.31549
 -14746916.79648 -11491096.54546         0.00041  22690404.61246  22690402.62848
  19338227.21848  15068731.65244         0.00041  24925611.18744  24925605.30648
 -20904637.72249 -16289313.99346         0.00041  21239188.31246  21239185.11949
  -3098098.62248  -2414099.34744         0.00041  25020084.75844  25020078.84948
   -186964.51149   -145684.74746         0.00041  21596268.51446  21596265.64749
 -22607378.20349 -17616131.45747         0.00041  20720333.63047  20720332.42149
 97 06 27 18 39 30.0000000  0  8 04 05 06 09 10 17 24 30
  19738007.29648  15380260.26044         0.00041  24364421.96544  24364420.51648
 -14818442.97649 -11546838.06147         0.00041  20409742.30647  20409739.93449
 -14812607.92448 -11542284.41346         0.00041  22677904.91346  22677902.01148
  19425767.48248  15136944.74844         0.00041  24942270.32544  24942263.52248
 -20946849.98149 -16322206.64646         0.00041  21231155.62046  21231152.23249
  -3192662.41848  -2487785.32144         0.00041  25002087.06144  25002084.21848
   -118321.92649    -92197.03746         0.00041  21609331.05646  21609327.89449
 -22647079.45649 -17647067.50147         0.00041  20712778.78447  20712777.62249
 97 06 27 18 40 00.0000000  0  8 04 05 06 09 10 17 24 30
  19833686.31148  15454815.31544         0.00041  24382629.69144  24382627.74048
 -14784842.32049 -11520655.76347         0.00041  20416136.42547  20416134.20149
 -14878209.42048 -11593402.44146         0.00041  22665421.20846  22665418.37348
  19513208.63348  15205080.61244         0.00041  24958910.58944  24958903.25148
 -20988483.00149 -16354647.94246         0.00041  21223232.89746  21223229.73349
  -3287069.02948  -2561348.78744         0.00041  24984125.01044  24984118.95048
    -49458.50449    -38537.25246         0.00041  21622435.38146  21622432.18949
 -22686237.07449 -17677579.93747         0.00041  20705327.15047  20705325.96349
 97 06 27 18 40 30.0000000  0  8 04 05 06 09 10 17 24 30
  19929176.84348  15529223.46744         0.00041  24400802.72044  24400798.81248
 -14750877.84049 -11494189.96147         0.00041  20422599.57147  20422597.28449
 -14943915.06948 -11644601.63246         0.00041  22652917.19846  22652915.02048
  19600352.13348  15272984.55844         0.00041  24975490.21544  24975486.16848
 -21029726.53149 -16386785.74546         0.00041  21215384.54346  21215381.32249
  -3381519.04848  -2634946.12244         0.00041  24966152.23044  24966145.69048
     19417.32349     15132.20246         0.00041  21635541.63046  21635539.25449
 -22725052.91649 -17707826.05047         0.00041  20697941.09447  20697939.58549
 97 06 27 18 41 00.0000000  0  8 04 05 06 09 10 17 24 30
  20024478.87748  15603484.72544         0.00041  24418937.37944  24418934.45848
 -14716519.43249 -11467417.20147         0.00041  20429137.91447  20429135.74749
 -15009713.68348 -11695873.24646         0.00041  22640396.60246  22640393.64248
  19687216.86348  15340671.31344         0.00041  24992021.25644  24992016.04748
 -21070555.25649 -16418600.32046         0.00041  21207615.22846  21207611.89649
  -3476005.20948  -2708571.60144         0.00041  24948171.27444  24948165.44948
     88314.99949     68818.68546         0.00041  21648652.14446  21648649.57349
 -22763504.72049 -17737788.50047         0.00041  20690623.70647  20690622.50549
 97 06 27 18 41 30.0000000  0  8 04 05 06 09 10 17 24 30
  20119641.55848  15677637.41044         0.00041  24437047.18544  24437043.62948
 -14681704.47949 -11440288.69447         0.00041  20435762.94347  20435760.77749
 -15075567.84648 -11747188.15646         0.00041  22627864.58046  22627862.40648
  19773836.93548  15408167.37044         0.00041  25008504.72544  25008499.35848
 -21110927.65149 -16450059.31046         0.00041  21199932.55746  21199929.12449
  -3570484.39948  -2782191.66544         0.00041  24930194.40044  24930186.47748
    157267.70049    122548.05146         0.00041  21661773.60046  21661770.88149
 -22801534.84549 -17767422.36747         0.00041  20683386.88247  20683385.39549
 97 06 27 18 42 00.0000000  0  8 04 05 06 09 10 17 24 30
  20214745.28648  15751744.14444         0.00041  24455144.87644  24455141.16148
 -14646349.86649 -11412739.66647         0.00041  20442490.55347  20442488.46749
 -15141388.94248 -11798477.29946         0.00041  22615339.08846  22615336.74948
  19860290.82448  15475533.94344         0.00041  25024959.05744  25024951.14148
 -21150766.79549 -16481102.77846         0.00041  21192351.30946  21192347.90449
  -3664870.00348  -2855738.80244         0.00041  24912231.30344  24912225.51148
    226342.87849    176372.84046         0.00041  21674918.57246  21674915.39849
 -22839045.51549 -17796651.46447         0.00041  20676248.99247  20676247.42049
 97 06 27 18 42 30.0000000  0  8 04 05 06 09 10 17 24 30
  20309867.72648  15825865.47644         0.00041  24473245.52644  24473242.08548
 -14610402.43249 -11384728.70147         0.00041  20449331.28047  20449328.91849
 -15207090.62148 -11849673.38646         0.00041  22602836.51746  22602834.44848
  19946649.12548  15542826.02944         0.00041  25041390.69644  25041384.78848
 -21189993.19449 -16511668.78146         0.00041  21184886.85546  21184883.59549
  -3759065.80248  -2929138.05344         0.00041  24894304.06044  24894300.97548
    295614.53749    230350.73546         0.00041  21688100.30846  21688097.69449
 -22875952.11449 -17825409.85447         0.00041  20669225.72247  20669224.41849
 97 06 27 18 43 00.0000000  0  8 04 05 06 09 10 17 24 30
  20405072.52048  15900050.99444         0.00041  24491360.02244  24491358.95148
 -14573819.38049 -11356222.45347         0.00041  20456292.88047  20456290.61149
 -15272643.64748 -11900753.64846         0.00041  22590362.07846  22590360.08648
  20032957.44348  15610079.19544         0.00041  25057817.69044  25057808.50648
 -21228567.38749 -16541726.58246         0.00041  21177546.37146  21177543.06049
  -3853009.68948  -3002340.99244         0.00041  24876429.30844  24876423.51648
    365138.75249    284525.43446         0.00041  21701330.59646  21701327.42949
 -22912203.70549 -17853657.84647         0.00041  20662327.43047  20662325.98149
 97 06 27 18 43 30.0000000  0  8 04 05 06 09 10 17 24 30
  20500357.17148  15974298.75544         0.00041  24509492.89844  24509491.55548
 -14536627.90549 -11327242.10847         0.00041  20463370.10347  20463367.70649
 -15338052.09148 -11951721.24346         0.00041  22577915.20246  22577913.31248
  20119199.64148  15677280.81844         0.00041  25074225.59844  25074219.99748
 -21266512.58949 -16571294.25746         0.00041  21170325.59546  21170322.42249
  -3946710.86448  -3075354.80544         0.00041  24858599.87944  24858592.59348
    434912.39249    338894.47646         0.00041  21714607.88946  21714604.92449
 -22947818.28449 -17881409.46847         0.00041  20655550.18047  20655548.89549
 97 06 27 18 44 00.0000000  0  8 04 05 06 09 10 17 24 30
  20595690.80548  16048584.67144         0.00041  24527634.76444  24527633.35648
 -14498858.72449 -11297811.60447         0.00041  20470557.49947  20470555.31149
 -15403326.08648 -12002584.07146         0.00041  22565494.23946  22565491.80648
  20205374.71948  15744430.19844         0.00041  25090623.50144  25090618.44848
 -21303845.16649 -16600384.56346         0.00041  21163221.54146  21163218.36349
  -4040174.50048  -3148183.50644         0.00041  24840816.34944  24840807.16548
    504933.29549    393456.20146         0.00041  21727932.80946  21727929.94849
 -22982819.69249 -17908683.29847         0.00041  20648889.69947  20648888.43949
 97 06 27 18 44 30.0000000  0  8 04 05 06 09 10 17 24 30
  20690974.48748  16122831.63544         0.00041  24545767.90044  24545764.59848
 -14460593.07149 -11267994.24247         0.00041  20477839.17347  20477836.65449
 -15468581.03648 -12053432.06146         0.00041  22553077.10946  22553074.03248
  20291716.52847         0.00041         0.00041         0.00041  25106988.47047
 -21340655.21149 -16629067.69846         0.00041  21156216.86246  21156213.71449
  -4133482.62548  -3220891.11741         0.00041         0.00041  24823050.37048
    575126.59949    448152.25546         0.00041  21741290.06946  21741287.32749
 -23017305.87049 -17935555.64847         0.00041  20642327.28947  20642325.81649
 97 06 27 18 45 00.0000000  0  7 04 05 06 10 17 24 30
  20786160.22748  16197002.22341         0.00041         0.00041  24563877.18348
 -14421852.59849 -11237806.89447         0.00041  20485211.22947  20485208.96949
 -15533861.80248 -12104300.17246         0.00041  22540653.64246  22540651.41448
 -21377002.66449 -16657390.36846         0.00041  21149299.75146  21149296.80749
  -4226701.46448  -3293529.09244         0.00041  24805316.33744  24805311.71348
    645457.70549    502955.68846         0.00041  21754673.86446  21754670.68249
 -23051317.42649 -17962058.16647         0.00041  20635854.83847  20635853.46649
 97 06 27 18 45 30.0000000  0  8 04 05 06 09 10 17 24 30
  20881197.24448  16271056.99244         0.00041  24581965.47244  24581962.36548
 -14382692.62849 -11207292.66247         0.00041  20492663.28547  20492660.89049
 -15599196.83748 -12155210.56946         0.00041  22528220.93546  22528218.85748
        -0.27158         0.44251         0.00051         0.00051  25139603.63558
 -21412914.29149 -16685373.43046         0.00041  21142466.27346  21142463.11449
  -4319890.83148  -3366144.11044         0.00041  24787586.09544  24787578.46848
    715859.17149    557813.95346         0.00041  21768070.62646  21768067.51949
 -23084895.15549 -17988222.63447         0.00041  20629465.38147  20629463.96949
 97 06 27 18 46 00.0000000  0  8 04 05 06 09 10 17 24 30
  20976183.98348  16345072.60141         0.00041         0.00041  24600038.44748
 -14343014.85249 -11176374.94247         0.00041  20500213.49647  20500211.25749
 -15664504.02348 -12206099.26146         0.00041  22515793.70946  22515791.44848
     85420.50348     66562.00241         0.00041         0.00041  25155858.65748
 -21448275.33849 -16712927.47246         0.00041  21135737.34746  21135734.16049
  -4412956.53648  -3438662.79544         0.00041  24769876.50344  24769868.66548
    786410.20149    612788.75646         0.00041  21781495.94946  21781493.09049
 -23117937.95049 -18013970.27147         0.00041  20623177.69147  20623176.02449
 97 06 27 18 46 30.0000000  0  8 04 05 06 09 10 17 24 30
  21071213.95448         0.00041         0.00041         0.00041  24618121.47248
 -14302738.50149 -11144990.80247         0.00041  20507878.11247  20507875.67549
 -15729706.22648 -12256906.15846         0.00041  22503385.67346  22503383.72748
    170752.70548         0.00041         0.00041         0.00041  25172096.42248
 -21482994.07349 -16739981.01646         0.00041  21129130.47846  21129127.30449
  -4505821.29948  -3511024.89044         0.00041  24752208.18444  24752196.76648
    857175.05048    667930.17846         0.00041  21794962.12346  21794959.06148
 -23150355.29449 -18039230.54547         0.00041  20617008.68747  20617007.10149
 97 06 27 18 47 00.0000000  0  8 04 05 06 09 10 17 24 30
  21166256.75048  16493181.19041         0.00041         0.00041  24636206.13548
 -14261922.91549 -11113186.47347         0.00041  20515644.89147  20515642.82649
 -15794816.55848 -12307641.45846         0.00041  22490995.65746  22490993.70048
    255944.48948    199437.73044         0.00041  25188318.20244  25188308.77048
 -21517095.09649 -16766553.23246         0.00041  21122641.07646  21122638.00249
  -4598521.03248  -3583258.41444         0.00041  24734564.00944  24734557.33748
    928102.54249    723198.32646         0.00041  21808459.33746  21808456.11049
 -23182182.72749 -18064031.14647         0.00041  20610952.26647  20610950.60949
 97 06 27 18 47 30.0000000  0  8 04 05 06 09 10 17 24 30
  21261317.10748  16567254.17444         0.00041  24654303.73444  24654296.18248
 -14220564.22249 -11080958.94747         0.00041  20523515.32647  20523513.06249
 -15859824.06548 -12358296.63846         0.00041  22478625.40346  22478622.82748
    340997.34048    265712.61844         0.00041  25204497.83844  25204494.08748
 -21550550.03949 -16792622.00446         0.00041  21116274.71446  21116271.75249
  -4691030.55148  -3655343.66944         0.00041  24716957.00244  24716953.26948
    999196.32549    778596.05346         0.00041  21821988.05246  21821984.90649
 -23213420.37349 -18088372.17247         0.00041  20605007.93847  20605006.56449
 97 06 27 18 48 00.0000000  0  8 04 05 06 09 10 17 24 30
  21356348.16748  16641304.29844         0.00041  24672384.34044  24672380.76248
 -14178681.63349 -11048323.19447         0.00041  20531485.37147  20531483.17949
 -15924767.23448 -12408901.67946         0.00041  22466267.08446  22466264.41548
    425883.41548    331857.53841         0.00041         0.00041  25220647.25248
 -21583406.32549 -16818224.29346         0.00041  21110022.46046  21110019.29749
  -4783370.08648  -3727296.49244         0.00041  24699389.20844  24699381.34348
   1070451.83649    834119.80746         0.00041  21835546.90046  21835544.56749
 -23244105.64149 -18112282.77547         0.00041  20599168.65347  20599167.17249
 97 06 27 18 48 30.0000000  0  8 04 05 06 09 10 17 24 30
  21451298.56648  16715291.58144         0.00041  24690452.87644  24690449.68848
 -14136312.39649 -11015308.23347         0.00041  20539547.72047  20539545.65949
 -15989667.30448 -12459473.15046         0.00041  22453916.89646  22453914.77848
    510563.79948    397842.22841         0.00041         0.00041  25236761.32148
 -21615706.41549 -16843393.19046         0.00041  21103875.94046  21103872.86149
  -4875563.60548  -3799135.48741         0.00041         0.00041  24681837.04948
   1141838.05648    889745.41246         0.00041  21849131.90046  21849128.77348
 -23274277.09549 -18135793.00447         0.00041  20593427.36847  20593425.83849
 97 06 27 18 49 00.0000000  0  8 04 05 06 09 10 17 24 30
  21546189.24148  16789232.33844         0.00041  24708511.50944  24708506.62348
 -14093413.37049 -10981880.45047         0.00041  20547711.69447  20547709.10949
 -16054503.39548 -12509994.75246         0.00041  22441579.70146  22441577.08448
    595062.52148         0.00041         0.00041         0.00041  25252841.09348
 -21647432.73049 -16868114.98846         0.00041  21097838.67946  21097835.56949
  -4967596.75548  -3870849.56944         0.00041  24664332.31344  24664324.12248
   1213385.56348    945496.69546         0.00041  21862746.96846  21862743.83148
 -23303911.24849 -18158884.55547         0.00041  20587788.24247  20587786.49849
 97 06 27 18 49 30.0000000  0  8 04 05 06 09 10 17 24 30
  21641044.91548  16863145.79944         0.00041  24726561.25544  24726557.35948
 -14049940.25549 -10948005.32547         0.00041  20555984.39647  20555981.69649
 -16119261.42048 -12560455.52846         0.00041  22429256.69546  22429253.97148
    679427.41648    529424.12941         0.00041         0.00041  25268894.15648
 -21678562.69949 -16892372.09246         0.00041  21091914.86646  21091911.70649
  -5059448.93148  -3942422.60344         0.00041  24646852.16044  24646845.04248
   1285132.07249   1001403.03846         0.00041  21876400.14646  21876397.06749
 -23332970.11549 -18181527.83247         0.00041  20582258.35247  20582256.77549
 97 06 27 18 50 00.0000000  0  8 04 05 06 09 10 17 24 30
  21735882.79648  16937045.39144         0.00041  24744608.13044  24744603.66448
 -14005883.29649 -10913675.25647         0.00041  20564368.01647  20564365.43549
 -16183934.77748 -12610850.33346         0.00041  22416949.34046  22416946.75348
    763677.08548    595073.20141         0.00041         0.00041  25284926.49748
 -21709078.65849 -16916150.73946         0.00041  21086107.92046  21086104.82249
  -5151098.08248  -4013837.44244         0.00041  24629410.57044  24629404.70348
   1357091.67949   1057475.44046         0.00041  21890093.38946  21890090.74849
 -23361429.62249 -18203704.07547         0.00041  20576842.62947  20576841.01049
 97 06 27 18 50 30.0000000  0  7 04 05 06 10 17 24 30
  21830695.20248  17010925.12144         0.00041  24762651.21744  24762645.50148
 -13961258.81049 -10878902.95847         0.00041  20572859.78547  20572857.20249
 -16248545.51848 -12661196.34646         0.00041  22404654.10046  22404651.72048
 -21739008.36549 -16939472.57246         0.00041  21080412.53746  21080409.34949
  -5242573.70448  -4085117.03144         0.00041  24612000.53744  24611997.88448
   1429213.21348   1113674.02046         0.00041  21903817.69746  21903814.80448
 -23389313.47549 -18225431.75047         0.00041  20571536.33347  20571534.68149
 97 06 27 18 51 00.0000000  0  7 04 05 06 10 17 24 30
  21925504.24748  17084802.21644         0.00041  24780690.19444  24780687.40948
 -13916060.18149 -10843683.27647         0.00041  20581461.01147  20581458.16349
 -16313087.65848 -12711488.91346         0.00041  22392372.12646  22392369.50348
 -21768345.28149 -16962332.49546         0.00041  21074829.80846  21074826.61749
  -5333873.00148  -4156259.23244         0.00041  24594631.40244  24594623.96248
   1501502.65048   1170003.42046         0.00041  21917573.86446  21917571.18648
 -23416609.85949 -18246701.66147         0.00041  20566342.13847  20566340.60849
 97 06 27 18 51 30.0000000  0  7 04 05 06 10 17 24 30
  22020196.73048  17158588.56844         0.00041  24798710.52544  24798707.44948
 -13870421.06149 -10808120.35547         0.00041  20590145.60447  20590143.21949
 -16377662.95248 -12761807.31046         0.00041  22380084.31346  22380081.18348
 -21797199.26149 -16984816.10946         0.00041  21069339.41846  21069336.08049
  -5425083.92248  -4227332.59744         0.00041  24577273.08044  24577266.50848
   1573847.08248   1226375.69146         0.00041  21931340.54746  21931337.44348
 -23443430.39949 -18267600.78547         0.00041  20561238.44247  20561236.72049
 97 06 27 18 52 00.0000000  0  7 04 05 06 10 17 24 30
  22114792.65348  17232299.63644         0.00041  24816712.24544  24816708.39548
 -13824332.56549 -10772207.27446         0.00041  20598916.22946  20598913.27549
 -16442246.07148 -12812131.79146         0.00041  22367794.47246  22367791.34648
 -21825556.12349 -17006912.36646         0.00041  21063942.92746  21063939.72749
  -5516180.58448  -4298316.89244         0.00041  24559938.20144  24559931.41548
   1646248.57148   1282792.41146         0.00041  21945118.32546  21945115.19348
 -23469759.21249 -18288116.74247         0.00041  20556228.13747  20556226.70549
 97 06 27 18 52 30.0000000  0  7 04 05 06 10 17 24 30
  22209298.23048  17305940.33144         0.00041  24834693.75244  24834692.54848
 -13777801.09649 -10735949.01847         0.00041  20607770.76647  20607768.29849
 -16506824.19248 -12862452.38046         0.00041  22355504.82446  22355502.52248
 -21853421.30049 -17028625.48346         0.00041  21058640.39346  21058637.14549
  -5607172.13148  -4369219.33844         0.00041  24542620.93344  24542616.10448
   1718703.58148   1339250.83846         0.00041  21958905.99146  21958902.85448
 -23495582.11049 -18308238.48647         0.00041  20551314.23047  20551312.68349
 97 06 27 18 53 00.0000000  0  7 04 05 06 10 17 24 30
  22303730.87948  17379524.08044         0.00041  24852666.46644  24852661.72448
 -13730822.02749 -10699341.98047         0.00041  20616710.63447  20616708.12649
 -16571357.46748 -12912738.02446         0.00041  22343225.17546  22343222.27448
 -21880742.35649 -17049914.60646         0.00041  21053441.41546  21053438.20749
  -5698015.63248  -4440006.40144         0.00041  24525334.50944  24525329.28448
   1791258.89348   1395787.41546         0.00041  21972712.66546  21972709.59648
 -23520857.35049 -18327933.47847         0.00041  20546504.69047  20546503.03049
 97 06 27 18 53 30.0000000  0  7 04 05 06 10 17 24 30
  22398012.55548  17452990.30144         0.00041  24870606.06844  24870603.01248
 -13683460.81749 -10662437.16947         0.00041  20625723.21047  20625720.77149
 -16635911.03748 -12963039.49246         0.00041  22330940.59946  22330938.21048
 -21907579.14849 -17070826.37046         0.00041  21048334.55946  21048331.32249
  -5788775.14148  -4510728.00544         0.00041  24508061.57244  24508058.07348
   1863841.94348   1452345.61046         0.00041  21986524.23346  21986521.83748
 -23545652.24649 -18347254.18247         0.00041  20541786.22347  20541784.62549
 97 06 27 18 54 00.0000000  0  7 04 05 06 10 17 24 30
  22492139.68248  17526336.03141         0.00041         0.00041  24888514.79348
 -13635717.85349 -10625234.88547         0.00041  20634808.24847  20634805.91849
 -16700486.30348 -13013357.86446         0.00041  22318652.41346  22318650.09248
 -21933927.65449 -17091357.66246         0.00041  21043320.55646  21043317.38049
  -5879467.05748  -4581396.93644         0.00041  24490805.16744  24490800.33148
   1936440.70348   1508916.05746         0.00041  22000339.50446  22000337.26148
 -23569966.22549 -18366200.14447         0.00041  20537159.43847  20537157.93749
 97 06 27 18 54 30.0000000  0  7 04 05 06 10 17 24 30
  22586139.74548         0.00041         0.00041         0.00041  24906402.63448
 -13587554.46249 -10587704.99647         0.00041  20643973.43847  20643971.12249
 -16765040.22448 -13063659.60246         0.00041  22306367.91646  22306366.04848
 -21959745.01149 -17111475.07246         0.00041  21038407.48446  21038404.46849
  -5970051.10348  -4651981.80144         0.00041  24473570.24744  24473563.04748
   2009089.76448   1565525.69346         0.00041  22014164.69846  22014161.86448
 -23593772.09749 -18384750.17947         0.00041  20532629.33147  20532627.95149
 97 06 27 18 55 00.0000000  0  7 04 05 06 10 17 24 30
  22680101.42448         0.00041         0.00041         0.00041  24924283.86548
 -13538854.40949 -10549756.92846         0.00041  20653240.63846  20653238.21249
 -16829477.83948 -13113870.72346         0.00041  22294105.75546  22294103.96048
 -21984923.40749 -17131094.58646         0.00041  21033616.31046  21033613.18049
  -6060423.87848  -4722402.04344         0.00041  24456370.74944  24456364.76648
   2081888.03648   1622251.59346         0.00041  22028017.70446  22028014.56048
 -23616991.15849 -18402842.96047         0.00041  20528210.95547  20528209.36249
 97 06 27 18 55 30.0000000  0  7 04 05 06 10 17 24 30
  22774145.55748         0.00041         0.00041         0.00041  24942180.50448
 -13489476.64549 -10511280.77546         0.00041  20662637.29846  20662634.71549
 -16893696.01848 -13163910.84546         0.00041  22281885.63946  22281883.36248
 -22009363.74949 -17150138.99346         0.00041  21028965.41546  21028962.58349
  -6150478.84948  -4792574.67644         0.00041  24439232.17344  24439228.09248
   2154945.86548   1679179.73946         0.00041  22041920.62946  22041917.05348
 -23639497.74749 -18420380.56847         0.00041  20523928.04847  20523926.49149
 97 06 27 18 56 00.0000000  0  7 04 05 06 10 17 24 30
  22868194.85848         0.00041         0.00041         0.00041  24960077.34548
 -13439510.13149 -10472345.85246         0.00041  20672145.38046  20672142.97749
 -16957792.07448 -13213855.79646         0.00041  22269688.97346  22269686.42648
 -22033158.54349 -17168680.38146         0.00041  21024437.42746  21024434.35049
  -6240308.22048  -4862571.48344         0.00041  24422137.55844  24422134.61548
   2228184.16348   1736248.51446         0.00041  22055856.76146  22055853.97748
 -23661375.21649 -18437427.95447         0.00041  20519764.85647  20519763.40649
 97 06 27 18 56 30.0000000  0  7 04 05 06 10 17 24 30
  22962295.36748  17892690.76141         0.00041         0.00041  24977984.40148
 -13388890.63749 -10432902.11246         0.00041  20681777.99746  20681775.64349
 -17021716.80448 -13263667.25846         0.00041  22257524.32746  22257522.00748
 -22056248.89449 -17186672.84946         0.00041  21020043.53746  21020040.47949
  -6329856.11948  -4932349.01044         0.00041  24405101.52844  24405093.86248
   2301669.85748   1793510.08046         0.00041  22069840.43646  22069837.93248
 -23682571.91049 -18453944.86147         0.00041  20515731.45247  20515729.98449
 97 06 27 18 57 00.0000000  0  7 04 05 06 10 17 24 30
  23056347.87948         0.00041         0.00041         0.00041  24995881.34648
 -13337724.94549 -10393032.76446         0.00041  20691514.58046  20691512.04649
 -17085580.79048 -13313431.37646         0.00041  22245371.03846  22245368.80948
 -22078739.62049 -17204198.08046         0.00041  21015763.71946  21015760.56449
  -6419244.55748  -5002002.27344         0.00041  24388088.45744  24388083.38148
   2375311.73248   1850893.32846         0.00041  22083854.56546  22083851.46348
 -23703177.17249 -18470000.91747         0.00041  20511810.26147  20511808.68849
 97 06 27 18 57 30.0000000  0  7 04 05 06 10 17 24 30
  23150299.37348  18039187.31841         0.00041         0.00041  25013759.65648
 -13286101.32549 -10352806.59046         0.00041  20701338.05846  20701335.73149
 -17149449.04448 -13363198.82346         0.00041  22233216.92546  22233215.33748
 -22100696.53949 -17221307.36146         0.00041  21011585.33046  21011582.21549
  -6508542.76848  -5071585.23344         0.00041  24371096.72044  24371090.26248
   2449047.89548   1908350.04646         0.00041  22097886.02246  22097882.78848
 -23723246.30549 -18485639.20847         0.00041  20507991.14147  20507989.69249
 97 06 27 18 58 00.0000000  0  7 04 05 06 10 17 24 30
  23244122.68248  18112296.34344         0.00041  25031619.15044  25031614.04948
 -13234054.90549 -10312250.96646         0.00041  20711242.46446  20711239.87149
 -17213326.60248 -13412973.52646         0.00041  22221061.76846  22221059.82848
 -22122120.93749 -17238001.68746         0.00041  21007508.48846  21007505.36849
  -6597775.38148  -5141117.06544         0.00041  24354115.88844  24354110.01548
   2522857.78648   1965864.21946         0.00041  22111931.82646  22111928.78248
 -23742817.90049 -18500889.80747         0.00041  20504266.84747  20504265.55849
 97 06 27 18 58 30.0000000  0  7 04 05 06 10 17 24 30
  23337733.48648  18185239.80641         0.00041         0.00041  25049427.24948
 -13181653.41249 -10271418.66646         0.00041  20721214.36346  20721211.49549
 -17277262.55848 -13462793.73246         0.00041  22208895.43846  22208893.27448
 -22143070.53249 -17254326.03146         0.00041  21003521.87846  21003518.69249
  -6687009.75648  -5210650.27944         0.00041  24337135.26044  24337129.93448
   2596671.14448   2023381.09146         0.00041  22125977.77846  22125974.59948
 -23761941.97949 -18515791.69247         0.00041  20500627.58347  20500626.26049
 97 06 27 18 59 00.0000000  0  7 04 05 06 10 17 24 30
  23431242.44448  18258103.93544         0.00041  25067223.85444  25067221.63648
 -13128808.26549 -10230240.66546         0.00041  20731270.28146  20731267.48149
 -17341156.17148 -13512580.94746         0.00041  22196737.01446  22196734.62448
 -22163450.82449 -17270206.76346         0.00041  20999643.49546  20999640.42149
  -6776143.15148  -5280104.80844         0.00041  24320175.34744  24320167.95148
   2670574.73048   2080968.27146         0.00041  22140041.24946  22140038.11148
 -23780502.88549 -18530254.74147         0.00041  20497095.55247  20497094.12249
 97 06 27 18 59 30.0000000  0  7 04 05 06 10 17 24 30
  23524769.70248  18330982.20641         0.00041         0.00041  25085019.16948
 -13075385.12549 -10188612.27746         0.00041  20741436.12246  20741433.89649
 -17404869.54448 -13562227.70646         0.00041  22184612.79146  22184610.31648
 -22183132.05849 -17285542.77546         0.00041  20995898.20846  20995895.17849
  -6865024.83148  -5349363.21544         0.00041  24303259.73044  24303254.21348
   2744688.57648   2138719.29546         0.00041  22154144.17146  22154141.60048
 -23798366.38549 -18544174.35647         0.00041  20493696.12547  20493694.66949
 97 06 27 19 00 00.0000000  0  7 04 05 06 10 17 24 30
  23618299.11748  18403862.27144         0.00041  25102820.47044  25102817.00648
 -13021363.85749 -10146517.81946         0.00041  20751716.14546  20751713.77449
 -17468395.47048 -13611728.39646         0.00041  22172523.92846  22172521.51948
 -22202110.66149 -17300331.28246         0.00041  20992286.81946  20992283.66949
  -6953639.61948  -5418413.62844         0.00041  24286397.52644  24286391.47348
   2819001.60648   2196625.52846         0.00041  22168285.92946  22168282.89348
 -23815515.74649 -18557537.49947         0.00041  20490432.93747  20490431.44549
 97 06 27 19 00 30.0000000  0  7 04 05 06 10 17 24 30
  23711821.60448  18476736.82244         0.00041  25120615.76344  25120613.81048
 -12966761.97049 -10103970.92646         0.00041  20762106.60346  20762104.26649
 -17531755.29248 -13661099.65446         0.00041  22160466.45746  22160464.45948
 -22220420.68949 -17314598.82346         0.00041  20988802.66446  20988799.49649
  -7041982.17148  -5487251.93244         0.00041  24269585.89644  24269580.72748
   2893490.99148   2254669.17846         0.00041  22182460.67946  22182457.79748
 -23831964.99749 -18570355.10547         0.00041  20487302.89947  20487301.17449
 97 06 27 19 01 00.0000000  0  7 04 05 06 10 17 24 30
  23805402.71748  18549657.15641         0.00041         0.00041  25138420.54248
 -12911522.05349 -10060926.86646         0.00041  20772618.57946  20772616.05649
 -17594906.82848 -13710308.61846         0.00041  22148450.03146  22148447.51448
 -22238005.55449 -17328301.30846         0.00041  20985456.36846  20985453.14849
  -7129977.55348  -5555819.68544         0.00041  24252840.84744  24252835.51048
   2968203.30548   2312886.53746         0.00041  22196678.31746  22196675.12048
 -23847690.76249 -18582608.95047         0.00041  20484310.47647  20484308.72749
 97 06 27 19 01 30.0000000  0  7 04 05 06 10 17 24 30
  23898848.22748  18622471.73141         0.00041         0.00041  25156202.57548
 -12855824.37349 -10017526.11246         0.00041  20783217.48746  20783215.02849
 -17658030.81048 -13759496.10946         0.00041  22136437.68346  22136435.48048
 -22255056.20549 -17341587.51846         0.00041  20982211.76846  20982208.58149
  -7217803.63648  -5624255.53644         0.00041  24236129.41644  24236122.68448
   3042957.98848   2371136.90046         0.00041  22210903.70546  22210900.51248
 -23862901.82349 -18594461.73447         0.00041  20481415.67047  20481413.89749
 97 06 27 19 02 00.0000000  0  7 04 05 06 10 17 24 30
  23992186.63748  18695202.89041         0.00041         0.00041  25173964.44348
 -12799657.43349  -9973759.69846         0.00041  20793905.63046  20793903.27549
 -17721117.59648 -13808654.63146         0.00041  22124432.26946  22124430.28548
 -22271544.61149 -17354435.61346         0.00041  20979074.00546  20979070.81249
  -7305443.67648  -5692546.37344         0.00041  24219450.36244  24219444.42848
   3117776.54848   2429437.05146         0.00041  22225140.97446  22225137.79248
 -23877595.83249 -18605911.61547         0.00041  20478619.67647  20478617.87449
 97 06 27 19 02 30.0000000  0  7 04 05 06 10 17 24 30
  24085378.09147         0.00041         0.00041         0.00041  25191725.75147
 -12742977.20349  -9929593.32146         0.00041  20804692.01146  20804689.14949
 -17784116.18248 -13857744.42546         0.00041  22112444.18546  22112441.82748
 -22287414.40449 -17366801.67546         0.00041  20976053.95646  20976050.86549
  -7392845.59048  -5760651.68644         0.00041  24202820.25144  24202812.42248
   3192717.10448   2487832.26446         0.00041  22239401.86746  22239398.65848
 -23891731.58649 -18616926.49647         0.00041  20475929.80547  20475927.97949
 97 06 27 19 03 00.0000000  0  6 05 06 10 17 24 30
 -12685954.80649  -9885160.32046         0.00041  20815542.72646  20815540.18949
 -17847196.99548 -13906898.30046         0.00041  22100440.25646  22100437.97548
 -22302832.23449 -17378815.56546         0.00041  20973120.11646  20973117.01449
  -7480203.48748  -5828722.70144         0.00041  24186194.62744  24186189.04148
   3267598.56448   2546181.43246         0.00041  22253651.30346  22253647.85348
 -23905470.08449 -18627631.82947         0.00041  20473315.39247  20473313.52949
 97 06 27 19 03 30.0000000  0  6 05 06 10 17 24 30
 -12628546.76149  -9840426.81546         0.00041  20826467.23146  20826464.69149
 -17910284.42248 -13956057.32746         0.00041  22088434.78646  22088432.76648
 -22317739.19449 -17390431.37446         0.00041  20970283.48346  20970280.31649
  -7567474.63248  -5896726.11144         0.00041  24169587.94144  24169582.63048
   3342478.96148   2604529.76446         0.00041  22267901.35246  22267897.42048
 -23918726.70949 -18637961.67747         0.00041  20470792.74347  20470791.15749
 97 06 27 19 04 00.0000000  0  7 04 05 06 10 17 24 30
        -0.19858        -0.08854         0.00051  25244788.81054  25244783.52558
 -12570653.29849  -9795315.06146         0.00041  20837484.13146  20837481.40049
 -17973273.88848 -14005140.00746         0.00041  22076448.82046  22076446.16448
 -22332011.70649 -17401552.80546         0.00041  20967567.29746  20967564.28649
  -7654558.18848  -5964583.34044         0.00041  24153017.67544  24153010.29748
   3417453.38548   2662951.35846         0.00041  22282167.86046  22282164.65148
 -23931377.15149 -18647819.17347         0.00041  20468385.63247  20468383.85949
 97 06 27 19 04 30.0000000  0  7 04 05 06 10 17 24 30
     92838.03348     72341.32741         0.00041         0.00041  25262450.35248
 -12512271.88749  -9749823.08646         0.00041  20848593.62146  20848590.89149
 -18036159.11748 -14054141.46646         0.00041  22064482.24046  22064479.45848
 -22345653.35649 -17412182.65546         0.00041  20964971.46246  20964968.32049
  -7741455.96348  -6032295.83044         0.00041  24136482.06144  24136474.18448
   3492520.47348   2721445.16346         0.00041  22296453.43346  22296449.61848
 -23943395.48149 -18657184.11747         0.00041  20466098.17247  20466096.61349
 97 06 27 19 05 00.0000000  0  7 04 05 06 10 17 24 30
    185626.98748    144644.32641         0.00041         0.00041  25280107.60748
 -12453418.46249  -9703963.30746         0.00041  20859793.58446  20859790.51949
 -18098958.92248 -14103076.35246         0.00041  22052531.96846  22052528.94448
 -22358699.12449 -17422348.17746         0.00041  20962488.95746  20962485.92249
  -7828189.42448  -6099880.26444         0.00041  24119973.86144  24119969.57848
   3567667.62448   2780001.36246         0.00041  22310753.18946  22310749.45348
 -23954798.63549 -18666069.70247         0.00041  20463928.43847  20463926.77649
 97 06 27 19 05 30.0000000  0  7 04 05 06 10 17 24 30
    278478.33148    216995.98844         0.00041  25297779.60544  25297776.41848
 -12393990.65049  -9657655.95546         0.00041  20871101.84346  20871099.15449
 -18161574.67348 -14151867.81846         0.00041  22040616.06046  22040613.54748
 -22371040.64649 -17431964.93746         0.00041  20960140.42246  20960137.35149
  -7914638.22248  -6167242.87844         0.00041  24103524.66744  24103518.88948
   3643021.35348   2838718.52946         0.00041  22325092.04946  22325088.86548
 -23965484.38649 -18674396.26947         0.00041  20461894.97047  20461893.39349
 97 06 27 19 06 00.0000000  0  7 04 05 06 10 17 24 30
    371238.81248    289276.82844         0.00041  25315428.10444  25315429.21148
 -12334121.45549  -9611004.67046         0.00041  20882494.68846  20882491.92949
 -18224165.71248 -14200640.04046         0.00041  22028705.43646  22028702.74548
 -22382818.78249 -17441142.69546         0.00041  20957899.07746  20957896.18249
  -8000935.50848  -6234487.41844         0.00041  24087101.71244  24087096.94448
   3718448.62448   2897493.00346         0.00041  22339444.84946  22339442.14548
 -23975601.68149 -18682279.88347         0.00041  20459969.95947  20459968.26949
 97 06 27 19 06 30.0000000  0  7 04 05 06 10 17 24 30
    463926.16848    361500.70544         0.00041  25333068.54344  25333066.77248
 -12273774.69049  -9563981.24946         0.00041  20893978.61746  20893975.53149
 -18286692.95448 -14249362.54446         0.00041  22016806.93446  22016804.35948
 -22394008.53249 -17449861.97246         0.00041  20955769.92846  20955766.86949
  -8087039.59948  -6301581.44244         0.00041  24070717.23144  24070711.22348
   3794001.18848   2956365.09546         0.00041  22353822.61846  22353819.40248
 -23985124.62449 -18689700.36447         0.00041  20458157.69047  20458156.03949
 97 06 27 19 07 00.0000000  0  7 04 05 06 10 17 24 30
    556483.54748    433623.22944         0.00041  25350681.28344  25350679.53848
 -12212988.86649  -9516615.70946         0.00041  20905545.74446  20905542.70949
 -18349184.35748 -14298057.12846         0.00041  22004915.41846  22004912.70948
 -22404636.13549 -17458143.21746         0.00041  20953747.46246  20953744.39549
  -8172982.69548  -6368550.00544         0.00041  24054361.05444  24054357.26548
   3869647.08548   3015309.90546         0.00041  22368217.51346  22368214.71248
 -23994106.41449 -18696699.16547         0.00041  20456448.49247  20456446.93049
 97 06 27 19 07 30.0000000  0  7 04 05 06 10 17 24 30
    648869.50348         0.00041         0.00041         0.00041  25368259.66648
 -12151812.40749  -9468945.77146         0.00041  20917187.12146  20917184.35649
 -18411673.76448 -14346750.15846         0.00041  21993023.92446  21993021.21948
 -22414718.07949 -17465999.27746         0.00041  20951828.70346  20951825.75549
  -8258805.47748  -6435424.83444         0.00041  24038028.90444  24038025.49348
   3945334.89448   3074287.39346         0.00041  22382620.99046  22382617.74548
 -24002581.47149 -18703303.11447         0.00041  20454835.71447  20454834.13149
 97 06 27 19 08 00.0000000  0  7 04 05 06 10 17 24 30
    741155.34348         0.00041         0.00041         0.00041  25385820.84648
 -12090172.79749  -9420914.94546         0.00041  20928916.82946  20928913.85849
 -18474083.62848 -14395381.20746         0.00041  21981148.25146  21981145.13548
 -22424181.96849 -17473373.73146         0.00041  20950027.85646  20950024.74349
  -8344444.38648  -6502156.38144         0.00041  24021733.34744  24021728.51848
   4021110.73048   3133333.46646         0.00041  22397039.83746  22397037.33448
 -24010472.87849 -18709452.27247         0.00041  20453334.06447  20453332.60249
 97 06 27 19 08 30.0000000  0  6 05 06 10 17 24 30
 -12027993.26749  -9372463.39546         0.00041  20940749.21546  20940746.24949
 -18536330.02448 -14443884.88246         0.00041  21969303.01946  21969300.62348
 -22432955.36549 -17480210.14346         0.00041  20948358.27846  20948355.37549
  -8429833.56448  -6568693.32544         0.00041  24005485.99144  24005479.48848
   4097030.02248   3192491.34246         0.00041  22411487.00746  22411484.04748
 -24017689.61749 -18715075.71547         0.00041  20451960.82547  20451959.32549
 97 06 27 19 09 00.0000000  0  6 05 06 10 17 24 30
 -11965398.29349  -9323688.12746         0.00041  20952660.54446  20952657.91049
 -18598525.51648 -14492348.89346         0.00041  21957466.96346  21957465.26048
 -22441156.20549 -17486600.40346         0.00041  20946797.91546  20946794.86849
  -8515091.93348  -6635128.35644         0.00041  23989259.91744  23989255.53948
   4172953.65248   3251652.57246         0.00041  22425935.03046  22425931.81048
 -24024332.86249 -18720252.28147         0.00041  20450696.45147  20450695.12049
 97 06 27 19 09 30.0000000  0  6 05 06 10 17 24 30
 -11902264.44949  -9274492.95946         0.00041  20964674.49146  20964671.81849
 -18660556.05048 -14540684.36546         0.00041  21945663.00446  21945661.18048
 -22448661.07949 -17492448.35146         0.00041  20945369.44746  20945366.41449
  -8600093.43348  -6701363.21544         0.00041  23973086.57044  23973080.49248
   4248994.04148   3310904.78246         0.00041  22440404.67446  22440401.97748
 -24030277.90849 -18724884.79747         0.00041  20449565.30747  20449563.85849
 97 06 27 19 10 00.0000000  0  6 05 06 10 17 24 30
 -11838688.75649  -9224953.49346         0.00041  20976772.85746  20976769.91249
 -18722520.51648 -14588968.34946         0.00041  21933871.57946  21933869.35648
 -22455585.38849 -17497843.91846         0.00041  20944051.96546  20944048.89649
  -8684936.95248  -6767474.99344         0.00041  23956940.61944  23956935.18348
   4325047.58248   3370167.24946         0.00041  22454877.24346  22454874.43248
 -24035626.95049 -18729052.89547         0.00041  20448547.33847  20448545.93649
 97 06 27 19 10 30.0000000  0  6 05 06 10 17 24 30
 -11774828.83549  -9175192.55346         0.00041  20988924.74446  20988922.03649
 -18784571.67548 -14637319.88546         0.00041  21922063.35246  21922061.43848
 -22462095.93449 -17502917.06946         0.00041  20942813.12846  20942809.93349
  -8769768.28748  -6833577.25344         0.00041  23940797.75144  23940792.35248
   4400974.08648   3429330.73746         0.00041  22469325.93946  22469322.78348
 -24040552.82649 -18732891.25547         0.00041  20447610.16147  20447608.54149
 97 06 27 19 11 00.0000000  0  6 05 06 10 17 24 30
 -11710484.69049  -9125054.29246         0.00041  21001168.98346  21001166.24249
 -18846506.44448 -14685580.72046         0.00041  21910278.17246  21910275.44448
 -22467996.84049 -17507515.17646         0.00041  20941690.29346  20941687.11449
  -8854381.25848  -6899509.37944         0.00041  23924695.71044  23924691.26948
   4476987.70548   3488562.09646         0.00041  22483791.79346  22483788.00348
 -24044876.55149 -18736260.40347         0.00041  20446787.31847  20446785.82649
 97 06 27 19 11 30.0000000  0  6 05 06 10 17 24 30
 -11645617.96049  -9074508.82346         0.00041  21013512.73446  21013509.90749
 -18908295.50648 -14733728.02346         0.00041  21898519.50746  21898517.18948
 -22473260.10049 -17511616.41146         0.00041  20940688.74246  20940685.65549
  -8938754.30748  -6965254.55444         0.00041  23908640.53444  23908635.13048
   4553135.26148   3547897.82846         0.00041  22498281.09546  22498277.96548
 -24048571.24949 -18739139.39847         0.00041  20446084.31447  20446082.78249
 97 06 27 19 12 00.0000000  0  6 05 06 10 17 24 30
 -11580267.13749  -9023586.13746         0.00041  21025948.99546  21025945.90249
 -18969969.79948 -14781785.90046         0.00041  21886783.24946  21886781.25748
 -22477938.70549 -17515262.07446         0.00041  20939798.29946  20939795.11349
  -9022931.13648  -7030846.81644         0.00041  23892622.60544  23892617.08848
   4629382.90048   3607311.54546         0.00041  22512791.12146  22512787.42648
 -24051667.13349 -18741551.78547         0.00041  20445495.24147  20445493.64149
 97 06 27 19 12 30.0000000  0  6 05 06 10 17 24 30
 -11514483.25549  -8972326.00646         0.00041  21038467.31246  21038464.25049
 -19031575.53248 -14829790.35646         0.00041  21875060.55946  21875058.15848
 -22482059.38249 -17518472.97946         0.00041  20939014.27446  20939011.27149
  -9106953.32148  -7096318.54744         0.00041  23876632.87944  23876627.76648
   4705698.44548   3666778.17546         0.00041  22527313.29146  22527309.91448
 -24054204.01649 -18743528.59047         0.00041  20445012.45747  20445010.96749
 97 06 27 19 13 00.0000000  0  6 05 06 10 17 24 30
 -11448239.62149  -8920707.62346         0.00041  21051072.97746  21051069.81749
 -19093077.36848 -14877713.85646         0.00041  21863357.31346  21863354.78148
 -22485565.01749 -17521204.63146         0.00041  20938347.19346  20938344.14949
  -9190801.65048  -7161654.83445         0.00041  23860676.11345  23860672.17448
   4782110.23048   3726319.80046         0.00041  22541853.81546  22541850.76448
 -24056119.77449 -18745021.40047         0.00041  20444647.95747  20444646.32449
 97 06 27 19 13 30.0000000  0  6 05 06 10 17 24 30
 -11381485.22049  -8868691.24546         0.00041  21063775.86046  21063772.68849
 -19154425.23148 -14925517.37246         0.00041  21851682.83246  21851680.66348
 -22488384.11349 -17523401.31646         0.00041  20937810.65846  20937807.84649
  -9274422.99648  -7226814.27945         0.00041  23844764.89145  23844760.26448
   4858668.98848   3785975.93946         0.00041  22556422.01646  22556419.23448
 -24057343.26949 -18745974.78547         0.00041  20444414.97947  20444413.39749
 97 06 27 19 14 00.0000000  0  6 05 06 10 17 24 30
 -11314306.95349  -8816344.58346         0.00041  21076559.55946  21076556.50849
 -19215706.70949 -14973269.15946         0.00041  21840021.24346  21840019.57549
 -22490586.98949 -17525117.83446         0.00041  20937391.49846  20937388.56949
  -9357880.87848  -7291846.33745         0.00041  23828882.37945  23828878.30548
   4935285.04548   3845676.73446         0.00041  22571001.89446  22570998.82448
 -24057958.39849 -18746454.12047         0.00041  20444298.10447  20444296.47949
 97 06 27 19 14 30.0000000  0  6 05 06 10 17 24 30
 -11246786.32949  -8763731.14346         0.00041  21089408.26846  21089405.07649
 -19277000.14949 -15021030.27046         0.00041  21828357.70446  21828355.81749
 -22492244.88849 -17526409.69746         0.00041  20937075.48546  20937073.01949
  -9441243.50048  -7356804.18645         0.00041  23813019.69745  23813014.44148
   5011877.36448   3905359.03646         0.00041  22585576.97146  22585573.51348
 -24058042.79649 -18746519.89847         0.00041  20444282.11647  20444280.31649
 97 06 27 19 15 00.0000000  0  6 05 06 10 17 24 30
 -11178800.59449  -8710755.28346         0.00041  21102345.82446  21102342.72649
 -19338179.84648 -15068702.74846         0.00041  21816715.01646  21816713.18948
 -22493256.33249 -17527197.83046         0.00041  20936883.42446  20936880.53149
  -9524385.88348  -7421590.40445         0.00041  23797197.50845  23797193.05648
   5088554.45948   3965107.39746         0.00041  22600168.06546  22600164.92748
 -24057481.45849 -18746082.50547         0.00041  20444388.66447  20444386.97049
 97 06 27 19 15 30.0000000  0  6 05 06 10 17 24 30
 -11110306.60549  -8657383.37946         0.00041  21115379.78946  21115376.63149
 -19399203.98348 -15116254.01646         0.00041  21805103.13746  21805100.37948
 -22493607.21949 -17527471.24046         0.00041  20936816.79946  20936813.76549
  -9607250.08348  -7486159.86145         0.00041  23781429.37745  23781424.65048
   5165343.64348   4024943.08046         0.00041  22614780.76646  22614777.88848
 -24056264.61449 -18745134.32647         0.00041  20444620.34547  20444618.65349
 97 06 27 19 16 00.0000000  0  6 05 06 10 17 24 30
 -11041258.05049  -8603579.34546         0.00041  21128519.17446  21128516.07849
 -19460004.55848 -15163631.07946         0.00041  21793532.99346  21793530.48548
 -22493263.46149 -17527203.37446         0.00041  20936882.13046  20936879.07749
  -9689782.34948  -7550470.66145         0.00041  23765723.75345  23765719.16348
   5242283.70648   4084896.35446         0.00041  22629422.52046  22629419.19548
 -24054360.19949 -18743650.37647         0.00041  20444983.01347  20444981.08849
 97 06 27 19 16 30.0000000  0  6 05 06 10 17 24 30
 -10971709.55449  -8549385.75146         0.00041  21141754.05346  21141751.02649
 -19520615.46948 -15210860.34746         0.00041  21781999.11546  21781996.62248
 -22492276.92849 -17526434.63946         0.00041  20937069.79946  20937066.74349
  -9772055.76948  -7614579.74445         0.00041  23750067.85745  23750062.67748
   5319321.84748   4144926.02746         0.00041  22644082.09546  22644078.80848
 -24051825.40449 -18741675.22447         0.00041  20445465.13047  20445463.45149
 97 06 27 19 17 00.0000000  0  6 05 06 10 17 24 30
 -10901752.73349  -8494873.98446         0.00041  21155066.19046  21155063.14349
 -19581130.14049 -15258014.62446         0.00041  21770483.34346  21770481.20849
 -22490734.26349 -17525232.55846         0.00041  20937363.22046  20937360.27949
  -9854170.94748  -7678565.51845         0.00041  23734442.46245  23734437.06848
   5396364.21348   4204959.02446         0.00041  22658742.83746  22658739.70348
 -24048758.43449 -18739285.38647         0.00041  20446048.91447  20446047.09249
 97 06 27 19 17 30.0000000  0  6 05 06 10 17 24 30
 -10831367.60949  -8440028.48146         0.00041  21168460.06746  21168457.08149
 -19641529.07349 -15305078.71346         0.00041  21758989.57246  21758987.75249
 -22488606.91149 -17523574.87646         0.00041  20937768.06046  20937765.20549
  -9936117.47848  -7742419.90645         0.00041  23718847.24045  23718842.99348
   5473432.64248   4265012.30446         0.00041  22673409.06646  22673404.77548
 -24045138.34249 -18736464.54647         0.00041  20446737.75347  20446736.13949
 97 06 27 19 18 00.0000000  0  6 05 06 10 17 24 30
 -10760588.33949  -8384875.84446         0.00041  21181928.95346  21181926.04549
 -19701835.82049 -15352070.98346         0.00041  21747513.68946  21747511.78149
 -22485890.18049 -17521457.93546         0.00041  20938284.99446  20938282.17049
 -10017921.28448  -7806163.08945         0.00041  23703282.09845  23703276.40048
   5550526.65348   4325085.52846         0.00041  22688079.69046  22688075.47748
 -24040964.79949 -18733212.44747         0.00041  20447532.06747  20447530.30549
 97 06 27 19 18 30.0000000  0  6 05 06 10 17 24 30
 -10689403.98049  -8329407.55446         0.00041  21195474.99746  21195471.95649
 -19762049.40949 -15398990.65746         0.00041  21736055.42246  21736053.79749
 -22482559.28649 -17518862.42646         0.00041  20938918.94946  20938916.05849
 -10099558.63148  -7869776.54245         0.00041  23687745.49645  23687740.85548
   5627672.75748   4385199.34346         0.00041  22702760.69446  22702756.33848
 -24036202.17949 -18729501.32747         0.00041  20448438.16247  20448436.70549
 97 06 27 19 19 00.0000000  0  6 05 06 10 17 24 30
 -10617741.44649  -8273566.66046         0.00041  21209111.98146  21209108.97649
 -19822111.19449 -15445792.04346         0.00041  21724626.37246  21724624.04149
 -22478553.20949 -17515740.80046         0.00041  20939681.29046  20939678.58449
 -10180933.27148  -7933185.29645         0.00041  23672262.20945  23672256.16948
   5704931.96448   4445401.27845         0.00041  22717461.20345  22717457.88448
 -24030770.20649 -18725268.63647         0.00041  20449471.93547  20449470.28249
 97 06 27 19 19 30.0000000  0  6 05 06 10 17 24 30
 -10545719.90049  -8217446.02146         0.00041  21222816.88846  21222814.12549
 -19882123.22149 -15492554.64946         0.00041  21713206.04946  21713203.75249
 -22473976.11249 -17512174.22246         0.00041  20940552.26646  20940549.45949
 -10262144.71048  -7996466.88345         0.00041  23656805.96645  23656801.80848
   5782191.87048   4505603.76346         0.00041  22732163.16046  22732160.06548
 -24024769.61349 -18720592.86447         0.00041  20450613.86147  20450612.21449
 97 06 27 19 20 00.0000000  0  7 05 06 10 17 24 25 30
 -10473312.91149  -8161025.03546         0.00041  21236595.81246  21236592.70649
 -19942064.72449 -15539262.31046         0.00041  21701799.81146  21701797.63849
 -22468799.38749 -17508140.40646         0.00041  20941537.16146  20941534.56749
 -10343149.46048  -8059587.41745         0.00041  23641390.22545  23641387.18748
   5859477.08048   4565825.97246         0.00041  22746870.26146  22746867.01848
        -0.50258         0.56854         0.00051  25179586.01754  25179582.23158
 -24018164.75649 -18715446.23947         0.00041  20451870.74047  20451869.12249
 97 06 27 19 20 30.0000000  0  7 05 06 10 17 24 25 30
 -10400479.40149  -8104271.69746         0.00041  21250455.51946  21250452.53349
 -20001916.89449 -15585900.35446         0.00041  21690410.26846  21690408.13049
 -22463022.49249 -17503638.92146         0.00041  20942636.67746  20942633.72249
 -10423934.60648  -8122536.82345         0.00041  23626019.58245  23626014.10248
   5936788.41748   4626068.52046         0.00041  22761582.56646  22761578.61448
     -1750.99148     -1363.49044         0.00041  25179252.00544  25179249.68848
 -24010940.29049 -18709816.80447         0.00041  20453245.61847  20453243.83349
 97 06 27 19 21 00.0000000  0  7 05 06 10 17 24 25 30
 -10327179.87749  -8047155.22646         0.00041  21264404.05446  21264401.00849
 -20061645.81849 -15632442.35946         0.00041  21679044.48046  21679042.05649
 -22456617.96549 -17498648.37746         0.00041  20943855.47046  20943852.53749
 -10504474.74348  -8185295.33045         0.00041  23610693.05445  23610688.21948
   6014156.41248   4686355.23946         0.00041  22776305.22146  22776301.61748
     -3007.62048     -2342.67244         0.00041  25179012.21344  25179011.23048
 -24003075.35649 -18703688.30247         0.00041  20454742.35047  20454740.56249
 97 06 27 19 21 30.0000000  0  7 05 06 10 17 24 25 30
 -10253514.18349  -7989753.43646         0.00041  21278422.01646  21278419.02249
 -20121359.44449 -15678972.44246         0.00041  21667681.39246  21667678.75949
 -22449683.93749 -17493245.23346         0.00041  20945174.70046  20945171.80649
 -10584883.79048  -8247951.65845         0.00041  23595391.07745  23595386.42948
   6091486.73448   4746612.60646         0.00041  22791020.67346  22791017.26048
     -3878.75848     -3021.50141         0.00041         0.00041  25178845.62348
 -23994679.93949 -18697146.43547         0.00041  20456339.79447  20456338.01749
